<?xml version="1.0" encoding="UTF-8" standalone="no" ?>
<gpx xmlns="http://www.topografix.com/GPX/1/1" xmlns:xsi="http://www.w3.org/2001/XMLSchema-instance" xsi:schemaLocation="http://www.topografix.com/GPX/1/1 http://www.topografix.com/GPX/1/1/gpx.xsd" version="1.1" creator="VisuGPX - https://www.visugpx.com">
  <metadata>
    <name>Sortie_cyclo_19_05_2013 (Autour de Lannion)</name>
    <desc><![CDATA[Circuits de bosses autour de Lannion (54 kms en fait). 
GPS (batterie faible) :-(
]]></desc>
  </metadata>
  <trk>
    <name><![CDATA[19-MAI-13 12:29:53]]></name>
    <trkseg>
      <trkpt lat="48.74693" lon="-3.45516">
        <ele>82.81</ele>
        <time>2013-05-19T08:02:51Z</time>
      </trkpt>
      <trkpt lat="48.74692" lon="-3.45517">
        <ele>86.18</ele>
        <time>2013-05-19T08:02:59Z</time>
      </trkpt>
      <trkpt lat="48.74697" lon="-3.455">
        <ele>86.66</ele>
        <time>2013-05-19T08:03:14Z</time>
      </trkpt>
      <trkpt lat="48.74708" lon="-3.45501">
        <ele>86.66</ele>
        <time>2013-05-19T08:03:39Z</time>
      </trkpt>
      <trkpt lat="48.74698" lon="-3.45502">
        <ele>86.66</ele>
        <time>2013-05-19T08:03:57Z</time>
      </trkpt>
      <trkpt lat="48.74699" lon="-3.455">
        <ele>86.18</ele>
        <time>2013-05-19T08:04:17Z</time>
      </trkpt>
      <trkpt lat="48.747" lon="-3.45499">
        <ele>86.66</ele>
        <time>2013-05-19T08:04:44Z</time>
      </trkpt>
      <trkpt lat="48.74701" lon="-3.45498">
        <ele>86.18</ele>
        <time>2013-05-19T08:05:11Z</time>
      </trkpt>
      <trkpt lat="48.74701" lon="-3.45497">
        <ele>86.18</ele>
        <time>2013-05-19T08:05:30Z</time>
      </trkpt>
      <trkpt lat="48.74701" lon="-3.45501">
        <ele>85.69</ele>
        <time>2013-05-19T08:05:45Z</time>
      </trkpt>
      <trkpt lat="48.74701" lon="-3.455">
        <ele>85.69</ele>
        <time>2013-05-19T08:05:46Z</time>
      </trkpt>
      <trkpt lat="48.747" lon="-3.45509">
        <ele>86.18</ele>
        <time>2013-05-19T08:05:49Z</time>
      </trkpt>
      <trkpt lat="48.74687" lon="-3.45521">
        <ele>85.21</ele>
        <time>2013-05-19T08:05:53Z</time>
      </trkpt>
      <trkpt lat="48.74682" lon="-3.4552">
        <ele>85.21</ele>
        <time>2013-05-19T08:05:54Z</time>
      </trkpt>
      <trkpt lat="48.74677" lon="-3.45516">
        <ele>85.21</ele>
        <time>2013-05-19T08:05:55Z</time>
      </trkpt>
      <trkpt lat="48.74673" lon="-3.45511">
        <ele>85.21</ele>
        <time>2013-05-19T08:05:56Z</time>
      </trkpt>
      <trkpt lat="48.74669" lon="-3.45506">
        <ele>84.73</ele>
        <time>2013-05-19T08:05:57Z</time>
      </trkpt>
      <trkpt lat="48.74664" lon="-3.455">
        <ele>84.73</ele>
        <time>2013-05-19T08:05:58Z</time>
      </trkpt>
      <trkpt lat="48.74637" lon="-3.45471">
        <ele>82.81</ele>
        <time>2013-05-19T08:06:03Z</time>
      </trkpt>
      <trkpt lat="48.7463" lon="-3.45469">
        <ele>81.85</ele>
        <time>2013-05-19T08:06:04Z</time>
      </trkpt>
      <trkpt lat="48.74624" lon="-3.45471">
        <ele>80.89</ele>
        <time>2013-05-19T08:06:05Z</time>
      </trkpt>
      <trkpt lat="48.74618" lon="-3.45477">
        <ele>80.89</ele>
        <time>2013-05-19T08:06:06Z</time>
      </trkpt>
      <trkpt lat="48.74613" lon="-3.45484">
        <ele>80.41</ele>
        <time>2013-05-19T08:06:07Z</time>
      </trkpt>
      <trkpt lat="48.7461" lon="-3.45491">
        <ele>79.45</ele>
        <time>2013-05-19T08:06:08Z</time>
      </trkpt>
      <trkpt lat="48.74607" lon="-3.45499">
        <ele>78.48</ele>
        <time>2013-05-19T08:06:09Z</time>
      </trkpt>
      <trkpt lat="48.74603" lon="-3.45508">
        <ele>77.52</ele>
        <time>2013-05-19T08:06:11Z</time>
      </trkpt>
      <trkpt lat="48.746" lon="-3.45511">
        <ele>77.04</ele>
        <time>2013-05-19T08:06:13Z</time>
      </trkpt>
      <trkpt lat="48.74597" lon="-3.45511">
        <ele>76.56</ele>
        <time>2013-05-19T08:06:14Z</time>
      </trkpt>
      <trkpt lat="48.74593" lon="-3.45509">
        <ele>76.56</ele>
        <time>2013-05-19T08:06:15Z</time>
      </trkpt>
      <trkpt lat="48.74588" lon="-3.45505">
        <ele>76.56</ele>
        <time>2013-05-19T08:06:16Z</time>
      </trkpt>
      <trkpt lat="48.74584" lon="-3.455">
        <ele>76.08</ele>
        <time>2013-05-19T08:06:17Z</time>
      </trkpt>
      <trkpt lat="48.7458" lon="-3.45495">
        <ele>75.6</ele>
        <time>2013-05-19T08:06:18Z</time>
      </trkpt>
      <trkpt lat="48.74576" lon="-3.45488">
        <ele>75.6</ele>
        <time>2013-05-19T08:06:19Z</time>
      </trkpt>
      <trkpt lat="48.74571" lon="-3.45481">
        <ele>75.12</ele>
        <time>2013-05-19T08:06:20Z</time>
      </trkpt>
      <trkpt lat="48.74562" lon="-3.45463">
        <ele>74.16</ele>
        <time>2013-05-19T08:06:22Z</time>
      </trkpt>
      <trkpt lat="48.74535" lon="-3.45412">
        <ele>71.27</ele>
        <time>2013-05-19T08:06:27Z</time>
      </trkpt>
      <trkpt lat="48.74517" lon="-3.45383">
        <ele>70.79</ele>
        <time>2013-05-19T08:06:30Z</time>
      </trkpt>
      <trkpt lat="48.7451" lon="-3.45375">
        <ele>71.76</ele>
        <time>2013-05-19T08:06:31Z</time>
      </trkpt>
      <trkpt lat="48.74499" lon="-3.45364">
        <ele>72.24</ele>
        <time>2013-05-19T08:06:33Z</time>
      </trkpt>
      <trkpt lat="48.74473" lon="-3.45332">
        <ele>75.6</ele>
        <time>2013-05-19T08:06:41Z</time>
      </trkpt>
      <trkpt lat="48.74453" lon="-3.45307">
        <ele>78</ele>
        <time>2013-05-19T08:06:50Z</time>
      </trkpt>
      <trkpt lat="48.74422" lon="-3.45269">
        <ele>80.41</ele>
        <time>2013-05-19T08:07:04Z</time>
      </trkpt>
      <trkpt lat="48.74415" lon="-3.45261">
        <ele>80.89</ele>
        <time>2013-05-19T08:07:17Z</time>
      </trkpt>
      <trkpt lat="48.74414" lon="-3.45259">
        <ele>80.89</ele>
        <time>2013-05-19T08:07:25Z</time>
      </trkpt>
      <trkpt lat="48.74413" lon="-3.45258">
        <ele>80.89</ele>
        <time>2013-05-19T08:07:26Z</time>
      </trkpt>
      <trkpt lat="48.74412" lon="-3.45256">
        <ele>80.89</ele>
        <time>2013-05-19T08:07:27Z</time>
      </trkpt>
      <trkpt lat="48.7441" lon="-3.45255">
        <ele>81.37</ele>
        <time>2013-05-19T08:07:28Z</time>
      </trkpt>
      <trkpt lat="48.74408" lon="-3.45253">
        <ele>80.89</ele>
        <time>2013-05-19T08:07:29Z</time>
      </trkpt>
      <trkpt lat="48.74406" lon="-3.4525">
        <ele>81.37</ele>
        <time>2013-05-19T08:07:30Z</time>
      </trkpt>
      <trkpt lat="48.74397" lon="-3.45242">
        <ele>81.37</ele>
        <time>2013-05-19T08:07:33Z</time>
      </trkpt>
      <trkpt lat="48.74389" lon="-3.45236">
        <ele>81.85</ele>
        <time>2013-05-19T08:07:35Z</time>
      </trkpt>
      <trkpt lat="48.74384" lon="-3.45233">
        <ele>81.85</ele>
        <time>2013-05-19T08:07:36Z</time>
      </trkpt>
      <trkpt lat="48.7438" lon="-3.45231">
        <ele>81.85</ele>
        <time>2013-05-19T08:07:37Z</time>
      </trkpt>
      <trkpt lat="48.74349" lon="-3.45217">
        <ele>80.89</ele>
        <time>2013-05-19T08:07:43Z</time>
      </trkpt>
      <trkpt lat="48.74306" lon="-3.45175">
        <ele>78</ele>
        <time>2013-05-19T08:07:50Z</time>
      </trkpt>
      <trkpt lat="48.743" lon="-3.45166">
        <ele>78</ele>
        <time>2013-05-19T08:07:51Z</time>
      </trkpt>
      <trkpt lat="48.74295" lon="-3.45156">
        <ele>77.52</ele>
        <time>2013-05-19T08:07:52Z</time>
      </trkpt>
      <trkpt lat="48.7429" lon="-3.45145">
        <ele>76.56</ele>
        <time>2013-05-19T08:07:53Z</time>
      </trkpt>
      <trkpt lat="48.74285" lon="-3.45133">
        <ele>76.56</ele>
        <time>2013-05-19T08:07:54Z</time>
      </trkpt>
      <trkpt lat="48.7428" lon="-3.4512">
        <ele>76.56</ele>
        <time>2013-05-19T08:07:55Z</time>
      </trkpt>
      <trkpt lat="48.74277" lon="-3.45106">
        <ele>75.6</ele>
        <time>2013-05-19T08:07:56Z</time>
      </trkpt>
      <trkpt lat="48.74274" lon="-3.45092">
        <ele>75.6</ele>
        <time>2013-05-19T08:07:57Z</time>
      </trkpt>
      <trkpt lat="48.74272" lon="-3.45077">
        <ele>74.64</ele>
        <time>2013-05-19T08:07:58Z</time>
      </trkpt>
      <trkpt lat="48.74271" lon="-3.45061">
        <ele>74.64</ele>
        <time>2013-05-19T08:07:59Z</time>
      </trkpt>
      <trkpt lat="48.7427" lon="-3.45045">
        <ele>75.12</ele>
        <time>2013-05-19T08:08:00Z</time>
      </trkpt>
      <trkpt lat="48.74271" lon="-3.45029">
        <ele>73.68</ele>
        <time>2013-05-19T08:08:01Z</time>
      </trkpt>
      <trkpt lat="48.74271" lon="-3.45013">
        <ele>73.68</ele>
        <time>2013-05-19T08:08:02Z</time>
      </trkpt>
      <trkpt lat="48.74273" lon="-3.44948">
        <ele>70.31</ele>
        <time>2013-05-19T08:08:06Z</time>
      </trkpt>
      <trkpt lat="48.74273" lon="-3.44915">
        <ele>69.35</ele>
        <time>2013-05-19T08:08:08Z</time>
      </trkpt>
      <trkpt lat="48.74274" lon="-3.44865">
        <ele>67.43</ele>
        <time>2013-05-19T08:08:11Z</time>
      </trkpt>
      <trkpt lat="48.74274" lon="-3.44763">
        <ele>65.03</ele>
        <time>2013-05-19T08:08:17Z</time>
      </trkpt>
      <trkpt lat="48.7427" lon="-3.44694">
        <ele>61.18</ele>
        <time>2013-05-19T08:08:21Z</time>
      </trkpt>
      <trkpt lat="48.74265" lon="-3.4466">
        <ele>60.7</ele>
        <time>2013-05-19T08:08:23Z</time>
      </trkpt>
      <trkpt lat="48.7426" lon="-3.44644">
        <ele>60.22</ele>
        <time>2013-05-19T08:08:24Z</time>
      </trkpt>
      <trkpt lat="48.74254" lon="-3.4463">
        <ele>59.74</ele>
        <time>2013-05-19T08:08:25Z</time>
      </trkpt>
      <trkpt lat="48.74247" lon="-3.44618">
        <ele>59.26</ele>
        <time>2013-05-19T08:08:26Z</time>
      </trkpt>
      <trkpt lat="48.74239" lon="-3.44606">
        <ele>59.74</ele>
        <time>2013-05-19T08:08:27Z</time>
      </trkpt>
      <trkpt lat="48.7423" lon="-3.44596">
        <ele>59.26</ele>
        <time>2013-05-19T08:08:28Z</time>
      </trkpt>
      <trkpt lat="48.74221" lon="-3.44589">
        <ele>58.3</ele>
        <time>2013-05-19T08:08:29Z</time>
      </trkpt>
      <trkpt lat="48.74211" lon="-3.44583">
        <ele>57.82</ele>
        <time>2013-05-19T08:08:30Z</time>
      </trkpt>
      <trkpt lat="48.74133" lon="-3.44548">
        <ele>54.45</ele>
        <time>2013-05-19T08:08:38Z</time>
      </trkpt>
      <trkpt lat="48.74114" lon="-3.44539">
        <ele>53.49</ele>
        <time>2013-05-19T08:08:40Z</time>
      </trkpt>
      <trkpt lat="48.74005" lon="-3.44492">
        <ele>50.13</ele>
        <time>2013-05-19T08:08:52Z</time>
      </trkpt>
      <trkpt lat="48.73997" lon="-3.44489">
        <ele>50.13</ele>
        <time>2013-05-19T08:08:53Z</time>
      </trkpt>
      <trkpt lat="48.7399" lon="-3.4449">
        <ele>49.65</ele>
        <time>2013-05-19T08:08:54Z</time>
      </trkpt>
      <trkpt lat="48.73984" lon="-3.44492">
        <ele>49.16</ele>
        <time>2013-05-19T08:08:55Z</time>
      </trkpt>
      <trkpt lat="48.73971" lon="-3.44499">
        <ele>49.16</ele>
        <time>2013-05-19T08:08:57Z</time>
      </trkpt>
      <trkpt lat="48.73964" lon="-3.44499">
        <ele>48.2</ele>
        <time>2013-05-19T08:08:58Z</time>
      </trkpt>
      <trkpt lat="48.73958" lon="-3.44496">
        <ele>48.2</ele>
        <time>2013-05-19T08:08:59Z</time>
      </trkpt>
      <trkpt lat="48.73952" lon="-3.4449">
        <ele>47.72</ele>
        <time>2013-05-19T08:09:00Z</time>
      </trkpt>
      <trkpt lat="48.73947" lon="-3.44484">
        <ele>47.72</ele>
        <time>2013-05-19T08:09:01Z</time>
      </trkpt>
      <trkpt lat="48.73942" lon="-3.44477">
        <ele>47.72</ele>
        <time>2013-05-19T08:09:02Z</time>
      </trkpt>
      <trkpt lat="48.73936" lon="-3.44472">
        <ele>48.2</ele>
        <time>2013-05-19T08:09:03Z</time>
      </trkpt>
      <trkpt lat="48.7393" lon="-3.44469">
        <ele>48.2</ele>
        <time>2013-05-19T08:09:04Z</time>
      </trkpt>
      <trkpt lat="48.73923" lon="-3.44466">
        <ele>48.68</ele>
        <time>2013-05-19T08:09:05Z</time>
      </trkpt>
      <trkpt lat="48.73852" lon="-3.4444">
        <ele>44.84</ele>
        <time>2013-05-19T08:09:14Z</time>
      </trkpt>
      <trkpt lat="48.73843" lon="-3.44439">
        <ele>44.84</ele>
        <time>2013-05-19T08:09:15Z</time>
      </trkpt>
      <trkpt lat="48.73834" lon="-3.44439">
        <ele>44.36</ele>
        <time>2013-05-19T08:09:16Z</time>
      </trkpt>
      <trkpt lat="48.73824" lon="-3.4444">
        <ele>43.88</ele>
        <time>2013-05-19T08:09:17Z</time>
      </trkpt>
      <trkpt lat="48.73814" lon="-3.44443">
        <ele>43.4</ele>
        <time>2013-05-19T08:09:18Z</time>
      </trkpt>
      <trkpt lat="48.73805" lon="-3.44446">
        <ele>42.92</ele>
        <time>2013-05-19T08:09:19Z</time>
      </trkpt>
      <trkpt lat="48.73786" lon="-3.44457">
        <ele>40.99</ele>
        <time>2013-05-19T08:09:21Z</time>
      </trkpt>
      <trkpt lat="48.73768" lon="-3.44473">
        <ele>40.03</ele>
        <time>2013-05-19T08:09:23Z</time>
      </trkpt>
      <trkpt lat="48.73759" lon="-3.44479">
        <ele>39.55</ele>
        <time>2013-05-19T08:09:24Z</time>
      </trkpt>
      <trkpt lat="48.73749" lon="-3.44482">
        <ele>39.07</ele>
        <time>2013-05-19T08:09:25Z</time>
      </trkpt>
      <trkpt lat="48.73739" lon="-3.44483">
        <ele>39.07</ele>
        <time>2013-05-19T08:09:26Z</time>
      </trkpt>
      <trkpt lat="48.73729" lon="-3.44481">
        <ele>38.59</ele>
        <time>2013-05-19T08:09:27Z</time>
      </trkpt>
      <trkpt lat="48.7372" lon="-3.44478">
        <ele>38.11</ele>
        <time>2013-05-19T08:09:28Z</time>
      </trkpt>
      <trkpt lat="48.73711" lon="-3.44473">
        <ele>37.63</ele>
        <time>2013-05-19T08:09:29Z</time>
      </trkpt>
      <trkpt lat="48.73703" lon="-3.44466">
        <ele>36.67</ele>
        <time>2013-05-19T08:09:30Z</time>
      </trkpt>
      <trkpt lat="48.73695" lon="-3.4446">
        <ele>35.71</ele>
        <time>2013-05-19T08:09:31Z</time>
      </trkpt>
      <trkpt lat="48.73687" lon="-3.44453">
        <ele>35.71</ele>
        <time>2013-05-19T08:09:32Z</time>
      </trkpt>
      <trkpt lat="48.73617" lon="-3.44406">
        <ele>38.11</ele>
        <time>2013-05-19T08:09:43Z</time>
      </trkpt>
      <trkpt lat="48.73607" lon="-3.44402">
        <ele>39.07</ele>
        <time>2013-05-19T08:09:45Z</time>
      </trkpt>
      <trkpt lat="48.73603" lon="-3.444">
        <ele>39.55</ele>
        <time>2013-05-19T08:09:46Z</time>
      </trkpt>
      <trkpt lat="48.73599" lon="-3.44399">
        <ele>39.55</ele>
        <time>2013-05-19T08:09:47Z</time>
      </trkpt>
      <trkpt lat="48.73595" lon="-3.44397">
        <ele>40.03</ele>
        <time>2013-05-19T08:09:48Z</time>
      </trkpt>
      <trkpt lat="48.73591" lon="-3.44396">
        <ele>40.51</ele>
        <time>2013-05-19T08:09:49Z</time>
      </trkpt>
      <trkpt lat="48.73587" lon="-3.44394">
        <ele>40.51</ele>
        <time>2013-05-19T08:09:50Z</time>
      </trkpt>
      <trkpt lat="48.73583" lon="-3.44394">
        <ele>40.51</ele>
        <time>2013-05-19T08:09:51Z</time>
      </trkpt>
      <trkpt lat="48.73538" lon="-3.44396">
        <ele>42.92</ele>
        <time>2013-05-19T08:10:02Z</time>
      </trkpt>
      <trkpt lat="48.73505" lon="-3.44406">
        <ele>44.84</ele>
        <time>2013-05-19T08:10:10Z</time>
      </trkpt>
      <trkpt lat="48.73501" lon="-3.44408">
        <ele>44.84</ele>
        <time>2013-05-19T08:10:11Z</time>
      </trkpt>
      <trkpt lat="48.73482" lon="-3.44419">
        <ele>45.8</ele>
        <time>2013-05-19T08:10:16Z</time>
      </trkpt>
      <trkpt lat="48.73466" lon="-3.44437">
        <ele>46.76</ele>
        <time>2013-05-19T08:10:21Z</time>
      </trkpt>
      <trkpt lat="48.73464" lon="-3.44443">
        <ele>47.24</ele>
        <time>2013-05-19T08:10:22Z</time>
      </trkpt>
      <trkpt lat="48.73451" lon="-3.4447">
        <ele>48.2</ele>
        <time>2013-05-19T08:10:27Z</time>
      </trkpt>
      <trkpt lat="48.73447" lon="-3.44474">
        <ele>48.2</ele>
        <time>2013-05-19T08:10:28Z</time>
      </trkpt>
      <trkpt lat="48.73443" lon="-3.44477">
        <ele>48.2</ele>
        <time>2013-05-19T08:10:29Z</time>
      </trkpt>
      <trkpt lat="48.73439" lon="-3.44479">
        <ele>48.68</ele>
        <time>2013-05-19T08:10:30Z</time>
      </trkpt>
      <trkpt lat="48.73434" lon="-3.44479">
        <ele>48.2</ele>
        <time>2013-05-19T08:10:31Z</time>
      </trkpt>
      <trkpt lat="48.7343" lon="-3.44478">
        <ele>48.68</ele>
        <time>2013-05-19T08:10:32Z</time>
      </trkpt>
      <trkpt lat="48.73426" lon="-3.44476">
        <ele>48.68</ele>
        <time>2013-05-19T08:10:33Z</time>
      </trkpt>
      <trkpt lat="48.73422" lon="-3.44473">
        <ele>49.16</ele>
        <time>2013-05-19T08:10:34Z</time>
      </trkpt>
      <trkpt lat="48.73418" lon="-3.44469">
        <ele>49.16</ele>
        <time>2013-05-19T08:10:35Z</time>
      </trkpt>
      <trkpt lat="48.73416" lon="-3.44464">
        <ele>48.68</ele>
        <time>2013-05-19T08:10:36Z</time>
      </trkpt>
      <trkpt lat="48.73413" lon="-3.44459">
        <ele>49.16</ele>
        <time>2013-05-19T08:10:37Z</time>
      </trkpt>
      <trkpt lat="48.73411" lon="-3.44453">
        <ele>49.16</ele>
        <time>2013-05-19T08:10:38Z</time>
      </trkpt>
      <trkpt lat="48.7341" lon="-3.44446">
        <ele>49.16</ele>
        <time>2013-05-19T08:10:39Z</time>
      </trkpt>
      <trkpt lat="48.7341" lon="-3.44439">
        <ele>48.68</ele>
        <time>2013-05-19T08:10:40Z</time>
      </trkpt>
      <trkpt lat="48.73393" lon="-3.44297">
        <ele>48.68</ele>
        <time>2013-05-19T08:10:58Z</time>
      </trkpt>
      <trkpt lat="48.73389" lon="-3.44191">
        <ele>49.16</ele>
        <time>2013-05-19T08:11:11Z</time>
      </trkpt>
      <trkpt lat="48.73397" lon="-3.44138">
        <ele>49.65</ele>
        <time>2013-05-19T08:11:18Z</time>
      </trkpt>
      <trkpt lat="48.73403" lon="-3.44109">
        <ele>50.13</ele>
        <time>2013-05-19T08:11:22Z</time>
      </trkpt>
      <trkpt lat="48.73411" lon="-3.44053">
        <ele>51.57</ele>
        <time>2013-05-19T08:11:30Z</time>
      </trkpt>
      <trkpt lat="48.73411" lon="-3.44039">
        <ele>52.05</ele>
        <time>2013-05-19T08:11:32Z</time>
      </trkpt>
      <trkpt lat="48.73412" lon="-3.44032">
        <ele>52.05</ele>
        <time>2013-05-19T08:11:33Z</time>
      </trkpt>
      <trkpt lat="48.73414" lon="-3.44026">
        <ele>52.53</ele>
        <time>2013-05-19T08:11:34Z</time>
      </trkpt>
      <trkpt lat="48.73417" lon="-3.44021">
        <ele>52.53</ele>
        <time>2013-05-19T08:11:35Z</time>
      </trkpt>
      <trkpt lat="48.73419" lon="-3.44015">
        <ele>52.53</ele>
        <time>2013-05-19T08:11:36Z</time>
      </trkpt>
      <trkpt lat="48.73421" lon="-3.44009">
        <ele>53.01</ele>
        <time>2013-05-19T08:11:37Z</time>
      </trkpt>
      <trkpt lat="48.73423" lon="-3.44003">
        <ele>53.01</ele>
        <time>2013-05-19T08:11:38Z</time>
      </trkpt>
      <trkpt lat="48.73424" lon="-3.43996">
        <ele>53.01</ele>
        <time>2013-05-19T08:11:39Z</time>
      </trkpt>
      <trkpt lat="48.73425" lon="-3.4399">
        <ele>53.49</ele>
        <time>2013-05-19T08:11:40Z</time>
      </trkpt>
      <trkpt lat="48.73436" lon="-3.43898">
        <ele>55.41</ele>
        <time>2013-05-19T08:11:54Z</time>
      </trkpt>
      <trkpt lat="48.73437" lon="-3.43872">
        <ele>56.37</ele>
        <time>2013-05-19T08:11:58Z</time>
      </trkpt>
      <trkpt lat="48.73439" lon="-3.43867">
        <ele>56.86</ele>
        <time>2013-05-19T08:11:59Z</time>
      </trkpt>
      <trkpt lat="48.73442" lon="-3.43862">
        <ele>57.34</ele>
        <time>2013-05-19T08:12:00Z</time>
      </trkpt>
      <trkpt lat="48.73453" lon="-3.4385">
        <ele>57.82</ele>
        <time>2013-05-19T08:12:03Z</time>
      </trkpt>
      <trkpt lat="48.73455" lon="-3.43846">
        <ele>58.3</ele>
        <time>2013-05-19T08:12:04Z</time>
      </trkpt>
      <trkpt lat="48.73458" lon="-3.4384">
        <ele>57.82</ele>
        <time>2013-05-19T08:12:05Z</time>
      </trkpt>
      <trkpt lat="48.73496" lon="-3.43752">
        <ele>61.18</ele>
        <time>2013-05-19T08:12:21Z</time>
      </trkpt>
      <trkpt lat="48.73498" lon="-3.43746">
        <ele>61.18</ele>
        <time>2013-05-19T08:12:22Z</time>
      </trkpt>
      <trkpt lat="48.735" lon="-3.43739">
        <ele>60.7</ele>
        <time>2013-05-19T08:12:23Z</time>
      </trkpt>
      <trkpt lat="48.735" lon="-3.43732">
        <ele>60.7</ele>
        <time>2013-05-19T08:12:24Z</time>
      </trkpt>
      <trkpt lat="48.735" lon="-3.43724">
        <ele>61.18</ele>
        <time>2013-05-19T08:12:25Z</time>
      </trkpt>
      <trkpt lat="48.73499" lon="-3.43717">
        <ele>60.7</ele>
        <time>2013-05-19T08:12:26Z</time>
      </trkpt>
      <trkpt lat="48.73497" lon="-3.43711">
        <ele>60.7</ele>
        <time>2013-05-19T08:12:27Z</time>
      </trkpt>
      <trkpt lat="48.73496" lon="-3.43704">
        <ele>60.7</ele>
        <time>2013-05-19T08:12:28Z</time>
      </trkpt>
      <trkpt lat="48.73495" lon="-3.43697">
        <ele>61.18</ele>
        <time>2013-05-19T08:12:29Z</time>
      </trkpt>
      <trkpt lat="48.73496" lon="-3.4369">
        <ele>61.18</ele>
        <time>2013-05-19T08:12:30Z</time>
      </trkpt>
      <trkpt lat="48.73497" lon="-3.43683">
        <ele>61.66</ele>
        <time>2013-05-19T08:12:31Z</time>
      </trkpt>
      <trkpt lat="48.73499" lon="-3.43677">
        <ele>61.66</ele>
        <time>2013-05-19T08:12:32Z</time>
      </trkpt>
      <trkpt lat="48.73501" lon="-3.43671">
        <ele>61.66</ele>
        <time>2013-05-19T08:12:33Z</time>
      </trkpt>
      <trkpt lat="48.73506" lon="-3.43658">
        <ele>61.18</ele>
        <time>2013-05-19T08:12:35Z</time>
      </trkpt>
      <trkpt lat="48.73507" lon="-3.43651">
        <ele>61.18</ele>
        <time>2013-05-19T08:12:36Z</time>
      </trkpt>
      <trkpt lat="48.73507" lon="-3.43643">
        <ele>60.7</ele>
        <time>2013-05-19T08:12:37Z</time>
      </trkpt>
      <trkpt lat="48.73505" lon="-3.43637">
        <ele>60.7</ele>
        <time>2013-05-19T08:12:38Z</time>
      </trkpt>
      <trkpt lat="48.73501" lon="-3.43631">
        <ele>61.18</ele>
        <time>2013-05-19T08:12:39Z</time>
      </trkpt>
      <trkpt lat="48.73497" lon="-3.43628">
        <ele>61.66</ele>
        <time>2013-05-19T08:12:40Z</time>
      </trkpt>
      <trkpt lat="48.73493" lon="-3.43626">
        <ele>61.66</ele>
        <time>2013-05-19T08:12:41Z</time>
      </trkpt>
      <trkpt lat="48.73488" lon="-3.43625">
        <ele>61.18</ele>
        <time>2013-05-19T08:12:42Z</time>
      </trkpt>
      <trkpt lat="48.73483" lon="-3.43624">
        <ele>61.66</ele>
        <time>2013-05-19T08:12:43Z</time>
      </trkpt>
      <trkpt lat="48.73474" lon="-3.43622">
        <ele>62.14</ele>
        <time>2013-05-19T08:12:45Z</time>
      </trkpt>
      <trkpt lat="48.7347" lon="-3.43619">
        <ele>62.14</ele>
        <time>2013-05-19T08:12:46Z</time>
      </trkpt>
      <trkpt lat="48.73466" lon="-3.43616">
        <ele>62.62</ele>
        <time>2013-05-19T08:12:47Z</time>
      </trkpt>
      <trkpt lat="48.73458" lon="-3.43608">
        <ele>62.62</ele>
        <time>2013-05-19T08:12:49Z</time>
      </trkpt>
      <trkpt lat="48.73424" lon="-3.43544">
        <ele>64.55</ele>
        <time>2013-05-19T08:13:01Z</time>
      </trkpt>
      <trkpt lat="48.73422" lon="-3.43538">
        <ele>64.55</ele>
        <time>2013-05-19T08:13:02Z</time>
      </trkpt>
      <trkpt lat="48.7342" lon="-3.43531">
        <ele>64.55</ele>
        <time>2013-05-19T08:13:03Z</time>
      </trkpt>
      <trkpt lat="48.73408" lon="-3.43413">
        <ele>66.95</ele>
        <time>2013-05-19T08:13:20Z</time>
      </trkpt>
      <trkpt lat="48.73408" lon="-3.43399">
        <ele>66.95</ele>
        <time>2013-05-19T08:13:22Z</time>
      </trkpt>
      <trkpt lat="48.73407" lon="-3.43392">
        <ele>66.95</ele>
        <time>2013-05-19T08:13:23Z</time>
      </trkpt>
      <trkpt lat="48.73398" lon="-3.4333">
        <ele>68.39</ele>
        <time>2013-05-19T08:13:32Z</time>
      </trkpt>
      <trkpt lat="48.73394" lon="-3.43318">
        <ele>68.39</ele>
        <time>2013-05-19T08:13:34Z</time>
      </trkpt>
      <trkpt lat="48.73393" lon="-3.43312">
        <ele>68.87</ele>
        <time>2013-05-19T08:13:35Z</time>
      </trkpt>
      <trkpt lat="48.73393" lon="-3.43305">
        <ele>69.35</ele>
        <time>2013-05-19T08:13:36Z</time>
      </trkpt>
      <trkpt lat="48.73393" lon="-3.43285">
        <ele>69.35</ele>
        <time>2013-05-19T08:13:39Z</time>
      </trkpt>
      <trkpt lat="48.73388" lon="-3.4319">
        <ele>72.72</ele>
        <time>2013-05-19T08:13:54Z</time>
      </trkpt>
      <trkpt lat="48.73389" lon="-3.43142">
        <ele>75.12</ele>
        <time>2013-05-19T08:14:01Z</time>
      </trkpt>
      <trkpt lat="48.73392" lon="-3.43041">
        <ele>76.08</ele>
        <time>2013-05-19T08:14:15Z</time>
      </trkpt>
      <trkpt lat="48.73391" lon="-3.43011">
        <ele>76.08</ele>
        <time>2013-05-19T08:14:19Z</time>
      </trkpt>
      <trkpt lat="48.7339" lon="-3.43003">
        <ele>76.56</ele>
        <time>2013-05-19T08:14:20Z</time>
      </trkpt>
      <trkpt lat="48.7338" lon="-3.42902">
        <ele>76.56</ele>
        <time>2013-05-19T08:14:34Z</time>
      </trkpt>
      <trkpt lat="48.73377" lon="-3.42894">
        <ele>75.6</ele>
        <time>2013-05-19T08:14:42Z</time>
      </trkpt>
      <trkpt lat="48.73376" lon="-3.42895">
        <ele>75.6</ele>
        <time>2013-05-19T08:15:05Z</time>
      </trkpt>
      <trkpt lat="48.73378" lon="-3.4289">
        <ele>75.6</ele>
        <time>2013-05-19T08:15:30Z</time>
      </trkpt>
      <trkpt lat="48.73377" lon="-3.42889">
        <ele>76.08</ele>
        <time>2013-05-19T08:15:49Z</time>
      </trkpt>
      <trkpt lat="48.73375" lon="-3.42888">
        <ele>75.6</ele>
        <time>2013-05-19T08:15:57Z</time>
      </trkpt>
      <trkpt lat="48.73372" lon="-3.42879">
        <ele>75.6</ele>
        <time>2013-05-19T08:15:59Z</time>
      </trkpt>
      <trkpt lat="48.73369" lon="-3.42867">
        <ele>76.56</ele>
        <time>2013-05-19T08:16:01Z</time>
      </trkpt>
      <trkpt lat="48.73368" lon="-3.42861">
        <ele>75.6</ele>
        <time>2013-05-19T08:16:02Z</time>
      </trkpt>
      <trkpt lat="48.73367" lon="-3.42854">
        <ele>75.12</ele>
        <time>2013-05-19T08:16:03Z</time>
      </trkpt>
      <trkpt lat="48.73361" lon="-3.42815">
        <ele>74.64</ele>
        <time>2013-05-19T08:16:08Z</time>
      </trkpt>
      <trkpt lat="48.7336" lon="-3.42806">
        <ele>74.16</ele>
        <time>2013-05-19T08:16:09Z</time>
      </trkpt>
      <trkpt lat="48.7336" lon="-3.42797">
        <ele>74.16</ele>
        <time>2013-05-19T08:16:10Z</time>
      </trkpt>
      <trkpt lat="48.73345" lon="-3.42641">
        <ele>73.2</ele>
        <time>2013-05-19T08:16:26Z</time>
      </trkpt>
      <trkpt lat="48.7333" lon="-3.42527">
        <ele>74.16</ele>
        <time>2013-05-19T08:16:40Z</time>
      </trkpt>
      <trkpt lat="48.7333" lon="-3.4252">
        <ele>74.16</ele>
        <time>2013-05-19T08:16:41Z</time>
      </trkpt>
      <trkpt lat="48.7333" lon="-3.42403">
        <ele>75.6</ele>
        <time>2013-05-19T08:16:55Z</time>
      </trkpt>
      <trkpt lat="48.73332" lon="-3.42384">
        <ele>75.6</ele>
        <time>2013-05-19T08:16:57Z</time>
      </trkpt>
      <trkpt lat="48.73332" lon="-3.42225">
        <ele>75.12</ele>
        <time>2013-05-19T08:17:12Z</time>
      </trkpt>
      <trkpt lat="48.73335" lon="-3.42191">
        <ele>73.68</ele>
        <time>2013-05-19T08:17:15Z</time>
      </trkpt>
      <trkpt lat="48.73337" lon="-3.4218">
        <ele>73.2</ele>
        <time>2013-05-19T08:17:16Z</time>
      </trkpt>
      <trkpt lat="48.73339" lon="-3.42168">
        <ele>73.68</ele>
        <time>2013-05-19T08:17:17Z</time>
      </trkpt>
      <trkpt lat="48.73358" lon="-3.42061">
        <ele>71.27</ele>
        <time>2013-05-19T08:17:26Z</time>
      </trkpt>
      <trkpt lat="48.73357" lon="-3.42048">
        <ele>71.27</ele>
        <time>2013-05-19T08:17:27Z</time>
      </trkpt>
      <trkpt lat="48.73356" lon="-3.42036">
        <ele>71.27</ele>
        <time>2013-05-19T08:17:28Z</time>
      </trkpt>
      <trkpt lat="48.73353" lon="-3.42024">
        <ele>71.27</ele>
        <time>2013-05-19T08:17:29Z</time>
      </trkpt>
      <trkpt lat="48.7335" lon="-3.42013">
        <ele>70.31</ele>
        <time>2013-05-19T08:17:30Z</time>
      </trkpt>
      <trkpt lat="48.73346" lon="-3.42003">
        <ele>70.79</ele>
        <time>2013-05-19T08:17:31Z</time>
      </trkpt>
      <trkpt lat="48.73341" lon="-3.41994">
        <ele>70.31</ele>
        <time>2013-05-19T08:17:32Z</time>
      </trkpt>
      <trkpt lat="48.73337" lon="-3.41987">
        <ele>70.79</ele>
        <time>2013-05-19T08:17:33Z</time>
      </trkpt>
      <trkpt lat="48.73332" lon="-3.41981">
        <ele>71.76</ele>
        <time>2013-05-19T08:17:34Z</time>
      </trkpt>
      <trkpt lat="48.73328" lon="-3.41975">
        <ele>71.76</ele>
        <time>2013-05-19T08:17:35Z</time>
      </trkpt>
      <trkpt lat="48.73294" lon="-3.41937">
        <ele>74.64</ele>
        <time>2013-05-19T08:17:44Z</time>
      </trkpt>
      <trkpt lat="48.73265" lon="-3.41878">
        <ele>77.52</ele>
        <time>2013-05-19T08:17:55Z</time>
      </trkpt>
      <trkpt lat="48.73235" lon="-3.41764">
        <ele>79.45</ele>
        <time>2013-05-19T08:18:11Z</time>
      </trkpt>
      <trkpt lat="48.73213" lon="-3.4165">
        <ele>81.37</ele>
        <time>2013-05-19T08:18:27Z</time>
      </trkpt>
      <trkpt lat="48.73209" lon="-3.41539">
        <ele>83.29</ele>
        <time>2013-05-19T08:18:42Z</time>
      </trkpt>
      <trkpt lat="48.73213" lon="-3.41433">
        <ele>86.66</ele>
        <time>2013-05-19T08:18:57Z</time>
      </trkpt>
      <trkpt lat="48.73211" lon="-3.41297">
        <ele>85.21</ele>
        <time>2013-05-19T08:19:13Z</time>
      </trkpt>
      <trkpt lat="48.73198" lon="-3.4115">
        <ele>86.66</ele>
        <time>2013-05-19T08:19:31Z</time>
      </trkpt>
      <trkpt lat="48.73184" lon="-3.41052">
        <ele>87.62</ele>
        <time>2013-05-19T08:19:44Z</time>
      </trkpt>
      <trkpt lat="48.73166" lon="-3.40962">
        <ele>88.1</ele>
        <time>2013-05-19T08:19:56Z</time>
      </trkpt>
      <trkpt lat="48.73135" lon="-3.40826">
        <ele>87.62</ele>
        <time>2013-05-19T08:20:12Z</time>
      </trkpt>
      <trkpt lat="48.73102" lon="-3.40691">
        <ele>89.06</ele>
        <time>2013-05-19T08:20:29Z</time>
      </trkpt>
      <trkpt lat="48.73057" lon="-3.40583">
        <ele>91.46</ele>
        <time>2013-05-19T08:20:45Z</time>
      </trkpt>
      <trkpt lat="48.73051" lon="-3.40463">
        <ele>91.94</ele>
        <time>2013-05-19T08:20:59Z</time>
      </trkpt>
      <trkpt lat="48.73023" lon="-3.40354">
        <ele>91.94</ele>
        <time>2013-05-19T08:21:12Z</time>
      </trkpt>
      <trkpt lat="48.73019" lon="-3.40336">
        <ele>91.94</ele>
        <time>2013-05-19T08:21:14Z</time>
      </trkpt>
      <trkpt lat="48.73" lon="-3.402">
        <ele>90.98</ele>
        <time>2013-05-19T08:21:28Z</time>
      </trkpt>
      <trkpt lat="48.72983" lon="-3.40136">
        <ele>92.9</ele>
        <time>2013-05-19T08:21:36Z</time>
      </trkpt>
      <trkpt lat="48.72959" lon="-3.39987">
        <ele>94.83</ele>
        <time>2013-05-19T08:21:54Z</time>
      </trkpt>
      <trkpt lat="48.72946" lon="-3.39945">
        <ele>94.35</ele>
        <time>2013-05-19T08:21:59Z</time>
      </trkpt>
      <trkpt lat="48.72944" lon="-3.39937">
        <ele>94.83</ele>
        <time>2013-05-19T08:22:00Z</time>
      </trkpt>
      <trkpt lat="48.72928" lon="-3.3989">
        <ele>94.83</ele>
        <time>2013-05-19T08:22:06Z</time>
      </trkpt>
      <trkpt lat="48.72925" lon="-3.39882">
        <ele>94.83</ele>
        <time>2013-05-19T08:22:07Z</time>
      </trkpt>
      <trkpt lat="48.72861" lon="-3.39751">
        <ele>95.79</ele>
        <time>2013-05-19T08:22:25Z</time>
      </trkpt>
      <trkpt lat="48.72828" lon="-3.39629">
        <ele>97.23</ele>
        <time>2013-05-19T08:22:40Z</time>
      </trkpt>
      <trkpt lat="48.72828" lon="-3.39479">
        <ele>97.23</ele>
        <time>2013-05-19T08:22:56Z</time>
      </trkpt>
      <trkpt lat="48.72837" lon="-3.39323">
        <ele>96.27</ele>
        <time>2013-05-19T08:23:12Z</time>
      </trkpt>
      <trkpt lat="48.72839" lon="-3.39174">
        <ele>95.79</ele>
        <time>2013-05-19T08:23:28Z</time>
      </trkpt>
      <trkpt lat="48.7286" lon="-3.38998">
        <ele>93.87</ele>
        <time>2013-05-19T08:23:46Z</time>
      </trkpt>
      <trkpt lat="48.72888" lon="-3.3881">
        <ele>91.94</ele>
        <time>2013-05-19T08:24:04Z</time>
      </trkpt>
      <trkpt lat="48.72898" lon="-3.38782">
        <ele>90.5</ele>
        <time>2013-05-19T08:24:07Z</time>
      </trkpt>
      <trkpt lat="48.72922" lon="-3.38711">
        <ele>90.5</ele>
        <time>2013-05-19T08:24:15Z</time>
      </trkpt>
      <trkpt lat="48.72923" lon="-3.38702">
        <ele>90.5</ele>
        <time>2013-05-19T08:24:16Z</time>
      </trkpt>
      <trkpt lat="48.72923" lon="-3.38693">
        <ele>90.5</ele>
        <time>2013-05-19T08:24:17Z</time>
      </trkpt>
      <trkpt lat="48.72924" lon="-3.38684">
        <ele>90.5</ele>
        <time>2013-05-19T08:24:18Z</time>
      </trkpt>
      <trkpt lat="48.72923" lon="-3.38675">
        <ele>90.98</ele>
        <time>2013-05-19T08:24:19Z</time>
      </trkpt>
      <trkpt lat="48.72923" lon="-3.38666">
        <ele>90.98</ele>
        <time>2013-05-19T08:24:20Z</time>
      </trkpt>
      <trkpt lat="48.7292" lon="-3.38614">
        <ele>91.94</ele>
        <time>2013-05-19T08:24:26Z</time>
      </trkpt>
      <trkpt lat="48.72921" lon="-3.38597">
        <ele>91.94</ele>
        <time>2013-05-19T08:24:28Z</time>
      </trkpt>
      <trkpt lat="48.7292" lon="-3.38588">
        <ele>91.94</ele>
        <time>2013-05-19T08:24:29Z</time>
      </trkpt>
      <trkpt lat="48.72919" lon="-3.3858">
        <ele>91.94</ele>
        <time>2013-05-19T08:24:30Z</time>
      </trkpt>
      <trkpt lat="48.72916" lon="-3.38573">
        <ele>91.94</ele>
        <time>2013-05-19T08:24:31Z</time>
      </trkpt>
      <trkpt lat="48.72913" lon="-3.38566">
        <ele>92.42</ele>
        <time>2013-05-19T08:24:32Z</time>
      </trkpt>
      <trkpt lat="48.72909" lon="-3.38561">
        <ele>92.42</ele>
        <time>2013-05-19T08:24:33Z</time>
      </trkpt>
      <trkpt lat="48.72906" lon="-3.38558">
        <ele>92.9</ele>
        <time>2013-05-19T08:24:34Z</time>
      </trkpt>
      <trkpt lat="48.72901" lon="-3.38558">
        <ele>93.39</ele>
        <time>2013-05-19T08:24:35Z</time>
      </trkpt>
      <trkpt lat="48.72897" lon="-3.38558">
        <ele>92.9</ele>
        <time>2013-05-19T08:24:36Z</time>
      </trkpt>
      <trkpt lat="48.72827" lon="-3.3858">
        <ele>92.9</ele>
        <time>2013-05-19T08:24:47Z</time>
      </trkpt>
      <trkpt lat="48.72816" lon="-3.38585">
        <ele>93.39</ele>
        <time>2013-05-19T08:24:49Z</time>
      </trkpt>
      <trkpt lat="48.7281" lon="-3.3859">
        <ele>94.35</ele>
        <time>2013-05-19T08:24:50Z</time>
      </trkpt>
      <trkpt lat="48.72805" lon="-3.38595">
        <ele>94.35</ele>
        <time>2013-05-19T08:24:51Z</time>
      </trkpt>
      <trkpt lat="48.7273" lon="-3.38701">
        <ele>96.27</ele>
        <time>2013-05-19T08:25:09Z</time>
      </trkpt>
      <trkpt lat="48.72707" lon="-3.38748">
        <ele>96.27</ele>
        <time>2013-05-19T08:25:16Z</time>
      </trkpt>
      <trkpt lat="48.72662" lon="-3.38887">
        <ele>97.23</ele>
        <time>2013-05-19T08:25:34Z</time>
      </trkpt>
      <trkpt lat="48.72598" lon="-3.39032">
        <ele>96.75</ele>
        <time>2013-05-19T08:25:54Z</time>
      </trkpt>
      <trkpt lat="48.72521" lon="-3.39175">
        <ele>97.71</ele>
        <time>2013-05-19T08:26:15Z</time>
      </trkpt>
      <trkpt lat="48.72444" lon="-3.39345">
        <ele>96.75</ele>
        <time>2013-05-19T08:26:38Z</time>
      </trkpt>
      <trkpt lat="48.72359" lon="-3.39472">
        <ele>94.83</ele>
        <time>2013-05-19T08:26:57Z</time>
      </trkpt>
      <trkpt lat="48.72284" lon="-3.39601">
        <ele>91.94</ele>
        <time>2013-05-19T08:27:13Z</time>
      </trkpt>
      <trkpt lat="48.72279" lon="-3.39608">
        <ele>91.94</ele>
        <time>2013-05-19T08:27:14Z</time>
      </trkpt>
      <trkpt lat="48.72248" lon="-3.39635">
        <ele>89.54</ele>
        <time>2013-05-19T08:27:22Z</time>
      </trkpt>
      <trkpt lat="48.72247" lon="-3.39634">
        <ele>89.54</ele>
        <time>2013-05-19T08:27:23Z</time>
      </trkpt>
      <trkpt lat="48.72247" lon="-3.39631">
        <ele>89.06</ele>
        <time>2013-05-19T08:27:24Z</time>
      </trkpt>
      <trkpt lat="48.72248" lon="-3.39628">
        <ele>89.54</ele>
        <time>2013-05-19T08:27:25Z</time>
      </trkpt>
      <trkpt lat="48.72282" lon="-3.39597">
        <ele>90.5</ele>
        <time>2013-05-19T08:27:35Z</time>
      </trkpt>
      <trkpt lat="48.72285" lon="-3.39592">
        <ele>90.98</ele>
        <time>2013-05-19T08:27:36Z</time>
      </trkpt>
      <trkpt lat="48.72287" lon="-3.39588">
        <ele>90.98</ele>
        <time>2013-05-19T08:27:37Z</time>
      </trkpt>
      <trkpt lat="48.72289" lon="-3.39585">
        <ele>90.5</ele>
        <time>2013-05-19T08:27:38Z</time>
      </trkpt>
      <trkpt lat="48.72292" lon="-3.39583">
        <ele>90.5</ele>
        <time>2013-05-19T08:27:39Z</time>
      </trkpt>
      <trkpt lat="48.72294" lon="-3.39582">
        <ele>90.98</ele>
        <time>2013-05-19T08:27:40Z</time>
      </trkpt>
      <trkpt lat="48.72296" lon="-3.39583">
        <ele>90.98</ele>
        <time>2013-05-19T08:27:41Z</time>
      </trkpt>
      <trkpt lat="48.72297" lon="-3.39585">
        <ele>90.98</ele>
        <time>2013-05-19T08:27:42Z</time>
      </trkpt>
      <trkpt lat="48.72297" lon="-3.39588">
        <ele>90.5</ele>
        <time>2013-05-19T08:27:43Z</time>
      </trkpt>
      <trkpt lat="48.72297" lon="-3.3959">
        <ele>90.98</ele>
        <time>2013-05-19T08:27:44Z</time>
      </trkpt>
      <trkpt lat="48.72296" lon="-3.39593">
        <ele>90.5</ele>
        <time>2013-05-19T08:27:45Z</time>
      </trkpt>
      <trkpt lat="48.72295" lon="-3.39595">
        <ele>90.98</ele>
        <time>2013-05-19T08:27:46Z</time>
      </trkpt>
      <trkpt lat="48.72292" lon="-3.39597">
        <ele>90.98</ele>
        <time>2013-05-19T08:27:47Z</time>
      </trkpt>
      <trkpt lat="48.7229" lon="-3.39599">
        <ele>90.5</ele>
        <time>2013-05-19T08:27:48Z</time>
      </trkpt>
      <trkpt lat="48.72287" lon="-3.39601">
        <ele>90.5</ele>
        <time>2013-05-19T08:27:49Z</time>
      </trkpt>
      <trkpt lat="48.72284" lon="-3.39605">
        <ele>90.98</ele>
        <time>2013-05-19T08:27:50Z</time>
      </trkpt>
      <trkpt lat="48.7228" lon="-3.39608">
        <ele>90.5</ele>
        <time>2013-05-19T08:27:51Z</time>
      </trkpt>
      <trkpt lat="48.72276" lon="-3.39612">
        <ele>90.98</ele>
        <time>2013-05-19T08:27:52Z</time>
      </trkpt>
      <trkpt lat="48.72202" lon="-3.3967">
        <ele>89.06</ele>
        <time>2013-05-19T08:28:05Z</time>
      </trkpt>
      <trkpt lat="48.72118" lon="-3.39719">
        <ele>88.1</ele>
        <time>2013-05-19T08:28:19Z</time>
      </trkpt>
      <trkpt lat="48.72113" lon="-3.39723">
        <ele>88.1</ele>
        <time>2013-05-19T08:28:20Z</time>
      </trkpt>
      <trkpt lat="48.7211" lon="-3.39729">
        <ele>88.1</ele>
        <time>2013-05-19T08:28:21Z</time>
      </trkpt>
      <trkpt lat="48.72107" lon="-3.39736">
        <ele>88.1</ele>
        <time>2013-05-19T08:28:22Z</time>
      </trkpt>
      <trkpt lat="48.72106" lon="-3.39743">
        <ele>88.58</ele>
        <time>2013-05-19T08:28:23Z</time>
      </trkpt>
      <trkpt lat="48.72105" lon="-3.3975">
        <ele>88.58</ele>
        <time>2013-05-19T08:28:24Z</time>
      </trkpt>
      <trkpt lat="48.72104" lon="-3.39757">
        <ele>89.54</ele>
        <time>2013-05-19T08:28:25Z</time>
      </trkpt>
      <trkpt lat="48.72102" lon="-3.39764">
        <ele>89.54</ele>
        <time>2013-05-19T08:28:26Z</time>
      </trkpt>
      <trkpt lat="48.72101" lon="-3.39771">
        <ele>90.02</ele>
        <time>2013-05-19T08:28:27Z</time>
      </trkpt>
      <trkpt lat="48.721" lon="-3.39778">
        <ele>90.5</ele>
        <time>2013-05-19T08:28:28Z</time>
      </trkpt>
      <trkpt lat="48.72091" lon="-3.3983">
        <ele>90.98</ele>
        <time>2013-05-19T08:28:35Z</time>
      </trkpt>
      <trkpt lat="48.72091" lon="-3.39837">
        <ele>91.46</ele>
        <time>2013-05-19T08:28:36Z</time>
      </trkpt>
      <trkpt lat="48.72091" lon="-3.39845">
        <ele>91.46</ele>
        <time>2013-05-19T08:28:37Z</time>
      </trkpt>
      <trkpt lat="48.72094" lon="-3.39888">
        <ele>91.94</ele>
        <time>2013-05-19T08:28:43Z</time>
      </trkpt>
      <trkpt lat="48.72094" lon="-3.39895">
        <ele>92.42</ele>
        <time>2013-05-19T08:28:44Z</time>
      </trkpt>
      <trkpt lat="48.72093" lon="-3.39903">
        <ele>92.42</ele>
        <time>2013-05-19T08:28:45Z</time>
      </trkpt>
      <trkpt lat="48.72091" lon="-3.3991">
        <ele>92.42</ele>
        <time>2013-05-19T08:28:46Z</time>
      </trkpt>
      <trkpt lat="48.72089" lon="-3.39917">
        <ele>92.9</ele>
        <time>2013-05-19T08:28:47Z</time>
      </trkpt>
      <trkpt lat="48.72087" lon="-3.39923">
        <ele>92.9</ele>
        <time>2013-05-19T08:28:48Z</time>
      </trkpt>
      <trkpt lat="48.72085" lon="-3.3993">
        <ele>93.39</ele>
        <time>2013-05-19T08:28:49Z</time>
      </trkpt>
      <trkpt lat="48.72071" lon="-3.39961">
        <ele>93.87</ele>
        <time>2013-05-19T08:28:54Z</time>
      </trkpt>
      <trkpt lat="48.72031" lon="-3.40082">
        <ele>94.35</ele>
        <time>2013-05-19T08:29:11Z</time>
      </trkpt>
      <trkpt lat="48.72029" lon="-3.4009">
        <ele>94.35</ele>
        <time>2013-05-19T08:29:12Z</time>
      </trkpt>
      <trkpt lat="48.72001" lon="-3.40207">
        <ele>94.83</ele>
        <time>2013-05-19T08:29:27Z</time>
      </trkpt>
      <trkpt lat="48.71999" lon="-3.40214">
        <ele>94.35</ele>
        <time>2013-05-19T08:29:28Z</time>
      </trkpt>
      <trkpt lat="48.71944" lon="-3.40351">
        <ele>93.39</ele>
        <time>2013-05-19T08:29:46Z</time>
      </trkpt>
      <trkpt lat="48.71904" lon="-3.405">
        <ele>92.9</ele>
        <time>2013-05-19T08:30:04Z</time>
      </trkpt>
      <trkpt lat="48.71871" lon="-3.40649">
        <ele>90.5</ele>
        <time>2013-05-19T08:30:21Z</time>
      </trkpt>
      <trkpt lat="48.71842" lon="-3.40803">
        <ele>87.14</ele>
        <time>2013-05-19T08:30:37Z</time>
      </trkpt>
      <trkpt lat="48.71841" lon="-3.40824">
        <ele>86.66</ele>
        <time>2013-05-19T08:30:39Z</time>
      </trkpt>
      <trkpt lat="48.71846" lon="-3.40959">
        <ele>83.77</ele>
        <time>2013-05-19T08:30:52Z</time>
      </trkpt>
      <trkpt lat="48.71864" lon="-3.41104">
        <ele>81.85</ele>
        <time>2013-05-19T08:31:08Z</time>
      </trkpt>
      <trkpt lat="48.71894" lon="-3.41265">
        <ele>79.93</ele>
        <time>2013-05-19T08:31:27Z</time>
      </trkpt>
      <trkpt lat="48.71896" lon="-3.41272">
        <ele>79.93</ele>
        <time>2013-05-19T08:31:28Z</time>
      </trkpt>
      <trkpt lat="48.71903" lon="-3.41286">
        <ele>80.41</ele>
        <time>2013-05-19T08:31:30Z</time>
      </trkpt>
      <trkpt lat="48.71905" lon="-3.41293">
        <ele>79.93</ele>
        <time>2013-05-19T08:31:31Z</time>
      </trkpt>
      <trkpt lat="48.71905" lon="-3.41301">
        <ele>80.41</ele>
        <time>2013-05-19T08:31:32Z</time>
      </trkpt>
      <trkpt lat="48.71904" lon="-3.41308">
        <ele>79.93</ele>
        <time>2013-05-19T08:31:33Z</time>
      </trkpt>
      <trkpt lat="48.719" lon="-3.41313">
        <ele>79.45</ele>
        <time>2013-05-19T08:31:34Z</time>
      </trkpt>
      <trkpt lat="48.71895" lon="-3.41316">
        <ele>79.45</ele>
        <time>2013-05-19T08:31:35Z</time>
      </trkpt>
      <trkpt lat="48.7189" lon="-3.41317">
        <ele>78.48</ele>
        <time>2013-05-19T08:31:36Z</time>
      </trkpt>
      <trkpt lat="48.71884" lon="-3.41317">
        <ele>78.48</ele>
        <time>2013-05-19T08:31:37Z</time>
      </trkpt>
      <trkpt lat="48.71871" lon="-3.4132">
        <ele>78</ele>
        <time>2013-05-19T08:31:39Z</time>
      </trkpt>
      <trkpt lat="48.71864" lon="-3.41323">
        <ele>78.48</ele>
        <time>2013-05-19T08:31:40Z</time>
      </trkpt>
      <trkpt lat="48.71819" lon="-3.41344">
        <ele>76.56</ele>
        <time>2013-05-19T08:31:46Z</time>
      </trkpt>
      <trkpt lat="48.71811" lon="-3.41345">
        <ele>76.08</ele>
        <time>2013-05-19T08:31:47Z</time>
      </trkpt>
      <trkpt lat="48.71795" lon="-3.41346">
        <ele>73.68</ele>
        <time>2013-05-19T08:31:49Z</time>
      </trkpt>
      <trkpt lat="48.71789" lon="-3.41349">
        <ele>73.2</ele>
        <time>2013-05-19T08:31:50Z</time>
      </trkpt>
      <trkpt lat="48.71783" lon="-3.41352">
        <ele>73.2</ele>
        <time>2013-05-19T08:31:51Z</time>
      </trkpt>
      <trkpt lat="48.71778" lon="-3.41356">
        <ele>72.24</ele>
        <time>2013-05-19T08:31:52Z</time>
      </trkpt>
      <trkpt lat="48.71773" lon="-3.41362">
        <ele>72.24</ele>
        <time>2013-05-19T08:31:53Z</time>
      </trkpt>
      <trkpt lat="48.71768" lon="-3.41369">
        <ele>71.76</ele>
        <time>2013-05-19T08:31:54Z</time>
      </trkpt>
      <trkpt lat="48.71765" lon="-3.41378">
        <ele>71.76</ele>
        <time>2013-05-19T08:31:55Z</time>
      </trkpt>
      <trkpt lat="48.71764" lon="-3.41388">
        <ele>72.24</ele>
        <time>2013-05-19T08:31:56Z</time>
      </trkpt>
      <trkpt lat="48.71764" lon="-3.41397">
        <ele>71.76</ele>
        <time>2013-05-19T08:31:57Z</time>
      </trkpt>
      <trkpt lat="48.71764" lon="-3.41407">
        <ele>71.27</ele>
        <time>2013-05-19T08:31:58Z</time>
      </trkpt>
      <trkpt lat="48.71782" lon="-3.41498">
        <ele>68.39</ele>
        <time>2013-05-19T08:32:06Z</time>
      </trkpt>
      <trkpt lat="48.71798" lon="-3.41582">
        <ele>65.03</ele>
        <time>2013-05-19T08:32:13Z</time>
      </trkpt>
      <trkpt lat="48.71799" lon="-3.41594">
        <ele>65.03</ele>
        <time>2013-05-19T08:32:14Z</time>
      </trkpt>
      <trkpt lat="48.71798" lon="-3.41607">
        <ele>64.55</ele>
        <time>2013-05-19T08:32:15Z</time>
      </trkpt>
      <trkpt lat="48.71795" lon="-3.41619">
        <ele>64.07</ele>
        <time>2013-05-19T08:32:16Z</time>
      </trkpt>
      <trkpt lat="48.71792" lon="-3.41631">
        <ele>63.58</ele>
        <time>2013-05-19T08:32:17Z</time>
      </trkpt>
      <trkpt lat="48.71787" lon="-3.41642">
        <ele>62.62</ele>
        <time>2013-05-19T08:32:18Z</time>
      </trkpt>
      <trkpt lat="48.71782" lon="-3.41652">
        <ele>62.62</ele>
        <time>2013-05-19T08:32:19Z</time>
      </trkpt>
      <trkpt lat="48.71776" lon="-3.4166">
        <ele>62.62</ele>
        <time>2013-05-19T08:32:20Z</time>
      </trkpt>
      <trkpt lat="48.7177" lon="-3.41669">
        <ele>62.14</ele>
        <time>2013-05-19T08:32:21Z</time>
      </trkpt>
      <trkpt lat="48.71745" lon="-3.41702">
        <ele>60.7</ele>
        <time>2013-05-19T08:32:25Z</time>
      </trkpt>
      <trkpt lat="48.7174" lon="-3.41712">
        <ele>60.22</ele>
        <time>2013-05-19T08:32:26Z</time>
      </trkpt>
      <trkpt lat="48.71736" lon="-3.41723">
        <ele>59.74</ele>
        <time>2013-05-19T08:32:27Z</time>
      </trkpt>
      <trkpt lat="48.71733" lon="-3.41734">
        <ele>59.26</ele>
        <time>2013-05-19T08:32:28Z</time>
      </trkpt>
      <trkpt lat="48.71718" lon="-3.4182">
        <ele>55.89</ele>
        <time>2013-05-19T08:32:35Z</time>
      </trkpt>
      <trkpt lat="48.71711" lon="-3.41859">
        <ele>54.45</ele>
        <time>2013-05-19T08:32:38Z</time>
      </trkpt>
      <trkpt lat="48.71707" lon="-3.41872">
        <ele>54.45</ele>
        <time>2013-05-19T08:32:39Z</time>
      </trkpt>
      <trkpt lat="48.71702" lon="-3.41883">
        <ele>53.49</ele>
        <time>2013-05-19T08:32:40Z</time>
      </trkpt>
      <trkpt lat="48.71696" lon="-3.41894">
        <ele>53.49</ele>
        <time>2013-05-19T08:32:41Z</time>
      </trkpt>
      <trkpt lat="48.71689" lon="-3.41902">
        <ele>52.53</ele>
        <time>2013-05-19T08:32:42Z</time>
      </trkpt>
      <trkpt lat="48.71681" lon="-3.41909">
        <ele>52.53</ele>
        <time>2013-05-19T08:32:43Z</time>
      </trkpt>
      <trkpt lat="48.71672" lon="-3.41914">
        <ele>52.05</ele>
        <time>2013-05-19T08:32:44Z</time>
      </trkpt>
      <trkpt lat="48.71663" lon="-3.41918">
        <ele>51.09</ele>
        <time>2013-05-19T08:32:45Z</time>
      </trkpt>
      <trkpt lat="48.71654" lon="-3.41921">
        <ele>51.57</ele>
        <time>2013-05-19T08:32:46Z</time>
      </trkpt>
      <trkpt lat="48.71645" lon="-3.41924">
        <ele>50.61</ele>
        <time>2013-05-19T08:32:47Z</time>
      </trkpt>
      <trkpt lat="48.71636" lon="-3.41925">
        <ele>50.61</ele>
        <time>2013-05-19T08:32:48Z</time>
      </trkpt>
      <trkpt lat="48.71628" lon="-3.41924">
        <ele>49.65</ele>
        <time>2013-05-19T08:32:49Z</time>
      </trkpt>
      <trkpt lat="48.7162" lon="-3.41924">
        <ele>49.65</ele>
        <time>2013-05-19T08:32:50Z</time>
      </trkpt>
      <trkpt lat="48.71596" lon="-3.41922">
        <ele>47.24</ele>
        <time>2013-05-19T08:32:53Z</time>
      </trkpt>
      <trkpt lat="48.71588" lon="-3.41925">
        <ele>46.76</ele>
        <time>2013-05-19T08:32:54Z</time>
      </trkpt>
      <trkpt lat="48.7158" lon="-3.4193">
        <ele>46.28</ele>
        <time>2013-05-19T08:32:55Z</time>
      </trkpt>
      <trkpt lat="48.71572" lon="-3.41937">
        <ele>45.8</ele>
        <time>2013-05-19T08:32:56Z</time>
      </trkpt>
      <trkpt lat="48.71565" lon="-3.41946">
        <ele>45.32</ele>
        <time>2013-05-19T08:32:57Z</time>
      </trkpt>
      <trkpt lat="48.71558" lon="-3.41956">
        <ele>45.32</ele>
        <time>2013-05-19T08:32:58Z</time>
      </trkpt>
      <trkpt lat="48.71539" lon="-3.41985">
        <ele>43.4</ele>
        <time>2013-05-19T08:33:01Z</time>
      </trkpt>
      <trkpt lat="48.7151" lon="-3.42057">
        <ele>40.03</ele>
        <time>2013-05-19T08:33:07Z</time>
      </trkpt>
      <trkpt lat="48.71493" lon="-3.42105">
        <ele>38.11</ele>
        <time>2013-05-19T08:33:11Z</time>
      </trkpt>
      <trkpt lat="48.71487" lon="-3.42115">
        <ele>37.15</ele>
        <time>2013-05-19T08:33:12Z</time>
      </trkpt>
      <trkpt lat="48.7148" lon="-3.42123">
        <ele>36.67</ele>
        <time>2013-05-19T08:33:13Z</time>
      </trkpt>
      <trkpt lat="48.71473" lon="-3.4213">
        <ele>36.19</ele>
        <time>2013-05-19T08:33:14Z</time>
      </trkpt>
      <trkpt lat="48.71464" lon="-3.42135">
        <ele>36.19</ele>
        <time>2013-05-19T08:33:15Z</time>
      </trkpt>
      <trkpt lat="48.71456" lon="-3.42138">
        <ele>35.23</ele>
        <time>2013-05-19T08:33:16Z</time>
      </trkpt>
      <trkpt lat="48.71447" lon="-3.42141">
        <ele>34.74</ele>
        <time>2013-05-19T08:33:17Z</time>
      </trkpt>
      <trkpt lat="48.71438" lon="-3.42142">
        <ele>34.26</ele>
        <time>2013-05-19T08:33:18Z</time>
      </trkpt>
      <trkpt lat="48.71429" lon="-3.42141">
        <ele>33.78</ele>
        <time>2013-05-19T08:33:19Z</time>
      </trkpt>
      <trkpt lat="48.71419" lon="-3.42138">
        <ele>32.82</ele>
        <time>2013-05-19T08:33:20Z</time>
      </trkpt>
      <trkpt lat="48.7141" lon="-3.42133">
        <ele>32.34</ele>
        <time>2013-05-19T08:33:21Z</time>
      </trkpt>
      <trkpt lat="48.71401" lon="-3.42126">
        <ele>31.86</ele>
        <time>2013-05-19T08:33:22Z</time>
      </trkpt>
      <trkpt lat="48.71393" lon="-3.4212">
        <ele>31.38</ele>
        <time>2013-05-19T08:33:23Z</time>
      </trkpt>
      <trkpt lat="48.7136" lon="-3.42094">
        <ele>29.46</ele>
        <time>2013-05-19T08:33:27Z</time>
      </trkpt>
      <trkpt lat="48.71324" lon="-3.4207">
        <ele>26.09</ele>
        <time>2013-05-19T08:33:31Z</time>
      </trkpt>
      <trkpt lat="48.71283" lon="-3.42045">
        <ele>22.73</ele>
        <time>2013-05-19T08:33:36Z</time>
      </trkpt>
      <trkpt lat="48.71269" lon="-3.42038">
        <ele>21.77</ele>
        <time>2013-05-19T08:33:38Z</time>
      </trkpt>
      <trkpt lat="48.71262" lon="-3.42038">
        <ele>21.29</ele>
        <time>2013-05-19T08:33:39Z</time>
      </trkpt>
      <trkpt lat="48.71255" lon="-3.4204">
        <ele>20.81</ele>
        <time>2013-05-19T08:33:40Z</time>
      </trkpt>
      <trkpt lat="48.71249" lon="-3.42044">
        <ele>20.32</ele>
        <time>2013-05-19T08:33:41Z</time>
      </trkpt>
      <trkpt lat="48.71243" lon="-3.42051">
        <ele>19.84</ele>
        <time>2013-05-19T08:33:42Z</time>
      </trkpt>
      <trkpt lat="48.71237" lon="-3.42058">
        <ele>19.36</ele>
        <time>2013-05-19T08:33:43Z</time>
      </trkpt>
      <trkpt lat="48.71233" lon="-3.42066">
        <ele>18.88</ele>
        <time>2013-05-19T08:33:44Z</time>
      </trkpt>
      <trkpt lat="48.71229" lon="-3.42075">
        <ele>18.88</ele>
        <time>2013-05-19T08:33:45Z</time>
      </trkpt>
      <trkpt lat="48.71226" lon="-3.42083">
        <ele>18.88</ele>
        <time>2013-05-19T08:33:46Z</time>
      </trkpt>
      <trkpt lat="48.71224" lon="-3.42092">
        <ele>18.88</ele>
        <time>2013-05-19T08:33:47Z</time>
      </trkpt>
      <trkpt lat="48.71217" lon="-3.4214">
        <ele>18.4</ele>
        <time>2013-05-19T08:33:52Z</time>
      </trkpt>
      <trkpt lat="48.71218" lon="-3.4215">
        <ele>18.4</ele>
        <time>2013-05-19T08:33:53Z</time>
      </trkpt>
      <trkpt lat="48.7122" lon="-3.42159">
        <ele>17.92</ele>
        <time>2013-05-19T08:33:54Z</time>
      </trkpt>
      <trkpt lat="48.71225" lon="-3.42167">
        <ele>17.92</ele>
        <time>2013-05-19T08:33:55Z</time>
      </trkpt>
      <trkpt lat="48.7123" lon="-3.42174">
        <ele>17.44</ele>
        <time>2013-05-19T08:33:56Z</time>
      </trkpt>
      <trkpt lat="48.7131" lon="-3.42275">
        <ele>17.44</ele>
        <time>2013-05-19T08:34:13Z</time>
      </trkpt>
      <trkpt lat="48.71315" lon="-3.4228">
        <ele>17.92</ele>
        <time>2013-05-19T08:34:14Z</time>
      </trkpt>
      <trkpt lat="48.71365" lon="-3.42352">
        <ele>19.36</ele>
        <time>2013-05-19T08:34:26Z</time>
      </trkpt>
      <trkpt lat="48.71368" lon="-3.42358">
        <ele>19.84</ele>
        <time>2013-05-19T08:34:27Z</time>
      </trkpt>
      <trkpt lat="48.7137" lon="-3.42366">
        <ele>19.36</ele>
        <time>2013-05-19T08:34:28Z</time>
      </trkpt>
      <trkpt lat="48.71371" lon="-3.42373">
        <ele>19.84</ele>
        <time>2013-05-19T08:34:29Z</time>
      </trkpt>
      <trkpt lat="48.71371" lon="-3.4238">
        <ele>19.84</ele>
        <time>2013-05-19T08:34:30Z</time>
      </trkpt>
      <trkpt lat="48.71371" lon="-3.42387">
        <ele>20.32</ele>
        <time>2013-05-19T08:34:31Z</time>
      </trkpt>
      <trkpt lat="48.7137" lon="-3.42393">
        <ele>20.32</ele>
        <time>2013-05-19T08:34:32Z</time>
      </trkpt>
      <trkpt lat="48.71368" lon="-3.42398">
        <ele>20.81</ele>
        <time>2013-05-19T08:34:33Z</time>
      </trkpt>
      <trkpt lat="48.71366" lon="-3.42402">
        <ele>21.29</ele>
        <time>2013-05-19T08:34:34Z</time>
      </trkpt>
      <trkpt lat="48.71364" lon="-3.42405">
        <ele>21.29</ele>
        <time>2013-05-19T08:34:35Z</time>
      </trkpt>
      <trkpt lat="48.71362" lon="-3.42408">
        <ele>22.25</ele>
        <time>2013-05-19T08:34:36Z</time>
      </trkpt>
      <trkpt lat="48.71359" lon="-3.42411">
        <ele>22.25</ele>
        <time>2013-05-19T08:34:37Z</time>
      </trkpt>
      <trkpt lat="48.71357" lon="-3.42414">
        <ele>22.25</ele>
        <time>2013-05-19T08:34:38Z</time>
      </trkpt>
      <trkpt lat="48.71354" lon="-3.42416">
        <ele>22.73</ele>
        <time>2013-05-19T08:34:39Z</time>
      </trkpt>
      <trkpt lat="48.71351" lon="-3.42417">
        <ele>22.73</ele>
        <time>2013-05-19T08:34:40Z</time>
      </trkpt>
      <trkpt lat="48.71331" lon="-3.4243">
        <ele>25.61</ele>
        <time>2013-05-19T08:34:47Z</time>
      </trkpt>
      <trkpt lat="48.71326" lon="-3.42434">
        <ele>26.57</ele>
        <time>2013-05-19T08:34:49Z</time>
      </trkpt>
      <trkpt lat="48.71303" lon="-3.42443">
        <ele>29.94</ele>
        <time>2013-05-19T08:34:57Z</time>
      </trkpt>
      <trkpt lat="48.71273" lon="-3.42452">
        <ele>33.3</ele>
        <time>2013-05-19T08:35:07Z</time>
      </trkpt>
      <trkpt lat="48.71252" lon="-3.42455">
        <ele>36.19</ele>
        <time>2013-05-19T08:35:14Z</time>
      </trkpt>
      <trkpt lat="48.71249" lon="-3.42454">
        <ele>36.19</ele>
        <time>2013-05-19T08:35:15Z</time>
      </trkpt>
      <trkpt lat="48.71193" lon="-3.42419">
        <ele>38.59</ele>
        <time>2013-05-19T08:35:31Z</time>
      </trkpt>
      <trkpt lat="48.71116" lon="-3.42378">
        <ele>39.55</ele>
        <time>2013-05-19T08:35:49Z</time>
      </trkpt>
      <trkpt lat="48.71103" lon="-3.42375">
        <ele>40.51</ele>
        <time>2013-05-19T08:35:52Z</time>
      </trkpt>
      <trkpt lat="48.71099" lon="-3.42375">
        <ele>40.51</ele>
        <time>2013-05-19T08:35:53Z</time>
      </trkpt>
      <trkpt lat="48.71073" lon="-3.42381">
        <ele>43.88</ele>
        <time>2013-05-19T08:36:01Z</time>
      </trkpt>
      <trkpt lat="48.71058" lon="-3.42387">
        <ele>45.8</ele>
        <time>2013-05-19T08:36:06Z</time>
      </trkpt>
      <trkpt lat="48.71035" lon="-3.42393">
        <ele>49.16</ele>
        <time>2013-05-19T08:36:15Z</time>
      </trkpt>
      <trkpt lat="48.71014" lon="-3.42401">
        <ele>52.05</ele>
        <time>2013-05-19T08:36:23Z</time>
      </trkpt>
      <trkpt lat="48.7098" lon="-3.42417">
        <ele>54.93</ele>
        <time>2013-05-19T08:36:35Z</time>
      </trkpt>
      <trkpt lat="48.70952" lon="-3.42436">
        <ele>58.3</ele>
        <time>2013-05-19T08:36:45Z</time>
      </trkpt>
      <trkpt lat="48.70935" lon="-3.42448">
        <ele>60.22</ele>
        <time>2013-05-19T08:36:51Z</time>
      </trkpt>
      <trkpt lat="48.70919" lon="-3.42465">
        <ele>63.1</ele>
        <time>2013-05-19T08:36:58Z</time>
      </trkpt>
      <trkpt lat="48.70912" lon="-3.42477">
        <ele>64.55</ele>
        <time>2013-05-19T08:37:02Z</time>
      </trkpt>
      <trkpt lat="48.709" lon="-3.42499">
        <ele>66.47</ele>
        <time>2013-05-19T08:37:08Z</time>
      </trkpt>
      <trkpt lat="48.70854" lon="-3.42534">
        <ele>68.39</ele>
        <time>2013-05-19T08:37:22Z</time>
      </trkpt>
      <trkpt lat="48.70809" lon="-3.42572">
        <ele>70.79</ele>
        <time>2013-05-19T08:37:37Z</time>
      </trkpt>
      <trkpt lat="48.70759" lon="-3.42596">
        <ele>73.68</ele>
        <time>2013-05-19T08:37:51Z</time>
      </trkpt>
      <trkpt lat="48.70705" lon="-3.42608">
        <ele>75.12</ele>
        <time>2013-05-19T08:38:05Z</time>
      </trkpt>
      <trkpt lat="48.70657" lon="-3.42635">
        <ele>77.52</ele>
        <time>2013-05-19T08:38:18Z</time>
      </trkpt>
      <trkpt lat="48.70616" lon="-3.42671">
        <ele>80.89</ele>
        <time>2013-05-19T08:38:31Z</time>
      </trkpt>
      <trkpt lat="48.70592" lon="-3.42696">
        <ele>84.25</ele>
        <time>2013-05-19T08:38:40Z</time>
      </trkpt>
      <trkpt lat="48.70561" lon="-3.42724">
        <ele>87.62</ele>
        <time>2013-05-19T08:38:51Z</time>
      </trkpt>
      <trkpt lat="48.70508" lon="-3.42774">
        <ele>90.98</ele>
        <time>2013-05-19T08:39:06Z</time>
      </trkpt>
      <trkpt lat="48.70463" lon="-3.4283">
        <ele>94.35</ele>
        <time>2013-05-19T08:39:20Z</time>
      </trkpt>
      <trkpt lat="48.70439" lon="-3.42903">
        <ele>96.75</ele>
        <time>2013-05-19T08:39:35Z</time>
      </trkpt>
      <trkpt lat="48.70418" lon="-3.43008">
        <ele>97.23</ele>
        <time>2013-05-19T08:39:52Z</time>
      </trkpt>
      <trkpt lat="48.70405" lon="-3.4313">
        <ele>94.35</ele>
        <time>2013-05-19T08:40:03Z</time>
      </trkpt>
      <trkpt lat="48.7041" lon="-3.4318">
        <ele>90.98</ele>
        <time>2013-05-19T08:40:07Z</time>
      </trkpt>
      <trkpt lat="48.70411" lon="-3.43192">
        <ele>90.5</ele>
        <time>2013-05-19T08:40:08Z</time>
      </trkpt>
      <trkpt lat="48.70411" lon="-3.43217">
        <ele>90.02</ele>
        <time>2013-05-19T08:40:10Z</time>
      </trkpt>
      <trkpt lat="48.70409" lon="-3.43229">
        <ele>89.06</ele>
        <time>2013-05-19T08:40:11Z</time>
      </trkpt>
      <trkpt lat="48.70406" lon="-3.4324">
        <ele>88.58</ele>
        <time>2013-05-19T08:40:12Z</time>
      </trkpt>
      <trkpt lat="48.70402" lon="-3.4325">
        <ele>88.1</ele>
        <time>2013-05-19T08:40:13Z</time>
      </trkpt>
      <trkpt lat="48.70395" lon="-3.43258">
        <ele>86.66</ele>
        <time>2013-05-19T08:40:14Z</time>
      </trkpt>
      <trkpt lat="48.70388" lon="-3.43266">
        <ele>86.18</ele>
        <time>2013-05-19T08:40:15Z</time>
      </trkpt>
      <trkpt lat="48.70381" lon="-3.43274">
        <ele>85.69</ele>
        <time>2013-05-19T08:40:16Z</time>
      </trkpt>
      <trkpt lat="48.70366" lon="-3.4329">
        <ele>83.77</ele>
        <time>2013-05-19T08:40:18Z</time>
      </trkpt>
      <trkpt lat="48.7036" lon="-3.433">
        <ele>83.29</ele>
        <time>2013-05-19T08:40:19Z</time>
      </trkpt>
      <trkpt lat="48.70356" lon="-3.4331">
        <ele>82.81</ele>
        <time>2013-05-19T08:40:20Z</time>
      </trkpt>
      <trkpt lat="48.70353" lon="-3.43321">
        <ele>81.85</ele>
        <time>2013-05-19T08:40:21Z</time>
      </trkpt>
      <trkpt lat="48.70351" lon="-3.43333">
        <ele>81.85</ele>
        <time>2013-05-19T08:40:22Z</time>
      </trkpt>
      <trkpt lat="48.70352" lon="-3.43345">
        <ele>80.89</ele>
        <time>2013-05-19T08:40:23Z</time>
      </trkpt>
      <trkpt lat="48.70354" lon="-3.43356">
        <ele>80.89</ele>
        <time>2013-05-19T08:40:24Z</time>
      </trkpt>
      <trkpt lat="48.70374" lon="-3.43486">
        <ele>78</ele>
        <time>2013-05-19T08:40:37Z</time>
      </trkpt>
      <trkpt lat="48.70381" lon="-3.43547">
        <ele>78.48</ele>
        <time>2013-05-19T08:40:44Z</time>
      </trkpt>
      <trkpt lat="48.70379" lon="-3.43579">
        <ele>78.97</ele>
        <time>2013-05-19T08:40:48Z</time>
      </trkpt>
      <trkpt lat="48.70363" lon="-3.43697">
        <ele>78.48</ele>
        <time>2013-05-19T08:41:02Z</time>
      </trkpt>
      <trkpt lat="48.70362" lon="-3.43705">
        <ele>78.97</ele>
        <time>2013-05-19T08:41:03Z</time>
      </trkpt>
      <trkpt lat="48.70342" lon="-3.438">
        <ele>80.41</ele>
        <time>2013-05-19T08:41:16Z</time>
      </trkpt>
      <trkpt lat="48.70336" lon="-3.43842">
        <ele>81.85</ele>
        <time>2013-05-19T08:41:22Z</time>
      </trkpt>
      <trkpt lat="48.70336" lon="-3.43849">
        <ele>81.85</ele>
        <time>2013-05-19T08:41:23Z</time>
      </trkpt>
      <trkpt lat="48.70335" lon="-3.43894">
        <ele>84.25</ele>
        <time>2013-05-19T08:41:30Z</time>
      </trkpt>
      <trkpt lat="48.70335" lon="-3.43901">
        <ele>84.25</ele>
        <time>2013-05-19T08:41:31Z</time>
      </trkpt>
      <trkpt lat="48.70336" lon="-3.43915">
        <ele>84.73</ele>
        <time>2013-05-19T08:41:33Z</time>
      </trkpt>
      <trkpt lat="48.70336" lon="-3.43955">
        <ele>83.77</ele>
        <time>2013-05-19T08:41:38Z</time>
      </trkpt>
      <trkpt lat="48.70366" lon="-3.44076">
        <ele>82.33</ele>
        <time>2013-05-19T08:41:52Z</time>
      </trkpt>
      <trkpt lat="48.70398" lon="-3.44195">
        <ele>80.41</ele>
        <time>2013-05-19T08:42:06Z</time>
      </trkpt>
      <trkpt lat="48.70412" lon="-3.44315">
        <ele>78.48</ele>
        <time>2013-05-19T08:42:18Z</time>
      </trkpt>
      <trkpt lat="48.70427" lon="-3.44434">
        <ele>76.56</ele>
        <time>2013-05-19T08:42:30Z</time>
      </trkpt>
      <trkpt lat="48.70436" lon="-3.44548">
        <ele>79.45</ele>
        <time>2013-05-19T08:42:45Z</time>
      </trkpt>
      <trkpt lat="48.70447" lon="-3.44608">
        <ele>79.93</ele>
        <time>2013-05-19T08:42:53Z</time>
      </trkpt>
      <trkpt lat="48.7045" lon="-3.44615">
        <ele>80.41</ele>
        <time>2013-05-19T08:42:54Z</time>
      </trkpt>
      <trkpt lat="48.70453" lon="-3.44621">
        <ele>79.93</ele>
        <time>2013-05-19T08:42:55Z</time>
      </trkpt>
      <trkpt lat="48.70456" lon="-3.44628">
        <ele>80.89</ele>
        <time>2013-05-19T08:42:56Z</time>
      </trkpt>
      <trkpt lat="48.70458" lon="-3.44635">
        <ele>80.41</ele>
        <time>2013-05-19T08:42:57Z</time>
      </trkpt>
      <trkpt lat="48.70465" lon="-3.44655">
        <ele>80.89</ele>
        <time>2013-05-19T08:43:00Z</time>
      </trkpt>
      <trkpt lat="48.70467" lon="-3.44663">
        <ele>80.89</ele>
        <time>2013-05-19T08:43:01Z</time>
      </trkpt>
      <trkpt lat="48.70468" lon="-3.4467">
        <ele>81.37</ele>
        <time>2013-05-19T08:43:02Z</time>
      </trkpt>
      <trkpt lat="48.70468" lon="-3.44677">
        <ele>81.37</ele>
        <time>2013-05-19T08:43:03Z</time>
      </trkpt>
      <trkpt lat="48.70468" lon="-3.44685">
        <ele>81.37</ele>
        <time>2013-05-19T08:43:04Z</time>
      </trkpt>
      <trkpt lat="48.70468" lon="-3.44692">
        <ele>81.85</ele>
        <time>2013-05-19T08:43:05Z</time>
      </trkpt>
      <trkpt lat="48.70466" lon="-3.44733">
        <ele>83.77</ele>
        <time>2013-05-19T08:43:11Z</time>
      </trkpt>
      <trkpt lat="48.70466" lon="-3.4474">
        <ele>84.73</ele>
        <time>2013-05-19T08:43:12Z</time>
      </trkpt>
      <trkpt lat="48.70466" lon="-3.44746">
        <ele>84.73</ele>
        <time>2013-05-19T08:43:13Z</time>
      </trkpt>
      <trkpt lat="48.70466" lon="-3.44764">
        <ele>85.69</ele>
        <time>2013-05-19T08:43:16Z</time>
      </trkpt>
      <trkpt lat="48.70466" lon="-3.4477">
        <ele>85.69</ele>
        <time>2013-05-19T08:43:17Z</time>
      </trkpt>
      <trkpt lat="48.70467" lon="-3.44826">
        <ele>85.69</ele>
        <time>2013-05-19T08:43:30Z</time>
      </trkpt>
      <trkpt lat="48.70467" lon="-3.44827">
        <ele>86.18</ele>
        <time>2013-05-19T08:43:37Z</time>
      </trkpt>
      <trkpt lat="48.70466" lon="-3.4483">
        <ele>85.69</ele>
        <time>2013-05-19T08:43:38Z</time>
      </trkpt>
      <trkpt lat="48.70464" lon="-3.44832">
        <ele>86.18</ele>
        <time>2013-05-19T08:43:39Z</time>
      </trkpt>
      <trkpt lat="48.70461" lon="-3.44834">
        <ele>85.69</ele>
        <time>2013-05-19T08:43:40Z</time>
      </trkpt>
      <trkpt lat="48.70458" lon="-3.44835">
        <ele>86.18</ele>
        <time>2013-05-19T08:43:41Z</time>
      </trkpt>
      <trkpt lat="48.70393" lon="-3.44857">
        <ele>86.18</ele>
        <time>2013-05-19T08:43:55Z</time>
      </trkpt>
      <trkpt lat="48.70338" lon="-3.44835">
        <ele>85.69</ele>
        <time>2013-05-19T08:44:05Z</time>
      </trkpt>
      <trkpt lat="48.70248" lon="-3.44824">
        <ele>85.21</ele>
        <time>2013-05-19T08:44:20Z</time>
      </trkpt>
      <trkpt lat="48.70149" lon="-3.44822">
        <ele>85.69</ele>
        <time>2013-05-19T08:44:36Z</time>
      </trkpt>
      <trkpt lat="48.70052" lon="-3.44802">
        <ele>86.18</ele>
        <time>2013-05-19T08:44:52Z</time>
      </trkpt>
      <trkpt lat="48.69959" lon="-3.44791">
        <ele>87.62</ele>
        <time>2013-05-19T08:45:08Z</time>
      </trkpt>
      <trkpt lat="48.69847" lon="-3.44764">
        <ele>89.06</ele>
        <time>2013-05-19T08:45:28Z</time>
      </trkpt>
      <trkpt lat="48.69831" lon="-3.44759">
        <ele>89.06</ele>
        <time>2013-05-19T08:45:31Z</time>
      </trkpt>
      <trkpt lat="48.69825" lon="-3.44757">
        <ele>89.06</ele>
        <time>2013-05-19T08:45:32Z</time>
      </trkpt>
      <trkpt lat="48.69732" lon="-3.44729">
        <ele>91.46</ele>
        <time>2013-05-19T08:45:49Z</time>
      </trkpt>
      <trkpt lat="48.69652" lon="-3.44683">
        <ele>92.42</ele>
        <time>2013-05-19T08:46:04Z</time>
      </trkpt>
      <trkpt lat="48.69547" lon="-3.44612">
        <ele>95.31</ele>
        <time>2013-05-19T08:46:25Z</time>
      </trkpt>
      <trkpt lat="48.695" lon="-3.44569">
        <ele>97.23</ele>
        <time>2013-05-19T08:46:36Z</time>
      </trkpt>
      <trkpt lat="48.69433" lon="-3.44527">
        <ele>100.6</ele>
        <time>2013-05-19T08:46:51Z</time>
      </trkpt>
      <trkpt lat="48.69343" lon="-3.44487">
        <ele>101.56</ele>
        <time>2013-05-19T08:47:08Z</time>
      </trkpt>
      <trkpt lat="48.69293" lon="-3.44471">
        <ele>100.6</ele>
        <time>2013-05-19T08:47:16Z</time>
      </trkpt>
      <trkpt lat="48.69287" lon="-3.44468">
        <ele>100.11</ele>
        <time>2013-05-19T08:47:17Z</time>
      </trkpt>
      <trkpt lat="48.69281" lon="-3.44464">
        <ele>100.6</ele>
        <time>2013-05-19T08:47:18Z</time>
      </trkpt>
      <trkpt lat="48.69203" lon="-3.44423">
        <ele>100.11</ele>
        <time>2013-05-19T08:47:31Z</time>
      </trkpt>
      <trkpt lat="48.69165" lon="-3.44404">
        <ele>100.6</ele>
        <time>2013-05-19T08:47:38Z</time>
      </trkpt>
      <trkpt lat="48.6916" lon="-3.44402">
        <ele>100.6</ele>
        <time>2013-05-19T08:47:39Z</time>
      </trkpt>
      <trkpt lat="48.69077" lon="-3.44363">
        <ele>103</ele>
        <time>2013-05-19T08:47:55Z</time>
      </trkpt>
      <trkpt lat="48.68992" lon="-3.44335">
        <ele>101.56</ele>
        <time>2013-05-19T08:48:09Z</time>
      </trkpt>
      <trkpt lat="48.68885" lon="-3.44336">
        <ele>97.71</ele>
        <time>2013-05-19T08:48:22Z</time>
      </trkpt>
      <trkpt lat="48.68878" lon="-3.44335">
        <ele>98.19</ele>
        <time>2013-05-19T08:48:23Z</time>
      </trkpt>
      <trkpt lat="48.68871" lon="-3.44333">
        <ele>97.71</ele>
        <time>2013-05-19T08:48:24Z</time>
      </trkpt>
      <trkpt lat="48.68863" lon="-3.44329">
        <ele>98.19</ele>
        <time>2013-05-19T08:48:25Z</time>
      </trkpt>
      <trkpt lat="48.68857" lon="-3.44324">
        <ele>96.75</ele>
        <time>2013-05-19T08:48:26Z</time>
      </trkpt>
      <trkpt lat="48.6885" lon="-3.4432">
        <ele>97.23</ele>
        <time>2013-05-19T08:48:27Z</time>
      </trkpt>
      <trkpt lat="48.68762" lon="-3.44253">
        <ele>97.71</ele>
        <time>2013-05-19T08:48:41Z</time>
      </trkpt>
      <trkpt lat="48.68686" lon="-3.4417">
        <ele>95.79</ele>
        <time>2013-05-19T08:48:54Z</time>
      </trkpt>
      <trkpt lat="48.68603" lon="-3.44121">
        <ele>95.31</ele>
        <time>2013-05-19T08:49:07Z</time>
      </trkpt>
      <trkpt lat="48.68585" lon="-3.4411">
        <ele>95.31</ele>
        <time>2013-05-19T08:49:10Z</time>
      </trkpt>
      <trkpt lat="48.68515" lon="-3.4407">
        <ele>96.27</ele>
        <time>2013-05-19T08:49:22Z</time>
      </trkpt>
      <trkpt lat="48.68492" lon="-3.44052">
        <ele>96.75</ele>
        <time>2013-05-19T08:49:26Z</time>
      </trkpt>
      <trkpt lat="48.68449" lon="-3.44017">
        <ele>98.19</ele>
        <time>2013-05-19T08:49:34Z</time>
      </trkpt>
      <trkpt lat="48.68445" lon="-3.44011">
        <ele>98.67</ele>
        <time>2013-05-19T08:49:35Z</time>
      </trkpt>
      <trkpt lat="48.68429" lon="-3.43987">
        <ele>99.15</ele>
        <time>2013-05-19T08:49:39Z</time>
      </trkpt>
      <trkpt lat="48.6842" lon="-3.43968">
        <ele>99.63</ele>
        <time>2013-05-19T08:49:42Z</time>
      </trkpt>
      <trkpt lat="48.68393" lon="-3.43906">
        <ele>99.63</ele>
        <time>2013-05-19T08:49:51Z</time>
      </trkpt>
      <trkpt lat="48.6839" lon="-3.43897">
        <ele>99.63</ele>
        <time>2013-05-19T08:49:52Z</time>
      </trkpt>
      <trkpt lat="48.68388" lon="-3.43887">
        <ele>99.63</ele>
        <time>2013-05-19T08:49:53Z</time>
      </trkpt>
      <trkpt lat="48.68387" lon="-3.43877">
        <ele>99.15</ele>
        <time>2013-05-19T08:49:54Z</time>
      </trkpt>
      <trkpt lat="48.68386" lon="-3.43866">
        <ele>99.15</ele>
        <time>2013-05-19T08:49:55Z</time>
      </trkpt>
      <trkpt lat="48.68386" lon="-3.43855">
        <ele>99.15</ele>
        <time>2013-05-19T08:49:56Z</time>
      </trkpt>
      <trkpt lat="48.68387" lon="-3.43844">
        <ele>98.67</ele>
        <time>2013-05-19T08:49:57Z</time>
      </trkpt>
      <trkpt lat="48.6839" lon="-3.43814">
        <ele>99.15</ele>
        <time>2013-05-19T08:50:00Z</time>
      </trkpt>
      <trkpt lat="48.68386" lon="-3.43771">
        <ele>100.6</ele>
        <time>2013-05-19T08:50:05Z</time>
      </trkpt>
      <trkpt lat="48.68385" lon="-3.43764">
        <ele>100.6</ele>
        <time>2013-05-19T08:50:06Z</time>
      </trkpt>
      <trkpt lat="48.68382" lon="-3.4375">
        <ele>101.08</ele>
        <time>2013-05-19T08:50:08Z</time>
      </trkpt>
      <trkpt lat="48.68361" lon="-3.43695">
        <ele>102.52</ele>
        <time>2013-05-19T08:50:16Z</time>
      </trkpt>
      <trkpt lat="48.68296" lon="-3.43632">
        <ele>103.96</ele>
        <time>2013-05-19T08:50:30Z</time>
      </trkpt>
      <trkpt lat="48.68219" lon="-3.43564">
        <ele>105.88</ele>
        <time>2013-05-19T08:50:46Z</time>
      </trkpt>
      <trkpt lat="48.68152" lon="-3.43506">
        <ele>106.84</ele>
        <time>2013-05-19T08:50:59Z</time>
      </trkpt>
      <trkpt lat="48.68093" lon="-3.43431">
        <ele>106.84</ele>
        <time>2013-05-19T08:51:11Z</time>
      </trkpt>
      <trkpt lat="48.68066" lon="-3.43392">
        <ele>107.32</ele>
        <time>2013-05-19T08:51:17Z</time>
      </trkpt>
      <trkpt lat="48.67984" lon="-3.43331">
        <ele>109.25</ele>
        <time>2013-05-19T08:51:32Z</time>
      </trkpt>
      <trkpt lat="48.6793" lon="-3.43297">
        <ele>111.17</ele>
        <time>2013-05-19T08:51:43Z</time>
      </trkpt>
      <trkpt lat="48.67866" lon="-3.4323">
        <ele>113.09</ele>
        <time>2013-05-19T08:51:57Z</time>
      </trkpt>
      <trkpt lat="48.67848" lon="-3.43211">
        <ele>114.05</ele>
        <time>2013-05-19T08:52:01Z</time>
      </trkpt>
      <trkpt lat="48.67845" lon="-3.43205">
        <ele>114.53</ele>
        <time>2013-05-19T08:52:02Z</time>
      </trkpt>
      <trkpt lat="48.67842" lon="-3.43197">
        <ele>114.05</ele>
        <time>2013-05-19T08:52:03Z</time>
      </trkpt>
      <trkpt lat="48.67841" lon="-3.43189">
        <ele>114.05</ele>
        <time>2013-05-19T08:52:04Z</time>
      </trkpt>
      <trkpt lat="48.6784" lon="-3.43181">
        <ele>114.53</ele>
        <time>2013-05-19T08:52:05Z</time>
      </trkpt>
      <trkpt lat="48.6784" lon="-3.43172">
        <ele>114.05</ele>
        <time>2013-05-19T08:52:06Z</time>
      </trkpt>
      <trkpt lat="48.67841" lon="-3.43163">
        <ele>113.57</ele>
        <time>2013-05-19T08:52:07Z</time>
      </trkpt>
      <trkpt lat="48.67842" lon="-3.43154">
        <ele>113.57</ele>
        <time>2013-05-19T08:52:08Z</time>
      </trkpt>
      <trkpt lat="48.67842" lon="-3.43144">
        <ele>113.09</ele>
        <time>2013-05-19T08:52:09Z</time>
      </trkpt>
      <trkpt lat="48.67843" lon="-3.43134">
        <ele>113.09</ele>
        <time>2013-05-19T08:52:10Z</time>
      </trkpt>
      <trkpt lat="48.67841" lon="-3.43033">
        <ele>110.21</ele>
        <time>2013-05-19T08:52:20Z</time>
      </trkpt>
      <trkpt lat="48.67841" lon="-3.43025">
        <ele>109.73</ele>
        <time>2013-05-19T08:52:21Z</time>
      </trkpt>
      <trkpt lat="48.67841" lon="-3.4301">
        <ele>108.29</ele>
        <time>2013-05-19T08:52:28Z</time>
      </trkpt>
      <trkpt lat="48.67842" lon="-3.43011">
        <ele>108.29</ele>
        <time>2013-05-19T08:52:48Z</time>
      </trkpt>
      <trkpt lat="48.67843" lon="-3.43011">
        <ele>108.29</ele>
        <time>2013-05-19T08:53:06Z</time>
      </trkpt>
      <trkpt lat="48.67843" lon="-3.43011">
        <ele>108.29</ele>
        <time>2013-05-19T08:53:29Z</time>
      </trkpt>
      <trkpt lat="48.67844" lon="-3.4301">
        <ele>108.29</ele>
        <time>2013-05-19T08:53:57Z</time>
      </trkpt>
      <trkpt lat="48.67844" lon="-3.4301">
        <ele>108.29</ele>
        <time>2013-05-19T08:54:24Z</time>
      </trkpt>
      <trkpt lat="48.67844" lon="-3.43007">
        <ele>108.29</ele>
        <time>2013-05-19T08:54:46Z</time>
      </trkpt>
      <trkpt lat="48.67844" lon="-3.43">
        <ele>108.29</ele>
        <time>2013-05-19T08:54:48Z</time>
      </trkpt>
      <trkpt lat="48.67843" lon="-3.42994">
        <ele>108.29</ele>
        <time>2013-05-19T08:54:49Z</time>
      </trkpt>
      <trkpt lat="48.67842" lon="-3.4291">
        <ele>105.88</ele>
        <time>2013-05-19T08:54:58Z</time>
      </trkpt>
      <trkpt lat="48.67841" lon="-3.42886">
        <ele>105.4</ele>
        <time>2013-05-19T08:55:00Z</time>
      </trkpt>
      <trkpt lat="48.67831" lon="-3.42816">
        <ele>104.44</ele>
        <time>2013-05-19T08:55:06Z</time>
      </trkpt>
      <trkpt lat="48.6783" lon="-3.42791">
        <ele>103.48</ele>
        <time>2013-05-19T08:55:08Z</time>
      </trkpt>
      <trkpt lat="48.67831" lon="-3.42778">
        <ele>103</ele>
        <time>2013-05-19T08:55:09Z</time>
      </trkpt>
      <trkpt lat="48.67832" lon="-3.42765">
        <ele>102.52</ele>
        <time>2013-05-19T08:55:10Z</time>
      </trkpt>
      <trkpt lat="48.67835" lon="-3.42751">
        <ele>102.52</ele>
        <time>2013-05-19T08:55:11Z</time>
      </trkpt>
      <trkpt lat="48.67838" lon="-3.42739">
        <ele>102.04</ele>
        <time>2013-05-19T08:55:12Z</time>
      </trkpt>
      <trkpt lat="48.67844" lon="-3.42714">
        <ele>101.08</ele>
        <time>2013-05-19T08:55:14Z</time>
      </trkpt>
      <trkpt lat="48.67852" lon="-3.4269">
        <ele>100.6</ele>
        <time>2013-05-19T08:55:16Z</time>
      </trkpt>
      <trkpt lat="48.67857" lon="-3.42678">
        <ele>100.11</ele>
        <time>2013-05-19T08:55:17Z</time>
      </trkpt>
      <trkpt lat="48.67863" lon="-3.42668">
        <ele>99.15</ele>
        <time>2013-05-19T08:55:18Z</time>
      </trkpt>
      <trkpt lat="48.6787" lon="-3.42658">
        <ele>99.15</ele>
        <time>2013-05-19T08:55:19Z</time>
      </trkpt>
      <trkpt lat="48.67877" lon="-3.42649">
        <ele>99.15</ele>
        <time>2013-05-19T08:55:20Z</time>
      </trkpt>
      <trkpt lat="48.67903" lon="-3.42612">
        <ele>97.23</ele>
        <time>2013-05-19T08:55:24Z</time>
      </trkpt>
      <trkpt lat="48.67908" lon="-3.42602">
        <ele>97.23</ele>
        <time>2013-05-19T08:55:25Z</time>
      </trkpt>
      <trkpt lat="48.67911" lon="-3.42591">
        <ele>96.75</ele>
        <time>2013-05-19T08:55:26Z</time>
      </trkpt>
      <trkpt lat="48.67913" lon="-3.42579">
        <ele>96.27</ele>
        <time>2013-05-19T08:55:27Z</time>
      </trkpt>
      <trkpt lat="48.67914" lon="-3.42567">
        <ele>95.79</ele>
        <time>2013-05-19T08:55:28Z</time>
      </trkpt>
      <trkpt lat="48.67913" lon="-3.42556">
        <ele>96.27</ele>
        <time>2013-05-19T08:55:29Z</time>
      </trkpt>
      <trkpt lat="48.67911" lon="-3.42545">
        <ele>96.27</ele>
        <time>2013-05-19T08:55:30Z</time>
      </trkpt>
      <trkpt lat="48.67907" lon="-3.42535">
        <ele>95.79</ele>
        <time>2013-05-19T08:55:31Z</time>
      </trkpt>
      <trkpt lat="48.67904" lon="-3.42526">
        <ele>95.79</ele>
        <time>2013-05-19T08:55:32Z</time>
      </trkpt>
      <trkpt lat="48.67899" lon="-3.42517">
        <ele>95.79</ele>
        <time>2013-05-19T08:55:33Z</time>
      </trkpt>
      <trkpt lat="48.67894" lon="-3.42509">
        <ele>95.79</ele>
        <time>2013-05-19T08:55:34Z</time>
      </trkpt>
      <trkpt lat="48.6789" lon="-3.42501">
        <ele>95.79</ele>
        <time>2013-05-19T08:55:35Z</time>
      </trkpt>
      <trkpt lat="48.67815" lon="-3.42385">
        <ele>97.23</ele>
        <time>2013-05-19T08:55:51Z</time>
      </trkpt>
      <trkpt lat="48.67751" lon="-3.42284">
        <ele>93.87</ele>
        <time>2013-05-19T08:56:03Z</time>
      </trkpt>
      <trkpt lat="48.67744" lon="-3.42279">
        <ele>93.39</ele>
        <time>2013-05-19T08:56:04Z</time>
      </trkpt>
      <trkpt lat="48.67737" lon="-3.42275">
        <ele>93.39</ele>
        <time>2013-05-19T08:56:05Z</time>
      </trkpt>
      <trkpt lat="48.67729" lon="-3.42273">
        <ele>93.39</ele>
        <time>2013-05-19T08:56:06Z</time>
      </trkpt>
      <trkpt lat="48.6772" lon="-3.42272">
        <ele>92.9</ele>
        <time>2013-05-19T08:56:07Z</time>
      </trkpt>
      <trkpt lat="48.67712" lon="-3.42271">
        <ele>92.42</ele>
        <time>2013-05-19T08:56:08Z</time>
      </trkpt>
      <trkpt lat="48.67704" lon="-3.42269">
        <ele>91.94</ele>
        <time>2013-05-19T08:56:09Z</time>
      </trkpt>
      <trkpt lat="48.67696" lon="-3.42266">
        <ele>91.46</ele>
        <time>2013-05-19T08:56:10Z</time>
      </trkpt>
      <trkpt lat="48.67687" lon="-3.42261">
        <ele>91.46</ele>
        <time>2013-05-19T08:56:11Z</time>
      </trkpt>
      <trkpt lat="48.6768" lon="-3.42254">
        <ele>90.98</ele>
        <time>2013-05-19T08:56:12Z</time>
      </trkpt>
      <trkpt lat="48.67673" lon="-3.42246">
        <ele>90.02</ele>
        <time>2013-05-19T08:56:13Z</time>
      </trkpt>
      <trkpt lat="48.67668" lon="-3.42235">
        <ele>90.02</ele>
        <time>2013-05-19T08:56:14Z</time>
      </trkpt>
      <trkpt lat="48.67663" lon="-3.42224">
        <ele>89.54</ele>
        <time>2013-05-19T08:56:15Z</time>
      </trkpt>
      <trkpt lat="48.6766" lon="-3.42211">
        <ele>88.58</ele>
        <time>2013-05-19T08:56:16Z</time>
      </trkpt>
      <trkpt lat="48.67659" lon="-3.42199">
        <ele>88.1</ele>
        <time>2013-05-19T08:56:17Z</time>
      </trkpt>
      <trkpt lat="48.67658" lon="-3.42186">
        <ele>87.62</ele>
        <time>2013-05-19T08:56:18Z</time>
      </trkpt>
      <trkpt lat="48.6766" lon="-3.42173">
        <ele>87.14</ele>
        <time>2013-05-19T08:56:19Z</time>
      </trkpt>
      <trkpt lat="48.67662" lon="-3.42161">
        <ele>86.66</ele>
        <time>2013-05-19T08:56:20Z</time>
      </trkpt>
      <trkpt lat="48.67662" lon="-3.42148">
        <ele>85.69</ele>
        <time>2013-05-19T08:56:21Z</time>
      </trkpt>
      <trkpt lat="48.67662" lon="-3.42134">
        <ele>85.69</ele>
        <time>2013-05-19T08:56:22Z</time>
      </trkpt>
      <trkpt lat="48.67662" lon="-3.42121">
        <ele>84.73</ele>
        <time>2013-05-19T08:56:23Z</time>
      </trkpt>
      <trkpt lat="48.67658" lon="-3.42081">
        <ele>83.29</ele>
        <time>2013-05-19T08:56:26Z</time>
      </trkpt>
      <trkpt lat="48.67654" lon="-3.42043">
        <ele>81.85</ele>
        <time>2013-05-19T08:56:29Z</time>
      </trkpt>
      <trkpt lat="48.67652" lon="-3.42007">
        <ele>79.93</ele>
        <time>2013-05-19T08:56:32Z</time>
      </trkpt>
      <trkpt lat="48.6765" lon="-3.4197">
        <ele>78.97</ele>
        <time>2013-05-19T08:56:35Z</time>
      </trkpt>
      <trkpt lat="48.67642" lon="-3.41921">
        <ele>75.12</ele>
        <time>2013-05-19T08:56:40Z</time>
      </trkpt>
      <trkpt lat="48.67623" lon="-3.4187">
        <ele>72.72</ele>
        <time>2013-05-19T08:56:46Z</time>
      </trkpt>
      <trkpt lat="48.67619" lon="-3.41864">
        <ele>72.24</ele>
        <time>2013-05-19T08:56:47Z</time>
      </trkpt>
      <trkpt lat="48.67615" lon="-3.4186">
        <ele>71.76</ele>
        <time>2013-05-19T08:56:48Z</time>
      </trkpt>
      <trkpt lat="48.6761" lon="-3.41857">
        <ele>70.79</ele>
        <time>2013-05-19T08:56:49Z</time>
      </trkpt>
      <trkpt lat="48.67605" lon="-3.41856">
        <ele>70.31</ele>
        <time>2013-05-19T08:56:50Z</time>
      </trkpt>
      <trkpt lat="48.67598" lon="-3.41859">
        <ele>70.31</ele>
        <time>2013-05-19T08:56:51Z</time>
      </trkpt>
      <trkpt lat="48.67592" lon="-3.41865">
        <ele>69.83</ele>
        <time>2013-05-19T08:56:52Z</time>
      </trkpt>
      <trkpt lat="48.67585" lon="-3.41871">
        <ele>69.35</ele>
        <time>2013-05-19T08:56:53Z</time>
      </trkpt>
      <trkpt lat="48.67527" lon="-3.4193">
        <ele>65.51</ele>
        <time>2013-05-19T08:57:01Z</time>
      </trkpt>
      <trkpt lat="48.6752" lon="-3.41935">
        <ele>65.03</ele>
        <time>2013-05-19T08:57:02Z</time>
      </trkpt>
      <trkpt lat="48.67513" lon="-3.41938">
        <ele>64.55</ele>
        <time>2013-05-19T08:57:03Z</time>
      </trkpt>
      <trkpt lat="48.67506" lon="-3.41937">
        <ele>64.07</ele>
        <time>2013-05-19T08:57:04Z</time>
      </trkpt>
      <trkpt lat="48.675" lon="-3.41931">
        <ele>63.58</ele>
        <time>2013-05-19T08:57:05Z</time>
      </trkpt>
      <trkpt lat="48.67494" lon="-3.41923">
        <ele>63.58</ele>
        <time>2013-05-19T08:57:06Z</time>
      </trkpt>
      <trkpt lat="48.6749" lon="-3.41913">
        <ele>63.1</ele>
        <time>2013-05-19T08:57:07Z</time>
      </trkpt>
      <trkpt lat="48.67487" lon="-3.41903">
        <ele>62.62</ele>
        <time>2013-05-19T08:57:08Z</time>
      </trkpt>
      <trkpt lat="48.67485" lon="-3.41893">
        <ele>62.62</ele>
        <time>2013-05-19T08:57:09Z</time>
      </trkpt>
      <trkpt lat="48.67478" lon="-3.41836">
        <ele>60.7</ele>
        <time>2013-05-19T08:57:16Z</time>
      </trkpt>
      <trkpt lat="48.67478" lon="-3.41829">
        <ele>60.22</ele>
        <time>2013-05-19T08:57:17Z</time>
      </trkpt>
      <trkpt lat="48.67479" lon="-3.41822">
        <ele>59.74</ele>
        <time>2013-05-19T08:57:18Z</time>
      </trkpt>
      <trkpt lat="48.67481" lon="-3.41816">
        <ele>59.26</ele>
        <time>2013-05-19T08:57:19Z</time>
      </trkpt>
      <trkpt lat="48.67483" lon="-3.4181">
        <ele>58.78</ele>
        <time>2013-05-19T08:57:20Z</time>
      </trkpt>
      <trkpt lat="48.67484" lon="-3.41804">
        <ele>58.3</ele>
        <time>2013-05-19T08:57:21Z</time>
      </trkpt>
      <trkpt lat="48.6749" lon="-3.41789">
        <ele>57.34</ele>
        <time>2013-05-19T08:57:23Z</time>
      </trkpt>
      <trkpt lat="48.67511" lon="-3.41734">
        <ele>53.97</ele>
        <time>2013-05-19T08:57:27Z</time>
      </trkpt>
      <trkpt lat="48.67529" lon="-3.41665">
        <ele>51.09</ele>
        <time>2013-05-19T08:57:33Z</time>
      </trkpt>
      <trkpt lat="48.67543" lon="-3.41566">
        <ele>47.72</ele>
        <time>2013-05-19T08:57:40Z</time>
      </trkpt>
      <trkpt lat="48.67551" lon="-3.41504">
        <ele>44.36</ele>
        <time>2013-05-19T08:57:45Z</time>
      </trkpt>
      <trkpt lat="48.67552" lon="-3.41487">
        <ele>42.92</ele>
        <time>2013-05-19T08:57:47Z</time>
      </trkpt>
      <trkpt lat="48.67552" lon="-3.4148">
        <ele>42.44</ele>
        <time>2013-05-19T08:57:48Z</time>
      </trkpt>
      <trkpt lat="48.67551" lon="-3.41474">
        <ele>42.44</ele>
        <time>2013-05-19T08:57:49Z</time>
      </trkpt>
      <trkpt lat="48.67548" lon="-3.4147">
        <ele>41.95</ele>
        <time>2013-05-19T08:57:50Z</time>
      </trkpt>
      <trkpt lat="48.67545" lon="-3.41468">
        <ele>41.95</ele>
        <time>2013-05-19T08:57:51Z</time>
      </trkpt>
      <trkpt lat="48.67542" lon="-3.41467">
        <ele>40.99</ele>
        <time>2013-05-19T08:57:52Z</time>
      </trkpt>
      <trkpt lat="48.67539" lon="-3.41468">
        <ele>40.51</ele>
        <time>2013-05-19T08:57:53Z</time>
      </trkpt>
      <trkpt lat="48.67535" lon="-3.41469">
        <ele>40.03</ele>
        <time>2013-05-19T08:57:54Z</time>
      </trkpt>
      <trkpt lat="48.6753" lon="-3.41471">
        <ele>39.55</ele>
        <time>2013-05-19T08:57:55Z</time>
      </trkpt>
      <trkpt lat="48.67523" lon="-3.41474">
        <ele>39.07</ele>
        <time>2013-05-19T08:57:56Z</time>
      </trkpt>
      <trkpt lat="48.67478" lon="-3.415">
        <ele>35.71</ele>
        <time>2013-05-19T08:58:02Z</time>
      </trkpt>
      <trkpt lat="48.67463" lon="-3.41509">
        <ele>34.74</ele>
        <time>2013-05-19T08:58:04Z</time>
      </trkpt>
      <trkpt lat="48.67456" lon="-3.41511">
        <ele>34.26</ele>
        <time>2013-05-19T08:58:05Z</time>
      </trkpt>
      <trkpt lat="48.6745" lon="-3.4151">
        <ele>34.74</ele>
        <time>2013-05-19T08:58:06Z</time>
      </trkpt>
      <trkpt lat="48.67444" lon="-3.41506">
        <ele>33.78</ele>
        <time>2013-05-19T08:58:07Z</time>
      </trkpt>
      <trkpt lat="48.67438" lon="-3.41499">
        <ele>33.78</ele>
        <time>2013-05-19T08:58:08Z</time>
      </trkpt>
      <trkpt lat="48.6743" lon="-3.41492">
        <ele>33.3</ele>
        <time>2013-05-19T08:58:09Z</time>
      </trkpt>
      <trkpt lat="48.67424" lon="-3.41485">
        <ele>33.78</ele>
        <time>2013-05-19T08:58:10Z</time>
      </trkpt>
      <trkpt lat="48.67414" lon="-3.41469">
        <ele>33.78</ele>
        <time>2013-05-19T08:58:12Z</time>
      </trkpt>
      <trkpt lat="48.67412" lon="-3.41451">
        <ele>33.78</ele>
        <time>2013-05-19T08:58:14Z</time>
      </trkpt>
      <trkpt lat="48.67414" lon="-3.41444">
        <ele>33.3</ele>
        <time>2013-05-19T08:58:15Z</time>
      </trkpt>
      <trkpt lat="48.67417" lon="-3.41436">
        <ele>33.78</ele>
        <time>2013-05-19T08:58:16Z</time>
      </trkpt>
      <trkpt lat="48.6742" lon="-3.4143">
        <ele>33.78</ele>
        <time>2013-05-19T08:58:17Z</time>
      </trkpt>
      <trkpt lat="48.67423" lon="-3.41424">
        <ele>34.26</ele>
        <time>2013-05-19T08:58:18Z</time>
      </trkpt>
      <trkpt lat="48.67455" lon="-3.41372">
        <ele>37.15</ele>
        <time>2013-05-19T08:58:29Z</time>
      </trkpt>
      <trkpt lat="48.67479" lon="-3.41332">
        <ele>40.51</ele>
        <time>2013-05-19T08:58:40Z</time>
      </trkpt>
      <trkpt lat="48.675" lon="-3.41299">
        <ele>43.4</ele>
        <time>2013-05-19T08:58:49Z</time>
      </trkpt>
      <trkpt lat="48.67531" lon="-3.4126">
        <ele>46.76</ele>
        <time>2013-05-19T08:58:59Z</time>
      </trkpt>
      <trkpt lat="48.67558" lon="-3.41219">
        <ele>49.65</ele>
        <time>2013-05-19T08:59:10Z</time>
      </trkpt>
      <trkpt lat="48.67582" lon="-3.41159">
        <ele>53.01</ele>
        <time>2013-05-19T08:59:21Z</time>
      </trkpt>
      <trkpt lat="48.6759" lon="-3.41128">
        <ele>54.93</ele>
        <time>2013-05-19T08:59:27Z</time>
      </trkpt>
      <trkpt lat="48.67589" lon="-3.41123">
        <ele>54.93</ele>
        <time>2013-05-19T08:59:28Z</time>
      </trkpt>
      <trkpt lat="48.67586" lon="-3.41119">
        <ele>55.89</ele>
        <time>2013-05-19T08:59:29Z</time>
      </trkpt>
      <trkpt lat="48.67583" lon="-3.41116">
        <ele>55.41</ele>
        <time>2013-05-19T08:59:30Z</time>
      </trkpt>
      <trkpt lat="48.6758" lon="-3.41113">
        <ele>55.89</ele>
        <time>2013-05-19T08:59:31Z</time>
      </trkpt>
      <trkpt lat="48.67577" lon="-3.41112">
        <ele>56.37</ele>
        <time>2013-05-19T08:59:32Z</time>
      </trkpt>
      <trkpt lat="48.67573" lon="-3.4111">
        <ele>55.89</ele>
        <time>2013-05-19T08:59:33Z</time>
      </trkpt>
      <trkpt lat="48.6757" lon="-3.41108">
        <ele>56.37</ele>
        <time>2013-05-19T08:59:34Z</time>
      </trkpt>
      <trkpt lat="48.67567" lon="-3.41106">
        <ele>56.86</ele>
        <time>2013-05-19T08:59:35Z</time>
      </trkpt>
      <trkpt lat="48.67564" lon="-3.41103">
        <ele>56.86</ele>
        <time>2013-05-19T08:59:36Z</time>
      </trkpt>
      <trkpt lat="48.67529" lon="-3.41057">
        <ele>59.26</ele>
        <time>2013-05-19T08:59:50Z</time>
      </trkpt>
      <trkpt lat="48.67489" lon="-3.40985">
        <ele>62.14</ele>
        <time>2013-05-19T09:00:05Z</time>
      </trkpt>
      <trkpt lat="48.6744" lon="-3.40933">
        <ele>62.62</ele>
        <time>2013-05-19T09:00:17Z</time>
      </trkpt>
      <trkpt lat="48.67393" lon="-3.40888">
        <ele>65.03</ele>
        <time>2013-05-19T09:00:29Z</time>
      </trkpt>
      <trkpt lat="48.67378" lon="-3.40843">
        <ele>67.91</ele>
        <time>2013-05-19T09:00:38Z</time>
      </trkpt>
      <trkpt lat="48.6738" lon="-3.40802">
        <ele>71.27</ele>
        <time>2013-05-19T09:00:46Z</time>
      </trkpt>
      <trkpt lat="48.67384" lon="-3.40786">
        <ele>72.72</ele>
        <time>2013-05-19T09:00:49Z</time>
      </trkpt>
      <trkpt lat="48.67391" lon="-3.40738">
        <ele>75.12</ele>
        <time>2013-05-19T09:00:58Z</time>
      </trkpt>
      <trkpt lat="48.67389" lon="-3.40642">
        <ele>77.04</ele>
        <time>2013-05-19T09:01:13Z</time>
      </trkpt>
      <trkpt lat="48.67386" lon="-3.40597">
        <ele>78</ele>
        <time>2013-05-19T09:01:20Z</time>
      </trkpt>
      <trkpt lat="48.67377" lon="-3.40551">
        <ele>79.45</ele>
        <time>2013-05-19T09:01:27Z</time>
      </trkpt>
      <trkpt lat="48.67371" lon="-3.40518">
        <ele>80.41</ele>
        <time>2013-05-19T09:01:32Z</time>
      </trkpt>
      <trkpt lat="48.67368" lon="-3.40484">
        <ele>80.89</ele>
        <time>2013-05-19T09:01:37Z</time>
      </trkpt>
      <trkpt lat="48.67369" lon="-3.4047">
        <ele>80.89</ele>
        <time>2013-05-19T09:01:39Z</time>
      </trkpt>
      <trkpt lat="48.67381" lon="-3.40392">
        <ele>83.29</ele>
        <time>2013-05-19T09:01:51Z</time>
      </trkpt>
      <trkpt lat="48.67391" lon="-3.40306">
        <ele>84.25</ele>
        <time>2013-05-19T09:02:04Z</time>
      </trkpt>
      <trkpt lat="48.67388" lon="-3.4028">
        <ele>84.73</ele>
        <time>2013-05-19T09:02:08Z</time>
      </trkpt>
      <trkpt lat="48.67387" lon="-3.40273">
        <ele>84.25</ele>
        <time>2013-05-19T09:02:09Z</time>
      </trkpt>
      <trkpt lat="48.67384" lon="-3.40267">
        <ele>84.73</ele>
        <time>2013-05-19T09:02:10Z</time>
      </trkpt>
      <trkpt lat="48.67381" lon="-3.40261">
        <ele>84.73</ele>
        <time>2013-05-19T09:02:11Z</time>
      </trkpt>
      <trkpt lat="48.67378" lon="-3.40256">
        <ele>85.21</ele>
        <time>2013-05-19T09:02:12Z</time>
      </trkpt>
      <trkpt lat="48.67374" lon="-3.40253">
        <ele>85.21</ele>
        <time>2013-05-19T09:02:13Z</time>
      </trkpt>
      <trkpt lat="48.6737" lon="-3.4025">
        <ele>85.21</ele>
        <time>2013-05-19T09:02:14Z</time>
      </trkpt>
      <trkpt lat="48.67317" lon="-3.40213">
        <ele>87.14</ele>
        <time>2013-05-19T09:02:27Z</time>
      </trkpt>
      <trkpt lat="48.67278" lon="-3.40174">
        <ele>89.06</ele>
        <time>2013-05-19T09:02:38Z</time>
      </trkpt>
      <trkpt lat="48.67254" lon="-3.40143">
        <ele>89.54</ele>
        <time>2013-05-19T09:02:45Z</time>
      </trkpt>
      <trkpt lat="48.67222" lon="-3.401">
        <ele>91.94</ele>
        <time>2013-05-19T09:02:54Z</time>
      </trkpt>
      <trkpt lat="48.67177" lon="-3.40025">
        <ele>94.35</ele>
        <time>2013-05-19T09:03:09Z</time>
      </trkpt>
      <trkpt lat="48.67148" lon="-3.39922">
        <ele>96.27</ele>
        <time>2013-05-19T09:03:25Z</time>
      </trkpt>
      <trkpt lat="48.67138" lon="-3.39829">
        <ele>96.27</ele>
        <time>2013-05-19T09:03:37Z</time>
      </trkpt>
      <trkpt lat="48.67135" lon="-3.39813">
        <ele>96.75</ele>
        <time>2013-05-19T09:03:39Z</time>
      </trkpt>
      <trkpt lat="48.67132" lon="-3.39805">
        <ele>96.75</ele>
        <time>2013-05-19T09:03:40Z</time>
      </trkpt>
      <trkpt lat="48.67124" lon="-3.39783">
        <ele>96.75</ele>
        <time>2013-05-19T09:03:43Z</time>
      </trkpt>
      <trkpt lat="48.67056" lon="-3.39708">
        <ele>97.71</ele>
        <time>2013-05-19T09:03:58Z</time>
      </trkpt>
      <trkpt lat="48.67014" lon="-3.39686">
        <ele>99.63</ele>
        <time>2013-05-19T09:04:07Z</time>
      </trkpt>
      <trkpt lat="48.6701" lon="-3.39685">
        <ele>99.15</ele>
        <time>2013-05-19T09:04:08Z</time>
      </trkpt>
      <trkpt lat="48.67001" lon="-3.39682">
        <ele>98.67</ele>
        <time>2013-05-19T09:04:11Z</time>
      </trkpt>
      <trkpt lat="48.67001" lon="-3.39679">
        <ele>99.15</ele>
        <time>2013-05-19T09:04:12Z</time>
      </trkpt>
      <trkpt lat="48.67002" lon="-3.39677">
        <ele>98.67</ele>
        <time>2013-05-19T09:04:13Z</time>
      </trkpt>
      <trkpt lat="48.67004" lon="-3.39676">
        <ele>98.67</ele>
        <time>2013-05-19T09:04:14Z</time>
      </trkpt>
      <trkpt lat="48.67006" lon="-3.39675">
        <ele>98.67</ele>
        <time>2013-05-19T09:04:15Z</time>
      </trkpt>
      <trkpt lat="48.67007" lon="-3.39672">
        <ele>99.15</ele>
        <time>2013-05-19T09:04:16Z</time>
      </trkpt>
      <trkpt lat="48.67009" lon="-3.39667">
        <ele>98.67</ele>
        <time>2013-05-19T09:04:17Z</time>
      </trkpt>
      <trkpt lat="48.67009" lon="-3.3966">
        <ele>99.15</ele>
        <time>2013-05-19T09:04:18Z</time>
      </trkpt>
      <trkpt lat="48.6701" lon="-3.39654">
        <ele>98.67</ele>
        <time>2013-05-19T09:04:19Z</time>
      </trkpt>
      <trkpt lat="48.67003" lon="-3.39577">
        <ele>98.19</ele>
        <time>2013-05-19T09:04:31Z</time>
      </trkpt>
      <trkpt lat="48.66999" lon="-3.39575">
        <ele>98.67</ele>
        <time>2013-05-19T09:04:32Z</time>
      </trkpt>
      <trkpt lat="48.66995" lon="-3.39575">
        <ele>99.15</ele>
        <time>2013-05-19T09:04:33Z</time>
      </trkpt>
      <trkpt lat="48.66991" lon="-3.39575">
        <ele>99.15</ele>
        <time>2013-05-19T09:04:34Z</time>
      </trkpt>
      <trkpt lat="48.66986" lon="-3.39575">
        <ele>98.67</ele>
        <time>2013-05-19T09:04:35Z</time>
      </trkpt>
      <trkpt lat="48.66966" lon="-3.39579">
        <ele>99.15</ele>
        <time>2013-05-19T09:04:39Z</time>
      </trkpt>
      <trkpt lat="48.6696" lon="-3.39581">
        <ele>99.15</ele>
        <time>2013-05-19T09:04:40Z</time>
      </trkpt>
      <trkpt lat="48.66895" lon="-3.39614">
        <ele>101.08</ele>
        <time>2013-05-19T09:04:52Z</time>
      </trkpt>
      <trkpt lat="48.6689" lon="-3.39618">
        <ele>100.6</ele>
        <time>2013-05-19T09:04:53Z</time>
      </trkpt>
      <trkpt lat="48.66885" lon="-3.39623">
        <ele>101.08</ele>
        <time>2013-05-19T09:04:54Z</time>
      </trkpt>
      <trkpt lat="48.66881" lon="-3.39629">
        <ele>101.08</ele>
        <time>2013-05-19T09:04:55Z</time>
      </trkpt>
      <trkpt lat="48.66877" lon="-3.39635">
        <ele>101.08</ele>
        <time>2013-05-19T09:04:56Z</time>
      </trkpt>
      <trkpt lat="48.66873" lon="-3.39642">
        <ele>101.08</ele>
        <time>2013-05-19T09:04:57Z</time>
      </trkpt>
      <trkpt lat="48.66871" lon="-3.3965">
        <ele>101.56</ele>
        <time>2013-05-19T09:04:58Z</time>
      </trkpt>
      <trkpt lat="48.66868" lon="-3.39657">
        <ele>101.56</ele>
        <time>2013-05-19T09:04:59Z</time>
      </trkpt>
      <trkpt lat="48.66866" lon="-3.39665">
        <ele>101.56</ele>
        <time>2013-05-19T09:05:00Z</time>
      </trkpt>
      <trkpt lat="48.66864" lon="-3.39673">
        <ele>101.56</ele>
        <time>2013-05-19T09:05:01Z</time>
      </trkpt>
      <trkpt lat="48.66857" lon="-3.39687">
        <ele>101.56</ele>
        <time>2013-05-19T09:05:03Z</time>
      </trkpt>
      <trkpt lat="48.66853" lon="-3.39693">
        <ele>101.56</ele>
        <time>2013-05-19T09:05:04Z</time>
      </trkpt>
      <trkpt lat="48.66849" lon="-3.39698">
        <ele>102.04</ele>
        <time>2013-05-19T09:05:05Z</time>
      </trkpt>
      <trkpt lat="48.66844" lon="-3.39703">
        <ele>101.56</ele>
        <time>2013-05-19T09:05:06Z</time>
      </trkpt>
      <trkpt lat="48.6684" lon="-3.39706">
        <ele>102.04</ele>
        <time>2013-05-19T09:05:07Z</time>
      </trkpt>
      <trkpt lat="48.66835" lon="-3.39709">
        <ele>101.56</ele>
        <time>2013-05-19T09:05:08Z</time>
      </trkpt>
      <trkpt lat="48.6683" lon="-3.39711">
        <ele>102.52</ele>
        <time>2013-05-19T09:05:09Z</time>
      </trkpt>
      <trkpt lat="48.66758" lon="-3.39729">
        <ele>104.44</ele>
        <time>2013-05-19T09:05:22Z</time>
      </trkpt>
      <trkpt lat="48.66675" lon="-3.39741">
        <ele>106.84</ele>
        <time>2013-05-19T09:05:37Z</time>
      </trkpt>
      <trkpt lat="48.6667" lon="-3.3974">
        <ele>107.32</ele>
        <time>2013-05-19T09:05:38Z</time>
      </trkpt>
      <trkpt lat="48.66584" lon="-3.39712">
        <ele>109.73</ele>
        <time>2013-05-19T09:05:53Z</time>
      </trkpt>
      <trkpt lat="48.66557" lon="-3.39708">
        <ele>110.69</ele>
        <time>2013-05-19T09:05:57Z</time>
      </trkpt>
      <trkpt lat="48.66458" lon="-3.39709">
        <ele>111.65</ele>
        <time>2013-05-19T09:06:14Z</time>
      </trkpt>
      <trkpt lat="48.6637" lon="-3.39703">
        <ele>112.61</ele>
        <time>2013-05-19T09:06:28Z</time>
      </trkpt>
      <trkpt lat="48.66253" lon="-3.39661">
        <ele>113.09</ele>
        <time>2013-05-19T09:06:47Z</time>
      </trkpt>
      <trkpt lat="48.66167" lon="-3.39623">
        <ele>112.61</ele>
        <time>2013-05-19T09:07:00Z</time>
      </trkpt>
      <trkpt lat="48.66068" lon="-3.39588">
        <ele>112.13</ele>
        <time>2013-05-19T09:07:15Z</time>
      </trkpt>
      <trkpt lat="48.65953" lon="-3.39541">
        <ele>112.13</ele>
        <time>2013-05-19T09:07:32Z</time>
      </trkpt>
      <trkpt lat="48.6584" lon="-3.39494">
        <ele>111.65</ele>
        <time>2013-05-19T09:07:49Z</time>
      </trkpt>
      <trkpt lat="48.65722" lon="-3.39479">
        <ele>112.13</ele>
        <time>2013-05-19T09:08:06Z</time>
      </trkpt>
      <trkpt lat="48.65611" lon="-3.39477">
        <ele>112.61</ele>
        <time>2013-05-19T09:08:22Z</time>
      </trkpt>
      <trkpt lat="48.65522" lon="-3.3948">
        <ele>112.13</ele>
        <time>2013-05-19T09:08:35Z</time>
      </trkpt>
      <trkpt lat="48.65444" lon="-3.39502">
        <ele>112.61</ele>
        <time>2013-05-19T09:08:47Z</time>
      </trkpt>
      <trkpt lat="48.65326" lon="-3.39478">
        <ele>112.61</ele>
        <time>2013-05-19T09:09:04Z</time>
      </trkpt>
      <trkpt lat="48.65208" lon="-3.39451">
        <ele>113.09</ele>
        <time>2013-05-19T09:09:21Z</time>
      </trkpt>
      <trkpt lat="48.65101" lon="-3.39423">
        <ele>114.53</ele>
        <time>2013-05-19T09:09:37Z</time>
      </trkpt>
      <trkpt lat="48.65007" lon="-3.39405">
        <ele>115.01</ele>
        <time>2013-05-19T09:09:53Z</time>
      </trkpt>
      <trkpt lat="48.64989" lon="-3.39414">
        <ele>115.01</ele>
        <time>2013-05-19T09:09:58Z</time>
      </trkpt>
      <trkpt lat="48.64986" lon="-3.3942">
        <ele>115.01</ele>
        <time>2013-05-19T09:09:59Z</time>
      </trkpt>
      <trkpt lat="48.64944" lon="-3.39511">
        <ele>115.98</ele>
        <time>2013-05-19T09:10:12Z</time>
      </trkpt>
      <trkpt lat="48.64904" lon="-3.39587">
        <ele>114.53</ele>
        <time>2013-05-19T09:10:25Z</time>
      </trkpt>
      <trkpt lat="48.6487" lon="-3.39652">
        <ele>114.53</ele>
        <time>2013-05-19T09:10:35Z</time>
      </trkpt>
      <trkpt lat="48.64806" lon="-3.39768">
        <ele>113.09</ele>
        <time>2013-05-19T09:10:50Z</time>
      </trkpt>
      <trkpt lat="48.64749" lon="-3.39872">
        <ele>112.13</ele>
        <time>2013-05-19T09:11:03Z</time>
      </trkpt>
      <trkpt lat="48.64688" lon="-3.40022">
        <ele>110.21</ele>
        <time>2013-05-19T09:11:20Z</time>
      </trkpt>
      <trkpt lat="48.64678" lon="-3.40181">
        <ele>108.29</ele>
        <time>2013-05-19T09:11:35Z</time>
      </trkpt>
      <trkpt lat="48.64705" lon="-3.40341">
        <ele>107.81</ele>
        <time>2013-05-19T09:11:52Z</time>
      </trkpt>
      <trkpt lat="48.64725" lon="-3.40389">
        <ele>107.32</ele>
        <time>2013-05-19T09:11:58Z</time>
      </trkpt>
      <trkpt lat="48.64742" lon="-3.4044">
        <ele>107.81</ele>
        <time>2013-05-19T09:12:05Z</time>
      </trkpt>
      <trkpt lat="48.64752" lon="-3.4046">
        <ele>108.77</ele>
        <time>2013-05-19T09:12:08Z</time>
      </trkpt>
      <trkpt lat="48.6479" lon="-3.40562">
        <ele>108.29</ele>
        <time>2013-05-19T09:12:21Z</time>
      </trkpt>
      <trkpt lat="48.64809" lon="-3.40615">
        <ele>107.32</ele>
        <time>2013-05-19T09:12:28Z</time>
      </trkpt>
      <trkpt lat="48.64811" lon="-3.40621">
        <ele>107.32</ele>
        <time>2013-05-19T09:12:29Z</time>
      </trkpt>
      <trkpt lat="48.64813" lon="-3.40626">
        <ele>107.32</ele>
        <time>2013-05-19T09:12:30Z</time>
      </trkpt>
      <trkpt lat="48.64814" lon="-3.40628">
        <ele>106.84</ele>
        <time>2013-05-19T09:12:31Z</time>
      </trkpt>
      <trkpt lat="48.64814" lon="-3.40629">
        <ele>106.36</ele>
        <time>2013-05-19T09:12:42Z</time>
      </trkpt>
      <trkpt lat="48.64814" lon="-3.40632">
        <ele>105.88</ele>
        <time>2013-05-19T09:12:57Z</time>
      </trkpt>
      <trkpt lat="48.64813" lon="-3.40633">
        <ele>105.88</ele>
        <time>2013-05-19T09:13:26Z</time>
      </trkpt>
      <trkpt lat="48.64813" lon="-3.40634">
        <ele>105.88</ele>
        <time>2013-05-19T09:13:50Z</time>
      </trkpt>
      <trkpt lat="48.64813" lon="-3.40633">
        <ele>105.4</ele>
        <time>2013-05-19T09:14:07Z</time>
      </trkpt>
      <trkpt lat="48.64813" lon="-3.40635">
        <ele>106.36</ele>
        <time>2013-05-19T09:14:14Z</time>
      </trkpt>
      <trkpt lat="48.64813" lon="-3.40636">
        <ele>106.36</ele>
        <time>2013-05-19T09:14:15Z</time>
      </trkpt>
      <trkpt lat="48.64814" lon="-3.40638">
        <ele>106.36</ele>
        <time>2013-05-19T09:14:16Z</time>
      </trkpt>
      <trkpt lat="48.64818" lon="-3.40653">
        <ele>106.84</ele>
        <time>2013-05-19T09:14:21Z</time>
      </trkpt>
      <trkpt lat="48.64825" lon="-3.40762">
        <ele>108.29</ele>
        <time>2013-05-19T09:14:34Z</time>
      </trkpt>
      <trkpt lat="48.64817" lon="-3.40932">
        <ele>107.81</ele>
        <time>2013-05-19T09:14:53Z</time>
      </trkpt>
      <trkpt lat="48.64817" lon="-3.40951">
        <ele>107.81</ele>
        <time>2013-05-19T09:14:55Z</time>
      </trkpt>
      <trkpt lat="48.64817" lon="-3.41103">
        <ele>106.36</ele>
        <time>2013-05-19T09:15:11Z</time>
      </trkpt>
      <trkpt lat="48.64833" lon="-3.41228">
        <ele>104.92</ele>
        <time>2013-05-19T09:15:24Z</time>
      </trkpt>
      <trkpt lat="48.64861" lon="-3.41294">
        <ele>102.52</ele>
        <time>2013-05-19T09:15:31Z</time>
      </trkpt>
      <trkpt lat="48.64878" lon="-3.41319">
        <ele>101.08</ele>
        <time>2013-05-19T09:15:34Z</time>
      </trkpt>
      <trkpt lat="48.64885" lon="-3.41326">
        <ele>101.08</ele>
        <time>2013-05-19T09:15:35Z</time>
      </trkpt>
      <trkpt lat="48.64936" lon="-3.41376">
        <ele>97.71</ele>
        <time>2013-05-19T09:15:42Z</time>
      </trkpt>
      <trkpt lat="48.64957" lon="-3.41401">
        <ele>96.27</ele>
        <time>2013-05-19T09:15:45Z</time>
      </trkpt>
      <trkpt lat="48.64962" lon="-3.41411">
        <ele>95.79</ele>
        <time>2013-05-19T09:15:46Z</time>
      </trkpt>
      <trkpt lat="48.64968" lon="-3.41421">
        <ele>95.79</ele>
        <time>2013-05-19T09:15:47Z</time>
      </trkpt>
      <trkpt lat="48.6498" lon="-3.41455">
        <ele>94.83</ele>
        <time>2013-05-19T09:15:50Z</time>
      </trkpt>
      <trkpt lat="48.64992" lon="-3.41518">
        <ele>92.9</ele>
        <time>2013-05-19T09:15:55Z</time>
      </trkpt>
      <trkpt lat="48.64992" lon="-3.4156">
        <ele>89.54</ele>
        <time>2013-05-19T09:15:58Z</time>
      </trkpt>
      <trkpt lat="48.6499" lon="-3.41586">
        <ele>87.14</ele>
        <time>2013-05-19T09:16:00Z</time>
      </trkpt>
      <trkpt lat="48.64988" lon="-3.41598">
        <ele>87.14</ele>
        <time>2013-05-19T09:16:01Z</time>
      </trkpt>
      <trkpt lat="48.64985" lon="-3.41611">
        <ele>86.18</ele>
        <time>2013-05-19T09:16:02Z</time>
      </trkpt>
      <trkpt lat="48.64978" lon="-3.41637">
        <ele>85.21</ele>
        <time>2013-05-19T09:16:04Z</time>
      </trkpt>
      <trkpt lat="48.64961" lon="-3.41706">
        <ele>81.37</ele>
        <time>2013-05-19T09:16:09Z</time>
      </trkpt>
      <trkpt lat="48.64959" lon="-3.4172">
        <ele>81.37</ele>
        <time>2013-05-19T09:16:10Z</time>
      </trkpt>
      <trkpt lat="48.64958" lon="-3.41748">
        <ele>80.41</ele>
        <time>2013-05-19T09:16:12Z</time>
      </trkpt>
      <trkpt lat="48.64958" lon="-3.41762">
        <ele>79.93</ele>
        <time>2013-05-19T09:16:13Z</time>
      </trkpt>
      <trkpt lat="48.64959" lon="-3.41776">
        <ele>79.45</ele>
        <time>2013-05-19T09:16:14Z</time>
      </trkpt>
      <trkpt lat="48.64961" lon="-3.4179">
        <ele>78.97</ele>
        <time>2013-05-19T09:16:15Z</time>
      </trkpt>
      <trkpt lat="48.64964" lon="-3.41804">
        <ele>78.48</ele>
        <time>2013-05-19T09:16:16Z</time>
      </trkpt>
      <trkpt lat="48.64966" lon="-3.41834">
        <ele>77.52</ele>
        <time>2013-05-19T09:16:18Z</time>
      </trkpt>
      <trkpt lat="48.64966" lon="-3.41849">
        <ele>77.04</ele>
        <time>2013-05-19T09:16:19Z</time>
      </trkpt>
      <trkpt lat="48.64964" lon="-3.41864">
        <ele>77.04</ele>
        <time>2013-05-19T09:16:20Z</time>
      </trkpt>
      <trkpt lat="48.64962" lon="-3.41878">
        <ele>76.08</ele>
        <time>2013-05-19T09:16:21Z</time>
      </trkpt>
      <trkpt lat="48.64958" lon="-3.41892">
        <ele>75.12</ele>
        <time>2013-05-19T09:16:22Z</time>
      </trkpt>
      <trkpt lat="48.64953" lon="-3.41906">
        <ele>74.64</ele>
        <time>2013-05-19T09:16:23Z</time>
      </trkpt>
      <trkpt lat="48.64948" lon="-3.41919">
        <ele>73.68</ele>
        <time>2013-05-19T09:16:24Z</time>
      </trkpt>
      <trkpt lat="48.64925" lon="-3.41972">
        <ele>69.83</ele>
        <time>2013-05-19T09:16:28Z</time>
      </trkpt>
      <trkpt lat="48.64899" lon="-3.42028">
        <ele>65.99</ele>
        <time>2013-05-19T09:16:32Z</time>
      </trkpt>
      <trkpt lat="48.64875" lon="-3.42085">
        <ele>64.07</ele>
        <time>2013-05-19T09:16:36Z</time>
      </trkpt>
      <trkpt lat="48.64855" lon="-3.42142">
        <ele>60.7</ele>
        <time>2013-05-19T09:16:40Z</time>
      </trkpt>
      <trkpt lat="48.64847" lon="-3.42185">
        <ele>58.78</ele>
        <time>2013-05-19T09:16:43Z</time>
      </trkpt>
      <trkpt lat="48.64847" lon="-3.422">
        <ele>57.82</ele>
        <time>2013-05-19T09:16:44Z</time>
      </trkpt>
      <trkpt lat="48.64847" lon="-3.42214">
        <ele>57.34</ele>
        <time>2013-05-19T09:16:45Z</time>
      </trkpt>
      <trkpt lat="48.64848" lon="-3.42228">
        <ele>56.86</ele>
        <time>2013-05-19T09:16:46Z</time>
      </trkpt>
      <trkpt lat="48.6485" lon="-3.42242">
        <ele>55.89</ele>
        <time>2013-05-19T09:16:47Z</time>
      </trkpt>
      <trkpt lat="48.64855" lon="-3.42254">
        <ele>55.41</ele>
        <time>2013-05-19T09:16:48Z</time>
      </trkpt>
      <trkpt lat="48.64861" lon="-3.42266">
        <ele>54.93</ele>
        <time>2013-05-19T09:16:49Z</time>
      </trkpt>
      <trkpt lat="48.64868" lon="-3.42277">
        <ele>54.45</ele>
        <time>2013-05-19T09:16:50Z</time>
      </trkpt>
      <trkpt lat="48.64876" lon="-3.42288">
        <ele>53.01</ele>
        <time>2013-05-19T09:16:51Z</time>
      </trkpt>
      <trkpt lat="48.64884" lon="-3.42297">
        <ele>53.01</ele>
        <time>2013-05-19T09:16:52Z</time>
      </trkpt>
      <trkpt lat="48.6493" lon="-3.42353">
        <ele>49.65</ele>
        <time>2013-05-19T09:16:58Z</time>
      </trkpt>
      <trkpt lat="48.64951" lon="-3.42385">
        <ele>48.2</ele>
        <time>2013-05-19T09:17:01Z</time>
      </trkpt>
      <trkpt lat="48.64957" lon="-3.42398">
        <ele>47.24</ele>
        <time>2013-05-19T09:17:02Z</time>
      </trkpt>
      <trkpt lat="48.64981" lon="-3.42497">
        <ele>43.88</ele>
        <time>2013-05-19T09:17:09Z</time>
      </trkpt>
      <trkpt lat="48.64994" lon="-3.42613">
        <ele>40.51</ele>
        <time>2013-05-19T09:17:17Z</time>
      </trkpt>
      <trkpt lat="48.65" lon="-3.42638">
        <ele>40.03</ele>
        <time>2013-05-19T09:17:19Z</time>
      </trkpt>
      <trkpt lat="48.65003" lon="-3.42649">
        <ele>40.03</ele>
        <time>2013-05-19T09:17:20Z</time>
      </trkpt>
      <trkpt lat="48.65008" lon="-3.4266">
        <ele>40.51</ele>
        <time>2013-05-19T09:17:21Z</time>
      </trkpt>
      <trkpt lat="48.65012" lon="-3.42669">
        <ele>40.03</ele>
        <time>2013-05-19T09:17:22Z</time>
      </trkpt>
      <trkpt lat="48.65018" lon="-3.42677">
        <ele>40.03</ele>
        <time>2013-05-19T09:17:23Z</time>
      </trkpt>
      <trkpt lat="48.65023" lon="-3.42684">
        <ele>40.03</ele>
        <time>2013-05-19T09:17:24Z</time>
      </trkpt>
      <trkpt lat="48.65035" lon="-3.42697">
        <ele>40.03</ele>
        <time>2013-05-19T09:17:26Z</time>
      </trkpt>
      <trkpt lat="48.65041" lon="-3.42701">
        <ele>40.03</ele>
        <time>2013-05-19T09:17:27Z</time>
      </trkpt>
      <trkpt lat="48.65077" lon="-3.42711">
        <ele>41.95</ele>
        <time>2013-05-19T09:17:33Z</time>
      </trkpt>
      <trkpt lat="48.65082" lon="-3.42709">
        <ele>41.95</ele>
        <time>2013-05-19T09:17:34Z</time>
      </trkpt>
      <trkpt lat="48.65087" lon="-3.42708">
        <ele>42.44</ele>
        <time>2013-05-19T09:17:35Z</time>
      </trkpt>
      <trkpt lat="48.65092" lon="-3.42707">
        <ele>42.92</ele>
        <time>2013-05-19T09:17:36Z</time>
      </trkpt>
      <trkpt lat="48.65097" lon="-3.42706">
        <ele>42.92</ele>
        <time>2013-05-19T09:17:37Z</time>
      </trkpt>
      <trkpt lat="48.65101" lon="-3.42704">
        <ele>43.4</ele>
        <time>2013-05-19T09:17:38Z</time>
      </trkpt>
      <trkpt lat="48.65106" lon="-3.42702">
        <ele>43.4</ele>
        <time>2013-05-19T09:17:39Z</time>
      </trkpt>
      <trkpt lat="48.65154" lon="-3.42689">
        <ele>46.76</ele>
        <time>2013-05-19T09:17:49Z</time>
      </trkpt>
      <trkpt lat="48.6516" lon="-3.42689">
        <ele>47.24</ele>
        <time>2013-05-19T09:17:50Z</time>
      </trkpt>
      <trkpt lat="48.65186" lon="-3.42685">
        <ele>47.72</ele>
        <time>2013-05-19T09:17:55Z</time>
      </trkpt>
      <trkpt lat="48.65191" lon="-3.42683">
        <ele>48.2</ele>
        <time>2013-05-19T09:17:56Z</time>
      </trkpt>
      <trkpt lat="48.65211" lon="-3.42672">
        <ele>49.65</ele>
        <time>2013-05-19T09:18:00Z</time>
      </trkpt>
      <trkpt lat="48.65235" lon="-3.42653">
        <ele>51.57</ele>
        <time>2013-05-19T09:18:06Z</time>
      </trkpt>
      <trkpt lat="48.65239" lon="-3.42649">
        <ele>51.57</ele>
        <time>2013-05-19T09:18:07Z</time>
      </trkpt>
      <trkpt lat="48.65242" lon="-3.42645">
        <ele>53.01</ele>
        <time>2013-05-19T09:18:08Z</time>
      </trkpt>
      <trkpt lat="48.65246" lon="-3.42641">
        <ele>52.53</ele>
        <time>2013-05-19T09:18:09Z</time>
      </trkpt>
      <trkpt lat="48.6525" lon="-3.42638">
        <ele>53.01</ele>
        <time>2013-05-19T09:18:10Z</time>
      </trkpt>
      <trkpt lat="48.65254" lon="-3.42635">
        <ele>53.01</ele>
        <time>2013-05-19T09:18:11Z</time>
      </trkpt>
      <trkpt lat="48.65257" lon="-3.42633">
        <ele>53.49</ele>
        <time>2013-05-19T09:18:12Z</time>
      </trkpt>
      <trkpt lat="48.65266" lon="-3.42629">
        <ele>53.97</ele>
        <time>2013-05-19T09:18:14Z</time>
      </trkpt>
      <trkpt lat="48.65271" lon="-3.42628">
        <ele>53.97</ele>
        <time>2013-05-19T09:18:15Z</time>
      </trkpt>
      <trkpt lat="48.65276" lon="-3.42628">
        <ele>54.45</ele>
        <time>2013-05-19T09:18:16Z</time>
      </trkpt>
      <trkpt lat="48.6528" lon="-3.42629">
        <ele>54.45</ele>
        <time>2013-05-19T09:18:17Z</time>
      </trkpt>
      <trkpt lat="48.65284" lon="-3.4263">
        <ele>54.93</ele>
        <time>2013-05-19T09:18:18Z</time>
      </trkpt>
      <trkpt lat="48.65288" lon="-3.4263">
        <ele>55.41</ele>
        <time>2013-05-19T09:18:19Z</time>
      </trkpt>
      <trkpt lat="48.65292" lon="-3.42629">
        <ele>55.41</ele>
        <time>2013-05-19T09:18:20Z</time>
      </trkpt>
      <trkpt lat="48.65296" lon="-3.42629">
        <ele>55.89</ele>
        <time>2013-05-19T09:18:21Z</time>
      </trkpt>
      <trkpt lat="48.65299" lon="-3.4263">
        <ele>56.37</ele>
        <time>2013-05-19T09:18:22Z</time>
      </trkpt>
      <trkpt lat="48.65303" lon="-3.42631">
        <ele>56.86</ele>
        <time>2013-05-19T09:18:23Z</time>
      </trkpt>
      <trkpt lat="48.65307" lon="-3.42633">
        <ele>56.86</ele>
        <time>2013-05-19T09:18:24Z</time>
      </trkpt>
      <trkpt lat="48.65325" lon="-3.42663">
        <ele>60.22</ele>
        <time>2013-05-19T09:18:32Z</time>
      </trkpt>
      <trkpt lat="48.65326" lon="-3.42676">
        <ele>60.7</ele>
        <time>2013-05-19T09:18:34Z</time>
      </trkpt>
      <trkpt lat="48.65329" lon="-3.42706">
        <ele>62.62</ele>
        <time>2013-05-19T09:18:38Z</time>
      </trkpt>
      <trkpt lat="48.65325" lon="-3.42775">
        <ele>65.51</ele>
        <time>2013-05-19T09:18:50Z</time>
      </trkpt>
      <trkpt lat="48.65324" lon="-3.42814">
        <ele>67.91</ele>
        <time>2013-05-19T09:18:58Z</time>
      </trkpt>
      <trkpt lat="48.65311" lon="-3.42889">
        <ele>71.27</ele>
        <time>2013-05-19T09:19:13Z</time>
      </trkpt>
      <trkpt lat="48.65291" lon="-3.42986">
        <ele>73.68</ele>
        <time>2013-05-19T09:19:31Z</time>
      </trkpt>
      <trkpt lat="48.65278" lon="-3.43053">
        <ele>76.08</ele>
        <time>2013-05-19T09:19:44Z</time>
      </trkpt>
      <trkpt lat="48.65267" lon="-3.43129">
        <ele>77.52</ele>
        <time>2013-05-19T09:19:56Z</time>
      </trkpt>
      <trkpt lat="48.65251" lon="-3.43212">
        <ele>80.41</ele>
        <time>2013-05-19T09:20:09Z</time>
      </trkpt>
      <trkpt lat="48.65241" lon="-3.43304">
        <ele>83.29</ele>
        <time>2013-05-19T09:20:23Z</time>
      </trkpt>
      <trkpt lat="48.65246" lon="-3.43379">
        <ele>86.18</ele>
        <time>2013-05-19T09:20:34Z</time>
      </trkpt>
      <trkpt lat="48.65251" lon="-3.43404">
        <ele>87.62</ele>
        <time>2013-05-19T09:20:38Z</time>
      </trkpt>
      <trkpt lat="48.65252" lon="-3.43411">
        <ele>87.62</ele>
        <time>2013-05-19T09:20:39Z</time>
      </trkpt>
      <trkpt lat="48.65292" lon="-3.43497">
        <ele>90.02</ele>
        <time>2013-05-19T09:20:54Z</time>
      </trkpt>
      <trkpt lat="48.65327" lon="-3.43542">
        <ele>90.98</ele>
        <time>2013-05-19T09:21:03Z</time>
      </trkpt>
      <trkpt lat="48.65368" lon="-3.43587">
        <ele>93.39</ele>
        <time>2013-05-19T09:21:14Z</time>
      </trkpt>
      <trkpt lat="48.65395" lon="-3.43618">
        <ele>94.83</ele>
        <time>2013-05-19T09:21:22Z</time>
      </trkpt>
      <trkpt lat="48.65398" lon="-3.43623">
        <ele>95.31</ele>
        <time>2013-05-19T09:21:23Z</time>
      </trkpt>
      <trkpt lat="48.65401" lon="-3.43628">
        <ele>95.31</ele>
        <time>2013-05-19T09:21:24Z</time>
      </trkpt>
      <trkpt lat="48.65411" lon="-3.43639">
        <ele>96.27</ele>
        <time>2013-05-19T09:21:27Z</time>
      </trkpt>
      <trkpt lat="48.65459" lon="-3.437">
        <ele>98.67</ele>
        <time>2013-05-19T09:21:40Z</time>
      </trkpt>
      <trkpt lat="48.65464" lon="-3.4371">
        <ele>99.63</ele>
        <time>2013-05-19T09:21:42Z</time>
      </trkpt>
      <trkpt lat="48.65467" lon="-3.43715">
        <ele>99.63</ele>
        <time>2013-05-19T09:21:43Z</time>
      </trkpt>
      <trkpt lat="48.6547" lon="-3.43721">
        <ele>100.11</ele>
        <time>2013-05-19T09:21:44Z</time>
      </trkpt>
      <trkpt lat="48.65473" lon="-3.43726">
        <ele>100.11</ele>
        <time>2013-05-19T09:21:45Z</time>
      </trkpt>
      <trkpt lat="48.65475" lon="-3.43731">
        <ele>100.11</ele>
        <time>2013-05-19T09:21:46Z</time>
      </trkpt>
      <trkpt lat="48.6548" lon="-3.43741">
        <ele>100.6</ele>
        <time>2013-05-19T09:21:48Z</time>
      </trkpt>
      <trkpt lat="48.65483" lon="-3.43747">
        <ele>101.08</ele>
        <time>2013-05-19T09:21:49Z</time>
      </trkpt>
      <trkpt lat="48.65491" lon="-3.43769">
        <ele>102.52</ele>
        <time>2013-05-19T09:21:53Z</time>
      </trkpt>
      <trkpt lat="48.65493" lon="-3.43774">
        <ele>103</ele>
        <time>2013-05-19T09:21:54Z</time>
      </trkpt>
      <trkpt lat="48.65495" lon="-3.4378">
        <ele>103</ele>
        <time>2013-05-19T09:21:55Z</time>
      </trkpt>
      <trkpt lat="48.65497" lon="-3.43787">
        <ele>103.48</ele>
        <time>2013-05-19T09:21:56Z</time>
      </trkpt>
      <trkpt lat="48.65499" lon="-3.43793">
        <ele>103.48</ele>
        <time>2013-05-19T09:21:57Z</time>
      </trkpt>
      <trkpt lat="48.655" lon="-3.43798">
        <ele>103.48</ele>
        <time>2013-05-19T09:21:58Z</time>
      </trkpt>
      <trkpt lat="48.65504" lon="-3.43809">
        <ele>103.96</ele>
        <time>2013-05-19T09:22:00Z</time>
      </trkpt>
      <trkpt lat="48.65507" lon="-3.43814">
        <ele>104.44</ele>
        <time>2013-05-19T09:22:01Z</time>
      </trkpt>
      <trkpt lat="48.65509" lon="-3.4382">
        <ele>104.92</ele>
        <time>2013-05-19T09:22:02Z</time>
      </trkpt>
      <trkpt lat="48.65511" lon="-3.43826">
        <ele>104.92</ele>
        <time>2013-05-19T09:22:03Z</time>
      </trkpt>
      <trkpt lat="48.65512" lon="-3.43832">
        <ele>104.92</ele>
        <time>2013-05-19T09:22:04Z</time>
      </trkpt>
      <trkpt lat="48.65514" lon="-3.43838">
        <ele>105.4</ele>
        <time>2013-05-19T09:22:05Z</time>
      </trkpt>
      <trkpt lat="48.65542" lon="-3.43921">
        <ele>108.29</ele>
        <time>2013-05-19T09:22:19Z</time>
      </trkpt>
      <trkpt lat="48.65574" lon="-3.44024">
        <ele>108.77</ele>
        <time>2013-05-19T09:22:35Z</time>
      </trkpt>
      <trkpt lat="48.65588" lon="-3.44138">
        <ele>108.29</ele>
        <time>2013-05-19T09:22:49Z</time>
      </trkpt>
      <trkpt lat="48.6559" lon="-3.44276">
        <ele>109.73</ele>
        <time>2013-05-19T09:23:05Z</time>
      </trkpt>
      <trkpt lat="48.6558" lon="-3.44396">
        <ele>110.21</ele>
        <time>2013-05-19T09:23:19Z</time>
      </trkpt>
      <trkpt lat="48.65579" lon="-3.44403">
        <ele>109.25</ele>
        <time>2013-05-19T09:23:20Z</time>
      </trkpt>
      <trkpt lat="48.65579" lon="-3.44411">
        <ele>109.25</ele>
        <time>2013-05-19T09:23:21Z</time>
      </trkpt>
      <trkpt lat="48.65579" lon="-3.44418">
        <ele>109.73</ele>
        <time>2013-05-19T09:23:22Z</time>
      </trkpt>
      <trkpt lat="48.6558" lon="-3.44424">
        <ele>109.25</ele>
        <time>2013-05-19T09:23:23Z</time>
      </trkpt>
      <trkpt lat="48.65582" lon="-3.44455">
        <ele>108.77</ele>
        <time>2013-05-19T09:23:30Z</time>
      </trkpt>
      <trkpt lat="48.65583" lon="-3.44462">
        <ele>108.77</ele>
        <time>2013-05-19T09:23:31Z</time>
      </trkpt>
      <trkpt lat="48.65583" lon="-3.44469">
        <ele>108.77</ele>
        <time>2013-05-19T09:23:32Z</time>
      </trkpt>
      <trkpt lat="48.65584" lon="-3.44477">
        <ele>108.77</ele>
        <time>2013-05-19T09:23:33Z</time>
      </trkpt>
      <trkpt lat="48.65586" lon="-3.44485">
        <ele>108.77</ele>
        <time>2013-05-19T09:23:34Z</time>
      </trkpt>
      <trkpt lat="48.65588" lon="-3.44493">
        <ele>108.29</ele>
        <time>2013-05-19T09:23:35Z</time>
      </trkpt>
      <trkpt lat="48.65591" lon="-3.44499">
        <ele>108.77</ele>
        <time>2013-05-19T09:23:36Z</time>
      </trkpt>
      <trkpt lat="48.65595" lon="-3.44504">
        <ele>108.29</ele>
        <time>2013-05-19T09:23:37Z</time>
      </trkpt>
      <trkpt lat="48.65601" lon="-3.44506">
        <ele>108.29</ele>
        <time>2013-05-19T09:23:38Z</time>
      </trkpt>
      <trkpt lat="48.65606" lon="-3.44505">
        <ele>108.29</ele>
        <time>2013-05-19T09:23:39Z</time>
      </trkpt>
      <trkpt lat="48.65612" lon="-3.44504">
        <ele>108.29</ele>
        <time>2013-05-19T09:23:40Z</time>
      </trkpt>
      <trkpt lat="48.6571" lon="-3.44488">
        <ele>106.84</ele>
        <time>2013-05-19T09:23:56Z</time>
      </trkpt>
      <trkpt lat="48.65814" lon="-3.44486">
        <ele>105.4</ele>
        <time>2013-05-19T09:24:12Z</time>
      </trkpt>
      <trkpt lat="48.65902" lon="-3.4449">
        <ele>105.88</ele>
        <time>2013-05-19T09:24:26Z</time>
      </trkpt>
      <trkpt lat="48.65926" lon="-3.44496">
        <ele>104.92</ele>
        <time>2013-05-19T09:24:30Z</time>
      </trkpt>
      <trkpt lat="48.6593" lon="-3.44501">
        <ele>105.4</ele>
        <time>2013-05-19T09:24:31Z</time>
      </trkpt>
      <trkpt lat="48.65934" lon="-3.44507">
        <ele>104.92</ele>
        <time>2013-05-19T09:24:32Z</time>
      </trkpt>
      <trkpt lat="48.65936" lon="-3.44515">
        <ele>104.44</ele>
        <time>2013-05-19T09:24:33Z</time>
      </trkpt>
      <trkpt lat="48.65936" lon="-3.44524">
        <ele>103.96</ele>
        <time>2013-05-19T09:24:34Z</time>
      </trkpt>
      <trkpt lat="48.65937" lon="-3.44533">
        <ele>103.96</ele>
        <time>2013-05-19T09:24:35Z</time>
      </trkpt>
      <trkpt lat="48.65936" lon="-3.44568">
        <ele>104.44</ele>
        <time>2013-05-19T09:24:39Z</time>
      </trkpt>
      <trkpt lat="48.65932" lon="-3.44679">
        <ele>104.44</ele>
        <time>2013-05-19T09:24:51Z</time>
      </trkpt>
      <trkpt lat="48.65942" lon="-3.448">
        <ele>102.52</ele>
        <time>2013-05-19T09:25:03Z</time>
      </trkpt>
      <trkpt lat="48.65937" lon="-3.44942">
        <ele>99.63</ele>
        <time>2013-05-19T09:25:15Z</time>
      </trkpt>
      <trkpt lat="48.65935" lon="-3.45028">
        <ele>98.67</ele>
        <time>2013-05-19T09:25:23Z</time>
      </trkpt>
      <trkpt lat="48.65937" lon="-3.45037">
        <ele>98.67</ele>
        <time>2013-05-19T09:25:24Z</time>
      </trkpt>
      <trkpt lat="48.6594" lon="-3.45046">
        <ele>98.67</ele>
        <time>2013-05-19T09:25:25Z</time>
      </trkpt>
      <trkpt lat="48.65944" lon="-3.45054">
        <ele>98.67</ele>
        <time>2013-05-19T09:25:26Z</time>
      </trkpt>
      <trkpt lat="48.65948" lon="-3.45061">
        <ele>98.67</ele>
        <time>2013-05-19T09:25:27Z</time>
      </trkpt>
      <trkpt lat="48.65953" lon="-3.45068">
        <ele>98.67</ele>
        <time>2013-05-19T09:25:28Z</time>
      </trkpt>
      <trkpt lat="48.65958" lon="-3.45073">
        <ele>99.15</ele>
        <time>2013-05-19T09:25:29Z</time>
      </trkpt>
      <trkpt lat="48.65963" lon="-3.45077">
        <ele>98.67</ele>
        <time>2013-05-19T09:25:30Z</time>
      </trkpt>
      <trkpt lat="48.65969" lon="-3.45081">
        <ele>99.15</ele>
        <time>2013-05-19T09:25:31Z</time>
      </trkpt>
      <trkpt lat="48.65974" lon="-3.45085">
        <ele>99.15</ele>
        <time>2013-05-19T09:25:32Z</time>
      </trkpt>
      <trkpt lat="48.6598" lon="-3.45088">
        <ele>99.15</ele>
        <time>2013-05-19T09:25:33Z</time>
      </trkpt>
      <trkpt lat="48.66009" lon="-3.45101">
        <ele>99.15</ele>
        <time>2013-05-19T09:25:38Z</time>
      </trkpt>
      <trkpt lat="48.66032" lon="-3.45112">
        <ele>99.15</ele>
        <time>2013-05-19T09:25:42Z</time>
      </trkpt>
      <trkpt lat="48.66062" lon="-3.45129">
        <ele>98.67</ele>
        <time>2013-05-19T09:25:47Z</time>
      </trkpt>
      <trkpt lat="48.66067" lon="-3.45133">
        <ele>99.15</ele>
        <time>2013-05-19T09:25:48Z</time>
      </trkpt>
      <trkpt lat="48.66134" lon="-3.45209">
        <ele>99.63</ele>
        <time>2013-05-19T09:26:01Z</time>
      </trkpt>
      <trkpt lat="48.66139" lon="-3.45216">
        <ele>99.15</ele>
        <time>2013-05-19T09:26:02Z</time>
      </trkpt>
      <trkpt lat="48.66148" lon="-3.45231">
        <ele>99.15</ele>
        <time>2013-05-19T09:26:04Z</time>
      </trkpt>
      <trkpt lat="48.66151" lon="-3.45239">
        <ele>99.15</ele>
        <time>2013-05-19T09:26:05Z</time>
      </trkpt>
      <trkpt lat="48.66153" lon="-3.45249">
        <ele>100.11</ele>
        <time>2013-05-19T09:26:06Z</time>
      </trkpt>
      <trkpt lat="48.66154" lon="-3.45258">
        <ele>99.63</ele>
        <time>2013-05-19T09:26:07Z</time>
      </trkpt>
      <trkpt lat="48.66154" lon="-3.45268">
        <ele>100.11</ele>
        <time>2013-05-19T09:26:08Z</time>
      </trkpt>
      <trkpt lat="48.66153" lon="-3.45277">
        <ele>100.6</ele>
        <time>2013-05-19T09:26:09Z</time>
      </trkpt>
      <trkpt lat="48.66152" lon="-3.45286">
        <ele>100.6</ele>
        <time>2013-05-19T09:26:10Z</time>
      </trkpt>
      <trkpt lat="48.6615" lon="-3.45295">
        <ele>100.6</ele>
        <time>2013-05-19T09:26:11Z</time>
      </trkpt>
      <trkpt lat="48.66146" lon="-3.45313">
        <ele>100.6</ele>
        <time>2013-05-19T09:26:13Z</time>
      </trkpt>
      <trkpt lat="48.66143" lon="-3.45321">
        <ele>101.08</ele>
        <time>2013-05-19T09:26:14Z</time>
      </trkpt>
      <trkpt lat="48.66141" lon="-3.45329">
        <ele>101.08</ele>
        <time>2013-05-19T09:26:15Z</time>
      </trkpt>
      <trkpt lat="48.66135" lon="-3.45345">
        <ele>101.08</ele>
        <time>2013-05-19T09:26:17Z</time>
      </trkpt>
      <trkpt lat="48.66132" lon="-3.45352">
        <ele>101.56</ele>
        <time>2013-05-19T09:26:18Z</time>
      </trkpt>
      <trkpt lat="48.66084" lon="-3.45488">
        <ele>103.96</ele>
        <time>2013-05-19T09:26:37Z</time>
      </trkpt>
      <trkpt lat="48.66081" lon="-3.45494">
        <ele>104.44</ele>
        <time>2013-05-19T09:26:38Z</time>
      </trkpt>
      <trkpt lat="48.66077" lon="-3.45499">
        <ele>103.96</ele>
        <time>2013-05-19T09:26:39Z</time>
      </trkpt>
      <trkpt lat="48.66068" lon="-3.4551">
        <ele>103.96</ele>
        <time>2013-05-19T09:26:41Z</time>
      </trkpt>
      <trkpt lat="48.65998" lon="-3.45586">
        <ele>104.44</ele>
        <time>2013-05-19T09:26:56Z</time>
      </trkpt>
      <trkpt lat="48.65949" lon="-3.45694">
        <ele>104.92</ele>
        <time>2013-05-19T09:27:11Z</time>
      </trkpt>
      <trkpt lat="48.65914" lon="-3.45788">
        <ele>104.92</ele>
        <time>2013-05-19T09:27:23Z</time>
      </trkpt>
      <trkpt lat="48.65912" lon="-3.45805">
        <ele>104.44</ele>
        <time>2013-05-19T09:27:25Z</time>
      </trkpt>
      <trkpt lat="48.65911" lon="-3.45814">
        <ele>104.92</ele>
        <time>2013-05-19T09:27:26Z</time>
      </trkpt>
      <trkpt lat="48.65924" lon="-3.45958">
        <ele>103.48</ele>
        <time>2013-05-19T09:27:42Z</time>
      </trkpt>
      <trkpt lat="48.65929" lon="-3.45977">
        <ele>103</ele>
        <time>2013-05-19T09:27:44Z</time>
      </trkpt>
      <trkpt lat="48.65993" lon="-3.4609">
        <ele>100.6</ele>
        <time>2013-05-19T09:27:58Z</time>
      </trkpt>
      <trkpt lat="48.66031" lon="-3.46141">
        <ele>100.6</ele>
        <time>2013-05-19T09:28:06Z</time>
      </trkpt>
      <trkpt lat="48.66044" lon="-3.46157">
        <ele>101.08</ele>
        <time>2013-05-19T09:28:09Z</time>
      </trkpt>
      <trkpt lat="48.66097" lon="-3.46271">
        <ele>103.48</ele>
        <time>2013-05-19T09:28:25Z</time>
      </trkpt>
      <trkpt lat="48.66143" lon="-3.46399">
        <ele>105.4</ele>
        <time>2013-05-19T09:28:42Z</time>
      </trkpt>
      <trkpt lat="48.66145" lon="-3.46408">
        <ele>105.4</ele>
        <time>2013-05-19T09:28:43Z</time>
      </trkpt>
      <trkpt lat="48.66146" lon="-3.46416">
        <ele>105.4</ele>
        <time>2013-05-19T09:28:44Z</time>
      </trkpt>
      <trkpt lat="48.66148" lon="-3.46425">
        <ele>105.4</ele>
        <time>2013-05-19T09:28:45Z</time>
      </trkpt>
      <trkpt lat="48.66155" lon="-3.46469">
        <ele>105.88</ele>
        <time>2013-05-19T09:28:50Z</time>
      </trkpt>
      <trkpt lat="48.6616" lon="-3.46602">
        <ele>106.36</ele>
        <time>2013-05-19T09:29:04Z</time>
      </trkpt>
      <trkpt lat="48.6616" lon="-3.46739">
        <ele>106.84</ele>
        <time>2013-05-19T09:29:18Z</time>
      </trkpt>
      <trkpt lat="48.66165" lon="-3.46823">
        <ele>109.25</ele>
        <time>2013-05-19T09:29:27Z</time>
      </trkpt>
      <trkpt lat="48.66166" lon="-3.46974">
        <ele>109.73</ele>
        <time>2013-05-19T09:29:43Z</time>
      </trkpt>
      <trkpt lat="48.66165" lon="-3.47117">
        <ele>109.25</ele>
        <time>2013-05-19T09:29:58Z</time>
      </trkpt>
      <trkpt lat="48.66162" lon="-3.47272">
        <ele>107.32</ele>
        <time>2013-05-19T09:30:12Z</time>
      </trkpt>
      <trkpt lat="48.66162" lon="-3.47307">
        <ele>105.4</ele>
        <time>2013-05-19T09:30:15Z</time>
      </trkpt>
      <trkpt lat="48.66171" lon="-3.47377">
        <ele>103</ele>
        <time>2013-05-19T09:30:21Z</time>
      </trkpt>
      <trkpt lat="48.66222" lon="-3.47482">
        <ele>99.15</ele>
        <time>2013-05-19T09:30:31Z</time>
      </trkpt>
      <trkpt lat="48.66255" lon="-3.47541">
        <ele>96.27</ele>
        <time>2013-05-19T09:30:37Z</time>
      </trkpt>
      <trkpt lat="48.6626" lon="-3.4755">
        <ele>96.27</ele>
        <time>2013-05-19T09:30:38Z</time>
      </trkpt>
      <trkpt lat="48.66278" lon="-3.47602">
        <ele>96.27</ele>
        <time>2013-05-19T09:30:44Z</time>
      </trkpt>
      <trkpt lat="48.66286" lon="-3.47643">
        <ele>97.71</ele>
        <time>2013-05-19T09:30:49Z</time>
      </trkpt>
      <trkpt lat="48.66293" lon="-3.477">
        <ele>99.15</ele>
        <time>2013-05-19T09:30:56Z</time>
      </trkpt>
      <trkpt lat="48.66295" lon="-3.47708">
        <ele>99.63</ele>
        <time>2013-05-19T09:30:57Z</time>
      </trkpt>
      <trkpt lat="48.66326" lon="-3.4782">
        <ele>102.52</ele>
        <time>2013-05-19T09:31:13Z</time>
      </trkpt>
      <trkpt lat="48.66373" lon="-3.47945">
        <ele>104.92</ele>
        <time>2013-05-19T09:31:32Z</time>
      </trkpt>
      <trkpt lat="48.66401" lon="-3.48015">
        <ele>105.88</ele>
        <time>2013-05-19T09:31:43Z</time>
      </trkpt>
      <trkpt lat="48.66433" lon="-3.48099">
        <ele>109.25</ele>
        <time>2013-05-19T09:31:57Z</time>
      </trkpt>
      <trkpt lat="48.66453" lon="-3.48177">
        <ele>110.69</ele>
        <time>2013-05-19T09:32:09Z</time>
      </trkpt>
      <trkpt lat="48.66454" lon="-3.48185">
        <ele>111.65</ele>
        <time>2013-05-19T09:32:10Z</time>
      </trkpt>
      <trkpt lat="48.66466" lon="-3.48333">
        <ele>112.13</ele>
        <time>2013-05-19T09:32:30Z</time>
      </trkpt>
      <trkpt lat="48.66477" lon="-3.48458">
        <ele>112.61</ele>
        <time>2013-05-19T09:32:46Z</time>
      </trkpt>
      <trkpt lat="48.66514" lon="-3.48563">
        <ele>115.01</ele>
        <time>2013-05-19T09:33:02Z</time>
      </trkpt>
      <trkpt lat="48.66569" lon="-3.48674">
        <ele>116.46</ele>
        <time>2013-05-19T09:33:21Z</time>
      </trkpt>
      <trkpt lat="48.66616" lon="-3.48763">
        <ele>117.9</ele>
        <time>2013-05-19T09:33:36Z</time>
      </trkpt>
      <trkpt lat="48.6663" lon="-3.48794">
        <ele>118.38</ele>
        <time>2013-05-19T09:33:41Z</time>
      </trkpt>
      <trkpt lat="48.66673" lon="-3.48908">
        <ele>119.82</ele>
        <time>2013-05-19T09:33:58Z</time>
      </trkpt>
      <trkpt lat="48.66711" lon="-3.48978">
        <ele>121.26</ele>
        <time>2013-05-19T09:34:10Z</time>
      </trkpt>
      <trkpt lat="48.66714" lon="-3.48984">
        <ele>120.78</ele>
        <time>2013-05-19T09:34:11Z</time>
      </trkpt>
      <trkpt lat="48.66734" lon="-3.49009">
        <ele>120.78</ele>
        <time>2013-05-19T09:34:16Z</time>
      </trkpt>
      <trkpt lat="48.66737" lon="-3.49014">
        <ele>121.26</ele>
        <time>2013-05-19T09:34:17Z</time>
      </trkpt>
      <trkpt lat="48.66743" lon="-3.49024">
        <ele>120.78</ele>
        <time>2013-05-19T09:34:19Z</time>
      </trkpt>
      <trkpt lat="48.66802" lon="-3.49112">
        <ele>122.71</ele>
        <time>2013-05-19T09:34:35Z</time>
      </trkpt>
      <trkpt lat="48.66856" lon="-3.4919">
        <ele>124.15</ele>
        <time>2013-05-19T09:34:50Z</time>
      </trkpt>
      <trkpt lat="48.6686" lon="-3.49195">
        <ele>123.67</ele>
        <time>2013-05-19T09:34:51Z</time>
      </trkpt>
      <trkpt lat="48.66864" lon="-3.492">
        <ele>124.15</ele>
        <time>2013-05-19T09:34:52Z</time>
      </trkpt>
      <trkpt lat="48.669" lon="-3.49244">
        <ele>125.11</ele>
        <time>2013-05-19T09:35:01Z</time>
      </trkpt>
      <trkpt lat="48.66904" lon="-3.49249">
        <ele>125.11</ele>
        <time>2013-05-19T09:35:02Z</time>
      </trkpt>
      <trkpt lat="48.66963" lon="-3.49312">
        <ele>125.59</ele>
        <time>2013-05-19T09:35:16Z</time>
      </trkpt>
      <trkpt lat="48.67009" lon="-3.49405">
        <ele>127.03</ele>
        <time>2013-05-19T09:35:31Z</time>
      </trkpt>
      <trkpt lat="48.67052" lon="-3.49535">
        <ele>124.15</ele>
        <time>2013-05-19T09:35:47Z</time>
      </trkpt>
      <trkpt lat="48.67096" lon="-3.49684">
        <ele>121.26</ele>
        <time>2013-05-19T09:36:04Z</time>
      </trkpt>
      <trkpt lat="48.6712" lon="-3.49844">
        <ele>119.82</ele>
        <time>2013-05-19T09:36:21Z</time>
      </trkpt>
      <trkpt lat="48.67137" lon="-3.4997">
        <ele>118.86</ele>
        <time>2013-05-19T09:36:35Z</time>
      </trkpt>
      <trkpt lat="48.6716" lon="-3.50082">
        <ele>119.82</ele>
        <time>2013-05-19T09:36:48Z</time>
      </trkpt>
      <trkpt lat="48.67163" lon="-3.5009">
        <ele>119.82</ele>
        <time>2013-05-19T09:36:49Z</time>
      </trkpt>
      <trkpt lat="48.67203" lon="-3.50249">
        <ele>119.34</ele>
        <time>2013-05-19T09:37:08Z</time>
      </trkpt>
      <trkpt lat="48.67237" lon="-3.50375">
        <ele>118.86</ele>
        <time>2013-05-19T09:37:23Z</time>
      </trkpt>
      <trkpt lat="48.67291" lon="-3.50467">
        <ele>117.42</ele>
        <time>2013-05-19T09:37:36Z</time>
      </trkpt>
      <trkpt lat="48.67382" lon="-3.50561">
        <ele>115.01</ele>
        <time>2013-05-19T09:37:53Z</time>
      </trkpt>
      <trkpt lat="48.67456" lon="-3.50638">
        <ele>114.53</ele>
        <time>2013-05-19T09:38:07Z</time>
      </trkpt>
      <trkpt lat="48.67489" lon="-3.5068">
        <ele>114.05</ele>
        <time>2013-05-19T09:38:14Z</time>
      </trkpt>
      <trkpt lat="48.67494" lon="-3.50684">
        <ele>114.05</ele>
        <time>2013-05-19T09:38:15Z</time>
      </trkpt>
      <trkpt lat="48.67505" lon="-3.50689">
        <ele>113.57</ele>
        <time>2013-05-19T09:38:17Z</time>
      </trkpt>
      <trkpt lat="48.67511" lon="-3.50693">
        <ele>114.05</ele>
        <time>2013-05-19T09:38:18Z</time>
      </trkpt>
      <trkpt lat="48.67521" lon="-3.507">
        <ele>114.05</ele>
        <time>2013-05-19T09:38:20Z</time>
      </trkpt>
      <trkpt lat="48.67527" lon="-3.50702">
        <ele>113.57</ele>
        <time>2013-05-19T09:38:21Z</time>
      </trkpt>
      <trkpt lat="48.67533" lon="-3.50704">
        <ele>114.05</ele>
        <time>2013-05-19T09:38:22Z</time>
      </trkpt>
      <trkpt lat="48.6756" lon="-3.50708">
        <ele>114.05</ele>
        <time>2013-05-19T09:38:27Z</time>
      </trkpt>
      <trkpt lat="48.67565" lon="-3.50708">
        <ele>113.57</ele>
        <time>2013-05-19T09:38:28Z</time>
      </trkpt>
      <trkpt lat="48.67569" lon="-3.50705">
        <ele>113.57</ele>
        <time>2013-05-19T09:38:29Z</time>
      </trkpt>
      <trkpt lat="48.67572" lon="-3.50699">
        <ele>112.61</ele>
        <time>2013-05-19T09:38:30Z</time>
      </trkpt>
      <trkpt lat="48.67572" lon="-3.50692">
        <ele>112.61</ele>
        <time>2013-05-19T09:38:31Z</time>
      </trkpt>
      <trkpt lat="48.67571" lon="-3.50685">
        <ele>112.61</ele>
        <time>2013-05-19T09:38:32Z</time>
      </trkpt>
      <trkpt lat="48.6757" lon="-3.50676">
        <ele>112.61</ele>
        <time>2013-05-19T09:38:33Z</time>
      </trkpt>
      <trkpt lat="48.67569" lon="-3.50668">
        <ele>112.61</ele>
        <time>2013-05-19T09:38:34Z</time>
      </trkpt>
      <trkpt lat="48.67563" lon="-3.50607">
        <ele>113.09</ele>
        <time>2013-05-19T09:38:41Z</time>
      </trkpt>
      <trkpt lat="48.67557" lon="-3.50528">
        <ele>113.09</ele>
        <time>2013-05-19T09:38:50Z</time>
      </trkpt>
      <trkpt lat="48.67554" lon="-3.50512">
        <ele>112.61</ele>
        <time>2013-05-19T09:38:52Z</time>
      </trkpt>
      <trkpt lat="48.67552" lon="-3.50438">
        <ele>113.09</ele>
        <time>2013-05-19T09:39:00Z</time>
      </trkpt>
      <trkpt lat="48.67564" lon="-3.50346">
        <ele>112.61</ele>
        <time>2013-05-19T09:39:10Z</time>
      </trkpt>
      <trkpt lat="48.67563" lon="-3.50317">
        <ele>113.09</ele>
        <time>2013-05-19T09:39:13Z</time>
      </trkpt>
      <trkpt lat="48.67562" lon="-3.50308">
        <ele>113.57</ele>
        <time>2013-05-19T09:39:14Z</time>
      </trkpt>
      <trkpt lat="48.67561" lon="-3.50188">
        <ele>113.57</ele>
        <time>2013-05-19T09:39:27Z</time>
      </trkpt>
      <trkpt lat="48.67567" lon="-3.50149">
        <ele>113.09</ele>
        <time>2013-05-19T09:39:31Z</time>
      </trkpt>
      <trkpt lat="48.67569" lon="-3.5014">
        <ele>113.09</ele>
        <time>2013-05-19T09:39:32Z</time>
      </trkpt>
      <trkpt lat="48.67577" lon="-3.50052">
        <ele>113.09</ele>
        <time>2013-05-19T09:39:41Z</time>
      </trkpt>
      <trkpt lat="48.6758" lon="-3.49987">
        <ele>113.09</ele>
        <time>2013-05-19T09:39:48Z</time>
      </trkpt>
      <trkpt lat="48.67581" lon="-3.49968">
        <ele>112.61</ele>
        <time>2013-05-19T09:39:50Z</time>
      </trkpt>
      <trkpt lat="48.67576" lon="-3.4983">
        <ele>113.09</ele>
        <time>2013-05-19T09:40:04Z</time>
      </trkpt>
      <trkpt lat="48.67563" lon="-3.49729">
        <ele>113.09</ele>
        <time>2013-05-19T09:40:14Z</time>
      </trkpt>
      <trkpt lat="48.67562" lon="-3.49718">
        <ele>113.09</ele>
        <time>2013-05-19T09:40:15Z</time>
      </trkpt>
      <trkpt lat="48.67563" lon="-3.49708">
        <ele>113.09</ele>
        <time>2013-05-19T09:40:16Z</time>
      </trkpt>
      <trkpt lat="48.67564" lon="-3.49698">
        <ele>113.09</ele>
        <time>2013-05-19T09:40:17Z</time>
      </trkpt>
      <trkpt lat="48.67567" lon="-3.49689">
        <ele>113.57</ele>
        <time>2013-05-19T09:40:18Z</time>
      </trkpt>
      <trkpt lat="48.67571" lon="-3.49681">
        <ele>113.57</ele>
        <time>2013-05-19T09:40:19Z</time>
      </trkpt>
      <trkpt lat="48.67577" lon="-3.49674">
        <ele>114.05</ele>
        <time>2013-05-19T09:40:20Z</time>
      </trkpt>
      <trkpt lat="48.67582" lon="-3.49668">
        <ele>114.05</ele>
        <time>2013-05-19T09:40:21Z</time>
      </trkpt>
      <trkpt lat="48.67588" lon="-3.49662">
        <ele>114.53</ele>
        <time>2013-05-19T09:40:22Z</time>
      </trkpt>
      <trkpt lat="48.67641" lon="-3.49618">
        <ele>114.53</ele>
        <time>2013-05-19T09:40:31Z</time>
      </trkpt>
      <trkpt lat="48.67668" lon="-3.49604">
        <ele>114.05</ele>
        <time>2013-05-19T09:40:35Z</time>
      </trkpt>
      <trkpt lat="48.67752" lon="-3.49595">
        <ele>112.13</ele>
        <time>2013-05-19T09:40:47Z</time>
      </trkpt>
      <trkpt lat="48.67759" lon="-3.49594">
        <ele>112.13</ele>
        <time>2013-05-19T09:40:48Z</time>
      </trkpt>
      <trkpt lat="48.67765" lon="-3.49592">
        <ele>112.13</ele>
        <time>2013-05-19T09:40:49Z</time>
      </trkpt>
      <trkpt lat="48.67851" lon="-3.49556">
        <ele>110.21</ele>
        <time>2013-05-19T09:41:02Z</time>
      </trkpt>
      <trkpt lat="48.67858" lon="-3.49555">
        <ele>110.21</ele>
        <time>2013-05-19T09:41:03Z</time>
      </trkpt>
      <trkpt lat="48.67865" lon="-3.49552">
        <ele>109.73</ele>
        <time>2013-05-19T09:41:04Z</time>
      </trkpt>
      <trkpt lat="48.67941" lon="-3.49496">
        <ele>108.77</ele>
        <time>2013-05-19T09:41:16Z</time>
      </trkpt>
      <trkpt lat="48.67954" lon="-3.49488">
        <ele>108.77</ele>
        <time>2013-05-19T09:41:18Z</time>
      </trkpt>
      <trkpt lat="48.67959" lon="-3.49483">
        <ele>108.29</ele>
        <time>2013-05-19T09:41:19Z</time>
      </trkpt>
      <trkpt lat="48.67964" lon="-3.49476">
        <ele>108.29</ele>
        <time>2013-05-19T09:41:20Z</time>
      </trkpt>
      <trkpt lat="48.67968" lon="-3.49468">
        <ele>108.29</ele>
        <time>2013-05-19T09:41:21Z</time>
      </trkpt>
      <trkpt lat="48.6797" lon="-3.49459">
        <ele>107.81</ele>
        <time>2013-05-19T09:41:22Z</time>
      </trkpt>
      <trkpt lat="48.67972" lon="-3.4945">
        <ele>107.81</ele>
        <time>2013-05-19T09:41:23Z</time>
      </trkpt>
      <trkpt lat="48.67974" lon="-3.4944">
        <ele>107.32</ele>
        <time>2013-05-19T09:41:24Z</time>
      </trkpt>
      <trkpt lat="48.67996" lon="-3.49322">
        <ele>107.32</ele>
        <time>2013-05-19T09:41:36Z</time>
      </trkpt>
      <trkpt lat="48.67999" lon="-3.49313">
        <ele>107.32</ele>
        <time>2013-05-19T09:41:37Z</time>
      </trkpt>
      <trkpt lat="48.68048" lon="-3.49188">
        <ele>106.36</ele>
        <time>2013-05-19T09:41:51Z</time>
      </trkpt>
      <trkpt lat="48.68087" lon="-3.49068">
        <ele>104.44</ele>
        <time>2013-05-19T09:42:03Z</time>
      </trkpt>
      <trkpt lat="48.68092" lon="-3.49059">
        <ele>103.96</ele>
        <time>2013-05-19T09:42:04Z</time>
      </trkpt>
      <trkpt lat="48.68097" lon="-3.4905">
        <ele>103.96</ele>
        <time>2013-05-19T09:42:05Z</time>
      </trkpt>
      <trkpt lat="48.68102" lon="-3.49042">
        <ele>103.96</ele>
        <time>2013-05-19T09:42:06Z</time>
      </trkpt>
      <trkpt lat="48.68108" lon="-3.49035">
        <ele>103.96</ele>
        <time>2013-05-19T09:42:07Z</time>
      </trkpt>
      <trkpt lat="48.68115" lon="-3.49028">
        <ele>104.44</ele>
        <time>2013-05-19T09:42:08Z</time>
      </trkpt>
      <trkpt lat="48.68188" lon="-3.4898">
        <ele>101.08</ele>
        <time>2013-05-19T09:42:18Z</time>
      </trkpt>
      <trkpt lat="48.68254" lon="-3.48945">
        <ele>99.63</ele>
        <time>2013-05-19T09:42:27Z</time>
      </trkpt>
      <trkpt lat="48.6826" lon="-3.48938">
        <ele>99.63</ele>
        <time>2013-05-19T09:42:28Z</time>
      </trkpt>
      <trkpt lat="48.68265" lon="-3.4893">
        <ele>99.15</ele>
        <time>2013-05-19T09:42:29Z</time>
      </trkpt>
      <trkpt lat="48.68269" lon="-3.48921">
        <ele>99.15</ele>
        <time>2013-05-19T09:42:30Z</time>
      </trkpt>
      <trkpt lat="48.68273" lon="-3.48911">
        <ele>99.15</ele>
        <time>2013-05-19T09:42:31Z</time>
      </trkpt>
      <trkpt lat="48.68276" lon="-3.48901">
        <ele>99.15</ele>
        <time>2013-05-19T09:42:32Z</time>
      </trkpt>
      <trkpt lat="48.68278" lon="-3.4889">
        <ele>99.15</ele>
        <time>2013-05-19T09:42:33Z</time>
      </trkpt>
      <trkpt lat="48.68279" lon="-3.48879">
        <ele>99.15</ele>
        <time>2013-05-19T09:42:34Z</time>
      </trkpt>
      <trkpt lat="48.6828" lon="-3.48869">
        <ele>99.15</ele>
        <time>2013-05-19T09:42:35Z</time>
      </trkpt>
      <trkpt lat="48.68291" lon="-3.487">
        <ele>98.67</ele>
        <time>2013-05-19T09:42:51Z</time>
      </trkpt>
      <trkpt lat="48.68305" lon="-3.48531">
        <ele>97.23</ele>
        <time>2013-05-19T09:43:06Z</time>
      </trkpt>
      <trkpt lat="48.68314" lon="-3.48382">
        <ele>95.31</ele>
        <time>2013-05-19T09:43:19Z</time>
      </trkpt>
      <trkpt lat="48.68313" lon="-3.48371">
        <ele>95.31</ele>
        <time>2013-05-19T09:43:20Z</time>
      </trkpt>
      <trkpt lat="48.68308" lon="-3.48341">
        <ele>95.79</ele>
        <time>2013-05-19T09:43:23Z</time>
      </trkpt>
      <trkpt lat="48.68302" lon="-3.48324">
        <ele>96.27</ele>
        <time>2013-05-19T09:43:25Z</time>
      </trkpt>
      <trkpt lat="48.6829" lon="-3.48289">
        <ele>99.15</ele>
        <time>2013-05-19T09:43:30Z</time>
      </trkpt>
      <trkpt lat="48.6829" lon="-3.48276">
        <ele>100.11</ele>
        <time>2013-05-19T09:43:32Z</time>
      </trkpt>
      <trkpt lat="48.68293" lon="-3.48262">
        <ele>101.08</ele>
        <time>2013-05-19T09:43:34Z</time>
      </trkpt>
      <trkpt lat="48.68296" lon="-3.4824">
        <ele>102.52</ele>
        <time>2013-05-19T09:43:37Z</time>
      </trkpt>
      <trkpt lat="48.68309" lon="-3.48177">
        <ele>105.88</ele>
        <time>2013-05-19T09:43:45Z</time>
      </trkpt>
      <trkpt lat="48.68339" lon="-3.48043">
        <ele>106.84</ele>
        <time>2013-05-19T09:43:59Z</time>
      </trkpt>
      <trkpt lat="48.68381" lon="-3.4792">
        <ele>106.84</ele>
        <time>2013-05-19T09:44:13Z</time>
      </trkpt>
      <trkpt lat="48.68387" lon="-3.47902">
        <ele>106.84</ele>
        <time>2013-05-19T09:44:15Z</time>
      </trkpt>
      <trkpt lat="48.68404" lon="-3.47844">
        <ele>106.84</ele>
        <time>2013-05-19T09:44:21Z</time>
      </trkpt>
      <trkpt lat="48.68408" lon="-3.47836">
        <ele>106.84</ele>
        <time>2013-05-19T09:44:22Z</time>
      </trkpt>
      <trkpt lat="48.68435" lon="-3.47737">
        <ele>105.88</ele>
        <time>2013-05-19T09:44:32Z</time>
      </trkpt>
      <trkpt lat="48.68436" lon="-3.47727">
        <ele>105.88</ele>
        <time>2013-05-19T09:44:33Z</time>
      </trkpt>
      <trkpt lat="48.68437" lon="-3.47695">
        <ele>105.88</ele>
        <time>2013-05-19T09:44:36Z</time>
      </trkpt>
      <trkpt lat="48.68439" lon="-3.47685">
        <ele>106.36</ele>
        <time>2013-05-19T09:44:37Z</time>
      </trkpt>
      <trkpt lat="48.68442" lon="-3.47675">
        <ele>105.88</ele>
        <time>2013-05-19T09:44:38Z</time>
      </trkpt>
      <trkpt lat="48.6845" lon="-3.47658">
        <ele>106.36</ele>
        <time>2013-05-19T09:44:40Z</time>
      </trkpt>
      <trkpt lat="48.68458" lon="-3.47642">
        <ele>106.36</ele>
        <time>2013-05-19T09:44:42Z</time>
      </trkpt>
      <trkpt lat="48.68463" lon="-3.47635">
        <ele>106.84</ele>
        <time>2013-05-19T09:44:43Z</time>
      </trkpt>
      <trkpt lat="48.68467" lon="-3.47628">
        <ele>106.84</ele>
        <time>2013-05-19T09:44:44Z</time>
      </trkpt>
      <trkpt lat="48.68476" lon="-3.47613">
        <ele>106.84</ele>
        <time>2013-05-19T09:44:46Z</time>
      </trkpt>
      <trkpt lat="48.68485" lon="-3.47599">
        <ele>107.32</ele>
        <time>2013-05-19T09:44:48Z</time>
      </trkpt>
      <trkpt lat="48.68515" lon="-3.47551">
        <ele>108.29</ele>
        <time>2013-05-19T09:44:55Z</time>
      </trkpt>
      <trkpt lat="48.6857" lon="-3.47458">
        <ele>111.65</ele>
        <time>2013-05-19T09:45:09Z</time>
      </trkpt>
      <trkpt lat="48.68593" lon="-3.4742">
        <ele>113.09</ele>
        <time>2013-05-19T09:45:15Z</time>
      </trkpt>
      <trkpt lat="48.68597" lon="-3.47414">
        <ele>113.09</ele>
        <time>2013-05-19T09:45:16Z</time>
      </trkpt>
      <trkpt lat="48.68601" lon="-3.47407">
        <ele>113.57</ele>
        <time>2013-05-19T09:45:17Z</time>
      </trkpt>
      <trkpt lat="48.6863" lon="-3.47345">
        <ele>115.01</ele>
        <time>2013-05-19T09:45:26Z</time>
      </trkpt>
      <trkpt lat="48.68634" lon="-3.47339">
        <ele>115.01</ele>
        <time>2013-05-19T09:45:27Z</time>
      </trkpt>
      <trkpt lat="48.6864" lon="-3.47334">
        <ele>114.53</ele>
        <time>2013-05-19T09:45:28Z</time>
      </trkpt>
      <trkpt lat="48.68646" lon="-3.47331">
        <ele>115.01</ele>
        <time>2013-05-19T09:45:29Z</time>
      </trkpt>
      <trkpt lat="48.68652" lon="-3.47331">
        <ele>115.01</ele>
        <time>2013-05-19T09:45:30Z</time>
      </trkpt>
      <trkpt lat="48.68658" lon="-3.47333">
        <ele>115.01</ele>
        <time>2013-05-19T09:45:31Z</time>
      </trkpt>
      <trkpt lat="48.68663" lon="-3.47337">
        <ele>115.5</ele>
        <time>2013-05-19T09:45:32Z</time>
      </trkpt>
      <trkpt lat="48.68669" lon="-3.47341">
        <ele>115.5</ele>
        <time>2013-05-19T09:45:33Z</time>
      </trkpt>
      <trkpt lat="48.68706" lon="-3.47373">
        <ele>115.5</ele>
        <time>2013-05-19T09:45:40Z</time>
      </trkpt>
      <trkpt lat="48.68768" lon="-3.47403">
        <ele>115.01</ele>
        <time>2013-05-19T09:45:50Z</time>
      </trkpt>
      <trkpt lat="48.68793" lon="-3.47413">
        <ele>115.01</ele>
        <time>2013-05-19T09:45:54Z</time>
      </trkpt>
      <trkpt lat="48.68813" lon="-3.47419">
        <ele>115.01</ele>
        <time>2013-05-19T09:45:57Z</time>
      </trkpt>
      <trkpt lat="48.6884" lon="-3.47419">
        <ele>114.53</ele>
        <time>2013-05-19T09:46:01Z</time>
      </trkpt>
      <trkpt lat="48.68846" lon="-3.47417">
        <ele>115.01</ele>
        <time>2013-05-19T09:46:02Z</time>
      </trkpt>
      <trkpt lat="48.68852" lon="-3.47414">
        <ele>114.53</ele>
        <time>2013-05-19T09:46:03Z</time>
      </trkpt>
      <trkpt lat="48.68859" lon="-3.47411">
        <ele>114.53</ele>
        <time>2013-05-19T09:46:04Z</time>
      </trkpt>
      <trkpt lat="48.68865" lon="-3.47406">
        <ele>114.05</ele>
        <time>2013-05-19T09:46:05Z</time>
      </trkpt>
      <trkpt lat="48.68871" lon="-3.47401">
        <ele>114.05</ele>
        <time>2013-05-19T09:46:06Z</time>
      </trkpt>
      <trkpt lat="48.68877" lon="-3.47396">
        <ele>114.05</ele>
        <time>2013-05-19T09:46:07Z</time>
      </trkpt>
      <trkpt lat="48.68894" lon="-3.47374">
        <ele>112.61</ele>
        <time>2013-05-19T09:46:10Z</time>
      </trkpt>
      <trkpt lat="48.68939" lon="-3.47311">
        <ele>109.73</ele>
        <time>2013-05-19T09:46:17Z</time>
      </trkpt>
      <trkpt lat="48.68947" lon="-3.47304">
        <ele>108.77</ele>
        <time>2013-05-19T09:46:18Z</time>
      </trkpt>
      <trkpt lat="48.68956" lon="-3.47299">
        <ele>108.77</ele>
        <time>2013-05-19T09:46:19Z</time>
      </trkpt>
      <trkpt lat="48.68965" lon="-3.47295">
        <ele>107.81</ele>
        <time>2013-05-19T09:46:20Z</time>
      </trkpt>
      <trkpt lat="48.68975" lon="-3.47293">
        <ele>107.32</ele>
        <time>2013-05-19T09:46:21Z</time>
      </trkpt>
      <trkpt lat="48.68986" lon="-3.47292">
        <ele>106.36</ele>
        <time>2013-05-19T09:46:22Z</time>
      </trkpt>
      <trkpt lat="48.68996" lon="-3.47292">
        <ele>105.88</ele>
        <time>2013-05-19T09:46:23Z</time>
      </trkpt>
      <trkpt lat="48.69016" lon="-3.47288">
        <ele>105.4</ele>
        <time>2013-05-19T09:46:25Z</time>
      </trkpt>
      <trkpt lat="48.69025" lon="-3.47282">
        <ele>103.96</ele>
        <time>2013-05-19T09:46:26Z</time>
      </trkpt>
      <trkpt lat="48.69035" lon="-3.47275">
        <ele>103.48</ele>
        <time>2013-05-19T09:46:27Z</time>
      </trkpt>
      <trkpt lat="48.69043" lon="-3.47267">
        <ele>102.52</ele>
        <time>2013-05-19T09:46:28Z</time>
      </trkpt>
      <trkpt lat="48.69051" lon="-3.47257">
        <ele>102.52</ele>
        <time>2013-05-19T09:46:29Z</time>
      </trkpt>
      <trkpt lat="48.69091" lon="-3.47205">
        <ele>99.15</ele>
        <time>2013-05-19T09:46:34Z</time>
      </trkpt>
      <trkpt lat="48.69126" lon="-3.47166">
        <ele>96.75</ele>
        <time>2013-05-19T09:46:38Z</time>
      </trkpt>
      <trkpt lat="48.69162" lon="-3.47128">
        <ele>93.39</ele>
        <time>2013-05-19T09:46:42Z</time>
      </trkpt>
      <trkpt lat="48.69196" lon="-3.47085">
        <ele>89.54</ele>
        <time>2013-05-19T09:46:46Z</time>
      </trkpt>
      <trkpt lat="48.6921" lon="-3.47065">
        <ele>86.66</ele>
        <time>2013-05-19T09:46:48Z</time>
      </trkpt>
      <trkpt lat="48.69224" lon="-3.47048">
        <ele>85.21</ele>
        <time>2013-05-19T09:46:50Z</time>
      </trkpt>
      <trkpt lat="48.69261" lon="-3.46998">
        <ele>81.85</ele>
        <time>2013-05-19T09:46:55Z</time>
      </trkpt>
      <trkpt lat="48.69294" lon="-3.46959">
        <ele>79.45</ele>
        <time>2013-05-19T09:46:59Z</time>
      </trkpt>
      <trkpt lat="48.69303" lon="-3.46952">
        <ele>78.97</ele>
        <time>2013-05-19T09:47:00Z</time>
      </trkpt>
      <trkpt lat="48.69312" lon="-3.46947">
        <ele>78.97</ele>
        <time>2013-05-19T09:47:01Z</time>
      </trkpt>
      <trkpt lat="48.69322" lon="-3.46944">
        <ele>78.97</ele>
        <time>2013-05-19T09:47:02Z</time>
      </trkpt>
      <trkpt lat="48.69333" lon="-3.46943">
        <ele>78.48</ele>
        <time>2013-05-19T09:47:03Z</time>
      </trkpt>
      <trkpt lat="48.69343" lon="-3.46945">
        <ele>77.52</ele>
        <time>2013-05-19T09:47:04Z</time>
      </trkpt>
      <trkpt lat="48.69352" lon="-3.46948">
        <ele>77.04</ele>
        <time>2013-05-19T09:47:05Z</time>
      </trkpt>
      <trkpt lat="48.69361" lon="-3.46953">
        <ele>76.56</ele>
        <time>2013-05-19T09:47:06Z</time>
      </trkpt>
      <trkpt lat="48.69369" lon="-3.4696">
        <ele>76.08</ele>
        <time>2013-05-19T09:47:07Z</time>
      </trkpt>
      <trkpt lat="48.69376" lon="-3.46968">
        <ele>76.08</ele>
        <time>2013-05-19T09:47:08Z</time>
      </trkpt>
      <trkpt lat="48.69383" lon="-3.46976">
        <ele>75.6</ele>
        <time>2013-05-19T09:47:09Z</time>
      </trkpt>
      <trkpt lat="48.69397" lon="-3.46992">
        <ele>74.64</ele>
        <time>2013-05-19T09:47:11Z</time>
      </trkpt>
      <trkpt lat="48.69404" lon="-3.46999">
        <ele>73.68</ele>
        <time>2013-05-19T09:47:12Z</time>
      </trkpt>
      <trkpt lat="48.69413" lon="-3.47003">
        <ele>73.2</ele>
        <time>2013-05-19T09:47:13Z</time>
      </trkpt>
      <trkpt lat="48.69422" lon="-3.47005">
        <ele>72.24</ele>
        <time>2013-05-19T09:47:14Z</time>
      </trkpt>
      <trkpt lat="48.69431" lon="-3.47004">
        <ele>71.76</ele>
        <time>2013-05-19T09:47:15Z</time>
      </trkpt>
      <trkpt lat="48.6944" lon="-3.47002">
        <ele>71.27</ele>
        <time>2013-05-19T09:47:16Z</time>
      </trkpt>
      <trkpt lat="48.69448" lon="-3.46997">
        <ele>70.79</ele>
        <time>2013-05-19T09:47:17Z</time>
      </trkpt>
      <trkpt lat="48.69456" lon="-3.46989">
        <ele>70.31</ele>
        <time>2013-05-19T09:47:18Z</time>
      </trkpt>
      <trkpt lat="48.69462" lon="-3.4698">
        <ele>69.83</ele>
        <time>2013-05-19T09:47:19Z</time>
      </trkpt>
      <trkpt lat="48.69467" lon="-3.46969">
        <ele>69.35</ele>
        <time>2013-05-19T09:47:20Z</time>
      </trkpt>
      <trkpt lat="48.69471" lon="-3.46956">
        <ele>68.87</ele>
        <time>2013-05-19T09:47:21Z</time>
      </trkpt>
      <trkpt lat="48.69473" lon="-3.46943">
        <ele>68.39</ele>
        <time>2013-05-19T09:47:22Z</time>
      </trkpt>
      <trkpt lat="48.69474" lon="-3.46928">
        <ele>67.91</ele>
        <time>2013-05-19T09:47:23Z</time>
      </trkpt>
      <trkpt lat="48.69473" lon="-3.46913">
        <ele>66.47</ele>
        <time>2013-05-19T09:47:24Z</time>
      </trkpt>
      <trkpt lat="48.69471" lon="-3.46899">
        <ele>65.99</ele>
        <time>2013-05-19T09:47:25Z</time>
      </trkpt>
      <trkpt lat="48.69454" lon="-3.46812">
        <ele>63.1</ele>
        <time>2013-05-19T09:47:31Z</time>
      </trkpt>
      <trkpt lat="48.69431" lon="-3.46761">
        <ele>61.18</ele>
        <time>2013-05-19T09:47:35Z</time>
      </trkpt>
      <trkpt lat="48.69424" lon="-3.4675">
        <ele>60.7</ele>
        <time>2013-05-19T09:47:36Z</time>
      </trkpt>
      <trkpt lat="48.69416" lon="-3.46741">
        <ele>59.74</ele>
        <time>2013-05-19T09:47:37Z</time>
      </trkpt>
      <trkpt lat="48.69409" lon="-3.46733">
        <ele>59.26</ele>
        <time>2013-05-19T09:47:38Z</time>
      </trkpt>
      <trkpt lat="48.69401" lon="-3.46728">
        <ele>58.78</ele>
        <time>2013-05-19T09:47:39Z</time>
      </trkpt>
      <trkpt lat="48.69392" lon="-3.46726">
        <ele>58.3</ele>
        <time>2013-05-19T09:47:40Z</time>
      </trkpt>
      <trkpt lat="48.69382" lon="-3.46726">
        <ele>57.34</ele>
        <time>2013-05-19T09:47:41Z</time>
      </trkpt>
      <trkpt lat="48.69373" lon="-3.46728">
        <ele>56.86</ele>
        <time>2013-05-19T09:47:42Z</time>
      </trkpt>
      <trkpt lat="48.69322" lon="-3.46731">
        <ele>54.45</ele>
        <time>2013-05-19T09:47:47Z</time>
      </trkpt>
      <trkpt lat="48.69284" lon="-3.46719">
        <ele>51.57</ele>
        <time>2013-05-19T09:47:51Z</time>
      </trkpt>
      <trkpt lat="48.69275" lon="-3.46714">
        <ele>51.57</ele>
        <time>2013-05-19T09:47:52Z</time>
      </trkpt>
      <trkpt lat="48.69268" lon="-3.46709">
        <ele>51.09</ele>
        <time>2013-05-19T09:47:53Z</time>
      </trkpt>
      <trkpt lat="48.69262" lon="-3.46703">
        <ele>50.13</ele>
        <time>2013-05-19T09:47:54Z</time>
      </trkpt>
      <trkpt lat="48.69258" lon="-3.46695">
        <ele>49.16</ele>
        <time>2013-05-19T09:47:55Z</time>
      </trkpt>
      <trkpt lat="48.69256" lon="-3.46682">
        <ele>48.68</ele>
        <time>2013-05-19T09:47:56Z</time>
      </trkpt>
      <trkpt lat="48.69257" lon="-3.4667">
        <ele>47.72</ele>
        <time>2013-05-19T09:47:57Z</time>
      </trkpt>
      <trkpt lat="48.6926" lon="-3.46658">
        <ele>47.72</ele>
        <time>2013-05-19T09:47:58Z</time>
      </trkpt>
      <trkpt lat="48.69264" lon="-3.46648">
        <ele>47.72</ele>
        <time>2013-05-19T09:47:59Z</time>
      </trkpt>
      <trkpt lat="48.6927" lon="-3.46639">
        <ele>47.24</ele>
        <time>2013-05-19T09:48:00Z</time>
      </trkpt>
      <trkpt lat="48.69277" lon="-3.46632">
        <ele>47.72</ele>
        <time>2013-05-19T09:48:01Z</time>
      </trkpt>
      <trkpt lat="48.69283" lon="-3.46627">
        <ele>47.24</ele>
        <time>2013-05-19T09:48:02Z</time>
      </trkpt>
      <trkpt lat="48.6929" lon="-3.46625">
        <ele>47.72</ele>
        <time>2013-05-19T09:48:03Z</time>
      </trkpt>
      <trkpt lat="48.69296" lon="-3.46625">
        <ele>48.2</ele>
        <time>2013-05-19T09:48:04Z</time>
      </trkpt>
      <trkpt lat="48.69302" lon="-3.46627">
        <ele>48.2</ele>
        <time>2013-05-19T09:48:05Z</time>
      </trkpt>
      <trkpt lat="48.69308" lon="-3.46629">
        <ele>48.68</ele>
        <time>2013-05-19T09:48:06Z</time>
      </trkpt>
      <trkpt lat="48.69314" lon="-3.4663">
        <ele>48.2</ele>
        <time>2013-05-19T09:48:07Z</time>
      </trkpt>
      <trkpt lat="48.69333" lon="-3.46631">
        <ele>48.68</ele>
        <time>2013-05-19T09:48:10Z</time>
      </trkpt>
      <trkpt lat="48.69364" lon="-3.46623">
        <ele>48.68</ele>
        <time>2013-05-19T09:48:15Z</time>
      </trkpt>
      <trkpt lat="48.6937" lon="-3.46621">
        <ele>49.16</ele>
        <time>2013-05-19T09:48:16Z</time>
      </trkpt>
      <trkpt lat="48.69376" lon="-3.46618">
        <ele>49.16</ele>
        <time>2013-05-19T09:48:17Z</time>
      </trkpt>
      <trkpt lat="48.69382" lon="-3.46614">
        <ele>49.16</ele>
        <time>2013-05-19T09:48:18Z</time>
      </trkpt>
      <trkpt lat="48.69388" lon="-3.4661">
        <ele>49.16</ele>
        <time>2013-05-19T09:48:19Z</time>
      </trkpt>
      <trkpt lat="48.69394" lon="-3.46605">
        <ele>49.65</ele>
        <time>2013-05-19T09:48:20Z</time>
      </trkpt>
      <trkpt lat="48.69399" lon="-3.466">
        <ele>49.65</ele>
        <time>2013-05-19T09:48:21Z</time>
      </trkpt>
      <trkpt lat="48.69404" lon="-3.46594">
        <ele>50.13</ele>
        <time>2013-05-19T09:48:22Z</time>
      </trkpt>
      <trkpt lat="48.69408" lon="-3.46588">
        <ele>50.13</ele>
        <time>2013-05-19T09:48:23Z</time>
      </trkpt>
      <trkpt lat="48.69411" lon="-3.46581">
        <ele>51.09</ele>
        <time>2013-05-19T09:48:24Z</time>
      </trkpt>
      <trkpt lat="48.69413" lon="-3.46575">
        <ele>51.09</ele>
        <time>2013-05-19T09:48:25Z</time>
      </trkpt>
      <trkpt lat="48.69414" lon="-3.46568">
        <ele>51.57</ele>
        <time>2013-05-19T09:48:26Z</time>
      </trkpt>
      <trkpt lat="48.69418" lon="-3.46547">
        <ele>52.53</ele>
        <time>2013-05-19T09:48:29Z</time>
      </trkpt>
      <trkpt lat="48.69418" lon="-3.46539">
        <ele>53.01</ele>
        <time>2013-05-19T09:48:30Z</time>
      </trkpt>
      <trkpt lat="48.69418" lon="-3.46532">
        <ele>53.01</ele>
        <time>2013-05-19T09:48:31Z</time>
      </trkpt>
      <trkpt lat="48.69418" lon="-3.46526">
        <ele>53.49</ele>
        <time>2013-05-19T09:48:32Z</time>
      </trkpt>
      <trkpt lat="48.69418" lon="-3.46519">
        <ele>53.49</ele>
        <time>2013-05-19T09:48:33Z</time>
      </trkpt>
      <trkpt lat="48.69422" lon="-3.46427">
        <ele>56.86</ele>
        <time>2013-05-19T09:48:45Z</time>
      </trkpt>
      <trkpt lat="48.69433" lon="-3.46339">
        <ele>59.74</ele>
        <time>2013-05-19T09:48:57Z</time>
      </trkpt>
      <trkpt lat="48.69442" lon="-3.4629">
        <ele>61.66</ele>
        <time>2013-05-19T09:49:05Z</time>
      </trkpt>
      <trkpt lat="48.69444" lon="-3.46284">
        <ele>61.66</ele>
        <time>2013-05-19T09:49:06Z</time>
      </trkpt>
      <trkpt lat="48.69446" lon="-3.46278">
        <ele>62.14</ele>
        <time>2013-05-19T09:49:07Z</time>
      </trkpt>
      <trkpt lat="48.69452" lon="-3.46267">
        <ele>62.62</ele>
        <time>2013-05-19T09:49:09Z</time>
      </trkpt>
      <trkpt lat="48.69456" lon="-3.46263">
        <ele>63.1</ele>
        <time>2013-05-19T09:49:10Z</time>
      </trkpt>
      <trkpt lat="48.6946" lon="-3.46259">
        <ele>63.1</ele>
        <time>2013-05-19T09:49:11Z</time>
      </trkpt>
      <trkpt lat="48.69465" lon="-3.46255">
        <ele>63.58</ele>
        <time>2013-05-19T09:49:12Z</time>
      </trkpt>
      <trkpt lat="48.69469" lon="-3.46253">
        <ele>64.07</ele>
        <time>2013-05-19T09:49:13Z</time>
      </trkpt>
      <trkpt lat="48.69473" lon="-3.46251">
        <ele>64.07</ele>
        <time>2013-05-19T09:49:14Z</time>
      </trkpt>
      <trkpt lat="48.69496" lon="-3.4624">
        <ele>65.03</ele>
        <time>2013-05-19T09:49:19Z</time>
      </trkpt>
      <trkpt lat="48.695" lon="-3.46236">
        <ele>65.51</ele>
        <time>2013-05-19T09:49:20Z</time>
      </trkpt>
      <trkpt lat="48.69503" lon="-3.46232">
        <ele>65.51</ele>
        <time>2013-05-19T09:49:21Z</time>
      </trkpt>
      <trkpt lat="48.69507" lon="-3.46227">
        <ele>65.51</ele>
        <time>2013-05-19T09:49:22Z</time>
      </trkpt>
      <trkpt lat="48.69509" lon="-3.46221">
        <ele>65.99</ele>
        <time>2013-05-19T09:49:23Z</time>
      </trkpt>
      <trkpt lat="48.69512" lon="-3.46216">
        <ele>66.47</ele>
        <time>2013-05-19T09:49:24Z</time>
      </trkpt>
      <trkpt lat="48.69515" lon="-3.46211">
        <ele>66.47</ele>
        <time>2013-05-19T09:49:25Z</time>
      </trkpt>
      <trkpt lat="48.69527" lon="-3.46182">
        <ele>66.95</ele>
        <time>2013-05-19T09:49:30Z</time>
      </trkpt>
      <trkpt lat="48.69529" lon="-3.46176">
        <ele>66.95</ele>
        <time>2013-05-19T09:49:31Z</time>
      </trkpt>
      <trkpt lat="48.69531" lon="-3.4617">
        <ele>67.91</ele>
        <time>2013-05-19T09:49:32Z</time>
      </trkpt>
      <trkpt lat="48.69534" lon="-3.4615">
        <ele>68.39</ele>
        <time>2013-05-19T09:49:35Z</time>
      </trkpt>
      <trkpt lat="48.69534" lon="-3.46144">
        <ele>68.87</ele>
        <time>2013-05-19T09:49:36Z</time>
      </trkpt>
      <trkpt lat="48.69536" lon="-3.46093">
        <ele>70.31</ele>
        <time>2013-05-19T09:49:44Z</time>
      </trkpt>
      <trkpt lat="48.69554" lon="-3.45958">
        <ele>71.76</ele>
        <time>2013-05-19T09:50:01Z</time>
      </trkpt>
      <trkpt lat="48.69555" lon="-3.4595">
        <ele>72.24</ele>
        <time>2013-05-19T09:50:02Z</time>
      </trkpt>
      <trkpt lat="48.69556" lon="-3.45943">
        <ele>72.24</ele>
        <time>2013-05-19T09:50:03Z</time>
      </trkpt>
      <trkpt lat="48.69559" lon="-3.45936">
        <ele>72.24</ele>
        <time>2013-05-19T09:50:04Z</time>
      </trkpt>
      <trkpt lat="48.69561" lon="-3.45929">
        <ele>72.72</ele>
        <time>2013-05-19T09:50:05Z</time>
      </trkpt>
      <trkpt lat="48.69564" lon="-3.45922">
        <ele>72.72</ele>
        <time>2013-05-19T09:50:06Z</time>
      </trkpt>
      <trkpt lat="48.69567" lon="-3.45916">
        <ele>73.2</ele>
        <time>2013-05-19T09:50:07Z</time>
      </trkpt>
      <trkpt lat="48.69571" lon="-3.45911">
        <ele>73.68</ele>
        <time>2013-05-19T09:50:08Z</time>
      </trkpt>
      <trkpt lat="48.69574" lon="-3.45907">
        <ele>73.68</ele>
        <time>2013-05-19T09:50:09Z</time>
      </trkpt>
      <trkpt lat="48.69578" lon="-3.45903">
        <ele>73.68</ele>
        <time>2013-05-19T09:50:10Z</time>
      </trkpt>
      <trkpt lat="48.69583" lon="-3.45899">
        <ele>73.68</ele>
        <time>2013-05-19T09:50:11Z</time>
      </trkpt>
      <trkpt lat="48.69602" lon="-3.45885">
        <ele>75.12</ele>
        <time>2013-05-19T09:50:15Z</time>
      </trkpt>
      <trkpt lat="48.69607" lon="-3.45881">
        <ele>74.64</ele>
        <time>2013-05-19T09:50:16Z</time>
      </trkpt>
      <trkpt lat="48.69633" lon="-3.4586">
        <ele>75.12</ele>
        <time>2013-05-19T09:50:21Z</time>
      </trkpt>
      <trkpt lat="48.69643" lon="-3.45851">
        <ele>75.12</ele>
        <time>2013-05-19T09:50:23Z</time>
      </trkpt>
      <trkpt lat="48.69647" lon="-3.45845">
        <ele>74.64</ele>
        <time>2013-05-19T09:50:24Z</time>
      </trkpt>
      <trkpt lat="48.69651" lon="-3.45839">
        <ele>74.64</ele>
        <time>2013-05-19T09:50:25Z</time>
      </trkpt>
      <trkpt lat="48.69667" lon="-3.45811">
        <ele>74.64</ele>
        <time>2013-05-19T09:50:29Z</time>
      </trkpt>
      <trkpt lat="48.69707" lon="-3.45712">
        <ele>74.64</ele>
        <time>2013-05-19T09:50:41Z</time>
      </trkpt>
      <trkpt lat="48.69719" lon="-3.45691">
        <ele>74.64</ele>
        <time>2013-05-19T09:50:44Z</time>
      </trkpt>
      <trkpt lat="48.69724" lon="-3.45685">
        <ele>74.64</ele>
        <time>2013-05-19T09:50:45Z</time>
      </trkpt>
      <trkpt lat="48.69734" lon="-3.45673">
        <ele>75.12</ele>
        <time>2013-05-19T09:50:47Z</time>
      </trkpt>
      <trkpt lat="48.6974" lon="-3.45669">
        <ele>74.64</ele>
        <time>2013-05-19T09:50:48Z</time>
      </trkpt>
      <trkpt lat="48.69756" lon="-3.45658">
        <ele>75.6</ele>
        <time>2013-05-19T09:50:51Z</time>
      </trkpt>
      <trkpt lat="48.69765" lon="-3.45652">
        <ele>75.6</ele>
        <time>2013-05-19T09:50:53Z</time>
      </trkpt>
      <trkpt lat="48.6977" lon="-3.45649">
        <ele>76.08</ele>
        <time>2013-05-19T09:50:54Z</time>
      </trkpt>
      <trkpt lat="48.69775" lon="-3.45647">
        <ele>76.56</ele>
        <time>2013-05-19T09:50:55Z</time>
      </trkpt>
      <trkpt lat="48.6978" lon="-3.45645">
        <ele>77.04</ele>
        <time>2013-05-19T09:50:56Z</time>
      </trkpt>
      <trkpt lat="48.69785" lon="-3.45644">
        <ele>77.52</ele>
        <time>2013-05-19T09:50:57Z</time>
      </trkpt>
      <trkpt lat="48.6979" lon="-3.45644">
        <ele>78</ele>
        <time>2013-05-19T09:50:58Z</time>
      </trkpt>
      <trkpt lat="48.69803" lon="-3.45644">
        <ele>78.97</ele>
        <time>2013-05-19T09:51:01Z</time>
      </trkpt>
      <trkpt lat="48.69807" lon="-3.45643">
        <ele>78.97</ele>
        <time>2013-05-19T09:51:02Z</time>
      </trkpt>
      <trkpt lat="48.69811" lon="-3.45642">
        <ele>79.45</ele>
        <time>2013-05-19T09:51:03Z</time>
      </trkpt>
      <trkpt lat="48.69815" lon="-3.45641">
        <ele>79.45</ele>
        <time>2013-05-19T09:51:04Z</time>
      </trkpt>
      <trkpt lat="48.69819" lon="-3.45641">
        <ele>79.45</ele>
        <time>2013-05-19T09:51:05Z</time>
      </trkpt>
      <trkpt lat="48.69853" lon="-3.45634">
        <ele>80.89</ele>
        <time>2013-05-19T09:51:12Z</time>
      </trkpt>
      <trkpt lat="48.69897" lon="-3.45609">
        <ele>82.33</ele>
        <time>2013-05-19T09:51:21Z</time>
      </trkpt>
      <trkpt lat="48.69903" lon="-3.45607">
        <ele>82.33</ele>
        <time>2013-05-19T09:51:22Z</time>
      </trkpt>
      <trkpt lat="48.69914" lon="-3.45601">
        <ele>82.81</ele>
        <time>2013-05-19T09:51:24Z</time>
      </trkpt>
      <trkpt lat="48.69919" lon="-3.45598">
        <ele>82.81</ele>
        <time>2013-05-19T09:51:25Z</time>
      </trkpt>
      <trkpt lat="48.69966" lon="-3.45574">
        <ele>84.25</ele>
        <time>2013-05-19T09:51:34Z</time>
      </trkpt>
      <trkpt lat="48.69971" lon="-3.4557">
        <ele>84.73</ele>
        <time>2013-05-19T09:51:35Z</time>
      </trkpt>
      <trkpt lat="48.69991" lon="-3.45555">
        <ele>85.21</ele>
        <time>2013-05-19T09:51:39Z</time>
      </trkpt>
      <trkpt lat="48.70059" lon="-3.45513">
        <ele>85.21</ele>
        <time>2013-05-19T09:51:50Z</time>
      </trkpt>
      <trkpt lat="48.70131" lon="-3.45511">
        <ele>86.18</ele>
        <time>2013-05-19T09:52:01Z</time>
      </trkpt>
      <trkpt lat="48.70207" lon="-3.45498">
        <ele>86.66</ele>
        <time>2013-05-19T09:52:13Z</time>
      </trkpt>
      <trkpt lat="48.70277" lon="-3.455">
        <ele>86.66</ele>
        <time>2013-05-19T09:52:24Z</time>
      </trkpt>
      <trkpt lat="48.70283" lon="-3.45497">
        <ele>85.69</ele>
        <time>2013-05-19T09:52:25Z</time>
      </trkpt>
      <trkpt lat="48.70287" lon="-3.45491">
        <ele>85.21</ele>
        <time>2013-05-19T09:52:26Z</time>
      </trkpt>
      <trkpt lat="48.70291" lon="-3.45484">
        <ele>85.69</ele>
        <time>2013-05-19T09:52:27Z</time>
      </trkpt>
      <trkpt lat="48.70295" lon="-3.45476">
        <ele>85.69</ele>
        <time>2013-05-19T09:52:28Z</time>
      </trkpt>
      <trkpt lat="48.70297" lon="-3.45467">
        <ele>85.69</ele>
        <time>2013-05-19T09:52:29Z</time>
      </trkpt>
      <trkpt lat="48.703" lon="-3.45459">
        <ele>85.69</ele>
        <time>2013-05-19T09:52:30Z</time>
      </trkpt>
      <trkpt lat="48.70334" lon="-3.45323">
        <ele>87.62</ele>
        <time>2013-05-19T09:52:46Z</time>
      </trkpt>
      <trkpt lat="48.70344" lon="-3.45277">
        <ele>89.06</ele>
        <time>2013-05-19T09:52:52Z</time>
      </trkpt>
      <trkpt lat="48.70355" lon="-3.45237">
        <ele>90.5</ele>
        <time>2013-05-19T09:52:58Z</time>
      </trkpt>
      <trkpt lat="48.70356" lon="-3.4523">
        <ele>90.98</ele>
        <time>2013-05-19T09:52:59Z</time>
      </trkpt>
      <trkpt lat="48.70358" lon="-3.45224">
        <ele>90.5</ele>
        <time>2013-05-19T09:53:00Z</time>
      </trkpt>
      <trkpt lat="48.70362" lon="-3.45211">
        <ele>90.98</ele>
        <time>2013-05-19T09:53:02Z</time>
      </trkpt>
      <trkpt lat="48.70366" lon="-3.45206">
        <ele>91.46</ele>
        <time>2013-05-19T09:53:03Z</time>
      </trkpt>
      <trkpt lat="48.70371" lon="-3.45203">
        <ele>91.46</ele>
        <time>2013-05-19T09:53:04Z</time>
      </trkpt>
      <trkpt lat="48.70377" lon="-3.452">
        <ele>91.94</ele>
        <time>2013-05-19T09:53:05Z</time>
      </trkpt>
      <trkpt lat="48.70382" lon="-3.45197">
        <ele>91.94</ele>
        <time>2013-05-19T09:53:06Z</time>
      </trkpt>
      <trkpt lat="48.70387" lon="-3.45192">
        <ele>91.94</ele>
        <time>2013-05-19T09:53:07Z</time>
      </trkpt>
      <trkpt lat="48.70399" lon="-3.45178">
        <ele>92.42</ele>
        <time>2013-05-19T09:53:10Z</time>
      </trkpt>
      <trkpt lat="48.70402" lon="-3.45171">
        <ele>92.42</ele>
        <time>2013-05-19T09:53:11Z</time>
      </trkpt>
      <trkpt lat="48.70405" lon="-3.45164">
        <ele>91.94</ele>
        <time>2013-05-19T09:53:12Z</time>
      </trkpt>
      <trkpt lat="48.70415" lon="-3.45128">
        <ele>91.46</ele>
        <time>2013-05-19T09:53:16Z</time>
      </trkpt>
      <trkpt lat="48.70416" lon="-3.45117">
        <ele>90.98</ele>
        <time>2013-05-19T09:53:17Z</time>
      </trkpt>
      <trkpt lat="48.70418" lon="-3.45096">
        <ele>90.5</ele>
        <time>2013-05-19T09:53:19Z</time>
      </trkpt>
      <trkpt lat="48.70417" lon="-3.45085">
        <ele>90.5</ele>
        <time>2013-05-19T09:53:20Z</time>
      </trkpt>
      <trkpt lat="48.70417" lon="-3.45073">
        <ele>90.02</ele>
        <time>2013-05-19T09:53:21Z</time>
      </trkpt>
      <trkpt lat="48.70417" lon="-3.4506">
        <ele>89.54</ele>
        <time>2013-05-19T09:53:22Z</time>
      </trkpt>
      <trkpt lat="48.70417" lon="-3.45046">
        <ele>89.06</ele>
        <time>2013-05-19T09:53:23Z</time>
      </trkpt>
      <trkpt lat="48.70417" lon="-3.45032">
        <ele>88.58</ele>
        <time>2013-05-19T09:53:24Z</time>
      </trkpt>
      <trkpt lat="48.70418" lon="-3.45018">
        <ele>88.1</ele>
        <time>2013-05-19T09:53:25Z</time>
      </trkpt>
      <trkpt lat="48.70422" lon="-3.44974">
        <ele>86.66</ele>
        <time>2013-05-19T09:53:28Z</time>
      </trkpt>
      <trkpt lat="48.70433" lon="-3.4488">
        <ele>83.29</ele>
        <time>2013-05-19T09:53:35Z</time>
      </trkpt>
      <trkpt lat="48.70438" lon="-3.44854">
        <ele>81.85</ele>
        <time>2013-05-19T09:53:38Z</time>
      </trkpt>
      <trkpt lat="48.70444" lon="-3.44835">
        <ele>81.37</ele>
        <time>2013-05-19T09:53:43Z</time>
      </trkpt>
      <trkpt lat="48.70448" lon="-3.44832">
        <ele>81.37</ele>
        <time>2013-05-19T09:53:44Z</time>
      </trkpt>
      <trkpt lat="48.70459" lon="-3.44824">
        <ele>81.37</ele>
        <time>2013-05-19T09:53:47Z</time>
      </trkpt>
      <trkpt lat="48.70461" lon="-3.44819">
        <ele>80.89</ele>
        <time>2013-05-19T09:53:48Z</time>
      </trkpt>
      <trkpt lat="48.70461" lon="-3.44812">
        <ele>81.37</ele>
        <time>2013-05-19T09:53:49Z</time>
      </trkpt>
      <trkpt lat="48.70461" lon="-3.44805">
        <ele>80.89</ele>
        <time>2013-05-19T09:53:50Z</time>
      </trkpt>
      <trkpt lat="48.70461" lon="-3.44796">
        <ele>80.89</ele>
        <time>2013-05-19T09:53:51Z</time>
      </trkpt>
      <trkpt lat="48.70457" lon="-3.44711">
        <ele>79.93</ele>
        <time>2013-05-19T09:53:59Z</time>
      </trkpt>
      <trkpt lat="48.70459" lon="-3.44685">
        <ele>78</ele>
        <time>2013-05-19T09:54:01Z</time>
      </trkpt>
      <trkpt lat="48.70459" lon="-3.44672">
        <ele>77.04</ele>
        <time>2013-05-19T09:54:02Z</time>
      </trkpt>
      <trkpt lat="48.70457" lon="-3.44659">
        <ele>77.04</ele>
        <time>2013-05-19T09:54:03Z</time>
      </trkpt>
      <trkpt lat="48.70453" lon="-3.44646">
        <ele>76.56</ele>
        <time>2013-05-19T09:54:04Z</time>
      </trkpt>
      <trkpt lat="48.70449" lon="-3.44634">
        <ele>76.56</ele>
        <time>2013-05-19T09:54:05Z</time>
      </trkpt>
      <trkpt lat="48.70444" lon="-3.44623">
        <ele>76.08</ele>
        <time>2013-05-19T09:54:06Z</time>
      </trkpt>
      <trkpt lat="48.70439" lon="-3.44612">
        <ele>75.6</ele>
        <time>2013-05-19T09:54:07Z</time>
      </trkpt>
      <trkpt lat="48.70435" lon="-3.44601">
        <ele>75.6</ele>
        <time>2013-05-19T09:54:08Z</time>
      </trkpt>
      <trkpt lat="48.70432" lon="-3.44589">
        <ele>75.12</ele>
        <time>2013-05-19T09:54:09Z</time>
      </trkpt>
      <trkpt lat="48.70429" lon="-3.44576">
        <ele>75.12</ele>
        <time>2013-05-19T09:54:10Z</time>
      </trkpt>
      <trkpt lat="48.70415" lon="-3.44402">
        <ele>72.24</ele>
        <time>2013-05-19T09:54:23Z</time>
      </trkpt>
      <trkpt lat="48.70414" lon="-3.44374">
        <ele>71.27</ele>
        <time>2013-05-19T09:54:25Z</time>
      </trkpt>
      <trkpt lat="48.70398" lon="-3.44293">
        <ele>71.76</ele>
        <time>2013-05-19T09:54:32Z</time>
      </trkpt>
      <trkpt lat="48.70393" lon="-3.44259">
        <ele>72.72</ele>
        <time>2013-05-19T09:54:36Z</time>
      </trkpt>
      <trkpt lat="48.70392" lon="-3.4425">
        <ele>73.2</ele>
        <time>2013-05-19T09:54:37Z</time>
      </trkpt>
      <trkpt lat="48.70392" lon="-3.44241">
        <ele>73.2</ele>
        <time>2013-05-19T09:54:38Z</time>
      </trkpt>
      <trkpt lat="48.70369" lon="-3.44115">
        <ele>75.6</ele>
        <time>2013-05-19T09:54:52Z</time>
      </trkpt>
      <trkpt lat="48.7033" lon="-3.43994">
        <ele>76.56</ele>
        <time>2013-05-19T09:55:06Z</time>
      </trkpt>
      <trkpt lat="48.70325" lon="-3.4395">
        <ele>77.52</ele>
        <time>2013-05-19T09:55:11Z</time>
      </trkpt>
      <trkpt lat="48.70324" lon="-3.43941">
        <ele>78</ele>
        <time>2013-05-19T09:55:12Z</time>
      </trkpt>
      <trkpt lat="48.70329" lon="-3.43805">
        <ele>76.56</ele>
        <time>2013-05-19T09:55:25Z</time>
      </trkpt>
      <trkpt lat="48.70349" lon="-3.43719">
        <ele>73.68</ele>
        <time>2013-05-19T09:55:32Z</time>
      </trkpt>
      <trkpt lat="48.70368" lon="-3.43594">
        <ele>73.2</ele>
        <time>2013-05-19T09:55:43Z</time>
      </trkpt>
      <trkpt lat="48.70371" lon="-3.43561">
        <ele>72.72</ele>
        <time>2013-05-19T09:55:46Z</time>
      </trkpt>
      <trkpt lat="48.70371" lon="-3.43528">
        <ele>72.24</ele>
        <time>2013-05-19T09:55:49Z</time>
      </trkpt>
      <trkpt lat="48.7037" lon="-3.43517">
        <ele>71.76</ele>
        <time>2013-05-19T09:55:50Z</time>
      </trkpt>
      <trkpt lat="48.70354" lon="-3.43393">
        <ele>72.72</ele>
        <time>2013-05-19T09:56:02Z</time>
      </trkpt>
      <trkpt lat="48.70346" lon="-3.43336">
        <ele>73.68</ele>
        <time>2013-05-19T09:56:08Z</time>
      </trkpt>
      <trkpt lat="48.70346" lon="-3.43327">
        <ele>74.16</ele>
        <time>2013-05-19T09:56:09Z</time>
      </trkpt>
      <trkpt lat="48.70347" lon="-3.43318">
        <ele>73.68</ele>
        <time>2013-05-19T09:56:10Z</time>
      </trkpt>
      <trkpt lat="48.70349" lon="-3.43309">
        <ele>74.16</ele>
        <time>2013-05-19T09:56:11Z</time>
      </trkpt>
      <trkpt lat="48.70352" lon="-3.43301">
        <ele>74.64</ele>
        <time>2013-05-19T09:56:12Z</time>
      </trkpt>
      <trkpt lat="48.70355" lon="-3.43295">
        <ele>76.08</ele>
        <time>2013-05-19T09:56:13Z</time>
      </trkpt>
      <trkpt lat="48.70359" lon="-3.43288">
        <ele>75.6</ele>
        <time>2013-05-19T09:56:14Z</time>
      </trkpt>
      <trkpt lat="48.7037" lon="-3.43272">
        <ele>77.04</ele>
        <time>2013-05-19T09:56:17Z</time>
      </trkpt>
      <trkpt lat="48.70375" lon="-3.43268">
        <ele>77.52</ele>
        <time>2013-05-19T09:56:18Z</time>
      </trkpt>
      <trkpt lat="48.7038" lon="-3.43264">
        <ele>78.48</ele>
        <time>2013-05-19T09:56:19Z</time>
      </trkpt>
      <trkpt lat="48.70385" lon="-3.43259">
        <ele>78.48</ele>
        <time>2013-05-19T09:56:20Z</time>
      </trkpt>
      <trkpt lat="48.70389" lon="-3.43255">
        <ele>78.97</ele>
        <time>2013-05-19T09:56:21Z</time>
      </trkpt>
      <trkpt lat="48.70394" lon="-3.4325">
        <ele>78.97</ele>
        <time>2013-05-19T09:56:22Z</time>
      </trkpt>
      <trkpt lat="48.70397" lon="-3.43244">
        <ele>79.45</ele>
        <time>2013-05-19T09:56:23Z</time>
      </trkpt>
      <trkpt lat="48.704" lon="-3.43238">
        <ele>79.93</ele>
        <time>2013-05-19T09:56:24Z</time>
      </trkpt>
      <trkpt lat="48.70403" lon="-3.43232">
        <ele>79.93</ele>
        <time>2013-05-19T09:56:25Z</time>
      </trkpt>
      <trkpt lat="48.70405" lon="-3.43225">
        <ele>80.89</ele>
        <time>2013-05-19T09:56:26Z</time>
      </trkpt>
      <trkpt lat="48.70407" lon="-3.43217">
        <ele>80.89</ele>
        <time>2013-05-19T09:56:27Z</time>
      </trkpt>
      <trkpt lat="48.70407" lon="-3.43208">
        <ele>81.37</ele>
        <time>2013-05-19T09:56:28Z</time>
      </trkpt>
      <trkpt lat="48.70407" lon="-3.432">
        <ele>81.37</ele>
        <time>2013-05-19T09:56:29Z</time>
      </trkpt>
      <trkpt lat="48.70408" lon="-3.43193">
        <ele>81.85</ele>
        <time>2013-05-19T09:56:30Z</time>
      </trkpt>
      <trkpt lat="48.70408" lon="-3.43186">
        <ele>82.33</ele>
        <time>2013-05-19T09:56:31Z</time>
      </trkpt>
      <trkpt lat="48.70407" lon="-3.43178">
        <ele>82.33</ele>
        <time>2013-05-19T09:56:32Z</time>
      </trkpt>
      <trkpt lat="48.70406" lon="-3.43171">
        <ele>82.33</ele>
        <time>2013-05-19T09:56:33Z</time>
      </trkpt>
      <trkpt lat="48.704" lon="-3.43121">
        <ele>84.73</ele>
        <time>2013-05-19T09:56:40Z</time>
      </trkpt>
      <trkpt lat="48.70399" lon="-3.43114">
        <ele>85.21</ele>
        <time>2013-05-19T09:56:41Z</time>
      </trkpt>
      <trkpt lat="48.70398" lon="-3.43078">
        <ele>86.66</ele>
        <time>2013-05-19T09:56:46Z</time>
      </trkpt>
      <trkpt lat="48.70399" lon="-3.43071">
        <ele>86.66</ele>
        <time>2013-05-19T09:56:47Z</time>
      </trkpt>
      <trkpt lat="48.70402" lon="-3.4305">
        <ele>87.62</ele>
        <time>2013-05-19T09:56:50Z</time>
      </trkpt>
      <trkpt lat="48.70404" lon="-3.43036">
        <ele>88.1</ele>
        <time>2013-05-19T09:56:52Z</time>
      </trkpt>
      <trkpt lat="48.70406" lon="-3.4303">
        <ele>88.58</ele>
        <time>2013-05-19T09:56:53Z</time>
      </trkpt>
      <trkpt lat="48.70407" lon="-3.43025">
        <ele>88.58</ele>
        <time>2013-05-19T09:56:54Z</time>
      </trkpt>
      <trkpt lat="48.70408" lon="-3.43021">
        <ele>89.06</ele>
        <time>2013-05-19T09:56:55Z</time>
      </trkpt>
      <trkpt lat="48.70409" lon="-3.43016">
        <ele>89.06</ele>
        <time>2013-05-19T09:56:56Z</time>
      </trkpt>
      <trkpt lat="48.70411" lon="-3.43012">
        <ele>89.54</ele>
        <time>2013-05-19T09:56:57Z</time>
      </trkpt>
      <trkpt lat="48.70422" lon="-3.4296">
        <ele>91.94</ele>
        <time>2013-05-19T09:57:06Z</time>
      </trkpt>
      <trkpt lat="48.7043" lon="-3.42879">
        <ele>90.98</ele>
        <time>2013-05-19T09:57:16Z</time>
      </trkpt>
      <trkpt lat="48.70433" lon="-3.42869">
        <ele>90.5</ele>
        <time>2013-05-19T09:57:17Z</time>
      </trkpt>
      <trkpt lat="48.70437" lon="-3.42859">
        <ele>90.5</ele>
        <time>2013-05-19T09:57:18Z</time>
      </trkpt>
      <trkpt lat="48.70441" lon="-3.4285">
        <ele>90.02</ele>
        <time>2013-05-19T09:57:19Z</time>
      </trkpt>
      <trkpt lat="48.70446" lon="-3.42841">
        <ele>90.02</ele>
        <time>2013-05-19T09:57:20Z</time>
      </trkpt>
      <trkpt lat="48.70486" lon="-3.42781">
        <ele>87.62</ele>
        <time>2013-05-19T09:57:27Z</time>
      </trkpt>
      <trkpt lat="48.70501" lon="-3.42765">
        <ele>86.18</ele>
        <time>2013-05-19T09:57:29Z</time>
      </trkpt>
      <trkpt lat="48.70567" lon="-3.42704">
        <ele>83.29</ele>
        <time>2013-05-19T09:57:37Z</time>
      </trkpt>
      <trkpt lat="48.70611" lon="-3.42655">
        <ele>79.93</ele>
        <time>2013-05-19T09:57:42Z</time>
      </trkpt>
      <trkpt lat="48.7064" lon="-3.42624">
        <ele>77.04</ele>
        <time>2013-05-19T09:57:45Z</time>
      </trkpt>
      <trkpt lat="48.70661" lon="-3.42608">
        <ele>73.68</ele>
        <time>2013-05-19T09:57:47Z</time>
      </trkpt>
      <trkpt lat="48.70673" lon="-3.426">
        <ele>72.72</ele>
        <time>2013-05-19T09:57:48Z</time>
      </trkpt>
      <trkpt lat="48.70683" lon="-3.42595">
        <ele>72.24</ele>
        <time>2013-05-19T09:57:49Z</time>
      </trkpt>
      <trkpt lat="48.70694" lon="-3.42591">
        <ele>71.76</ele>
        <time>2013-05-19T09:57:50Z</time>
      </trkpt>
      <trkpt lat="48.70748" lon="-3.4258">
        <ele>69.83</ele>
        <time>2013-05-19T09:57:55Z</time>
      </trkpt>
      <trkpt lat="48.70759" lon="-3.42577">
        <ele>69.35</ele>
        <time>2013-05-19T09:57:56Z</time>
      </trkpt>
      <trkpt lat="48.70832" lon="-3.42533">
        <ele>66.47</ele>
        <time>2013-05-19T09:58:04Z</time>
      </trkpt>
      <trkpt lat="48.70882" lon="-3.42498">
        <ele>63.58</ele>
        <time>2013-05-19T09:58:10Z</time>
      </trkpt>
      <trkpt lat="48.7089" lon="-3.4249">
        <ele>63.1</ele>
        <time>2013-05-19T09:58:11Z</time>
      </trkpt>
      <trkpt lat="48.70897" lon="-3.42481">
        <ele>62.14</ele>
        <time>2013-05-19T09:58:12Z</time>
      </trkpt>
      <trkpt lat="48.70904" lon="-3.42469">
        <ele>61.66</ele>
        <time>2013-05-19T09:58:13Z</time>
      </trkpt>
      <trkpt lat="48.70911" lon="-3.42458">
        <ele>62.14</ele>
        <time>2013-05-19T09:58:14Z</time>
      </trkpt>
      <trkpt lat="48.70919" lon="-3.42447">
        <ele>60.7</ele>
        <time>2013-05-19T09:58:15Z</time>
      </trkpt>
      <trkpt lat="48.70927" lon="-3.42437">
        <ele>58.78</ele>
        <time>2013-05-19T09:58:16Z</time>
      </trkpt>
      <trkpt lat="48.70935" lon="-3.42427">
        <ele>58.3</ele>
        <time>2013-05-19T09:58:17Z</time>
      </trkpt>
      <trkpt lat="48.70945" lon="-3.42418">
        <ele>57.34</ele>
        <time>2013-05-19T09:58:18Z</time>
      </trkpt>
      <trkpt lat="48.70965" lon="-3.42405">
        <ele>54.93</ele>
        <time>2013-05-19T09:58:20Z</time>
      </trkpt>
      <trkpt lat="48.70998" lon="-3.42388">
        <ele>51.57</ele>
        <time>2013-05-19T09:58:23Z</time>
      </trkpt>
      <trkpt lat="48.71034" lon="-3.42373">
        <ele>48.2</ele>
        <time>2013-05-19T09:58:26Z</time>
      </trkpt>
      <trkpt lat="48.71068" lon="-3.42364">
        <ele>43.88</ele>
        <time>2013-05-19T09:58:29Z</time>
      </trkpt>
      <trkpt lat="48.71091" lon="-3.42359">
        <ele>40.51</ele>
        <time>2013-05-19T09:58:31Z</time>
      </trkpt>
      <trkpt lat="48.71102" lon="-3.42358">
        <ele>39.07</ele>
        <time>2013-05-19T09:58:32Z</time>
      </trkpt>
      <trkpt lat="48.71113" lon="-3.42359">
        <ele>38.11</ele>
        <time>2013-05-19T09:58:33Z</time>
      </trkpt>
      <trkpt lat="48.71123" lon="-3.42363">
        <ele>37.63</ele>
        <time>2013-05-19T09:58:34Z</time>
      </trkpt>
      <trkpt lat="48.71133" lon="-3.42367">
        <ele>37.15</ele>
        <time>2013-05-19T09:58:35Z</time>
      </trkpt>
      <trkpt lat="48.71143" lon="-3.42372">
        <ele>36.67</ele>
        <time>2013-05-19T09:58:36Z</time>
      </trkpt>
      <trkpt lat="48.71218" lon="-3.42425">
        <ele>33.3</ele>
        <time>2013-05-19T09:58:45Z</time>
      </trkpt>
      <trkpt lat="48.71247" lon="-3.42443">
        <ele>33.3</ele>
        <time>2013-05-19T09:58:49Z</time>
      </trkpt>
      <trkpt lat="48.71255" lon="-3.42445">
        <ele>31.86</ele>
        <time>2013-05-19T09:58:50Z</time>
      </trkpt>
      <trkpt lat="48.71263" lon="-3.42444">
        <ele>30.42</ele>
        <time>2013-05-19T09:58:51Z</time>
      </trkpt>
      <trkpt lat="48.71271" lon="-3.42442">
        <ele>29.94</ele>
        <time>2013-05-19T09:58:52Z</time>
      </trkpt>
      <trkpt lat="48.7128" lon="-3.42439">
        <ele>29.46</ele>
        <time>2013-05-19T09:58:53Z</time>
      </trkpt>
      <trkpt lat="48.71308" lon="-3.42428">
        <ele>26.09</ele>
        <time>2013-05-19T09:58:56Z</time>
      </trkpt>
      <trkpt lat="48.71346" lon="-3.42408">
        <ele>21.77</ele>
        <time>2013-05-19T09:59:00Z</time>
      </trkpt>
      <trkpt lat="48.71353" lon="-3.42402">
        <ele>20.32</ele>
        <time>2013-05-19T09:59:01Z</time>
      </trkpt>
      <trkpt lat="48.71359" lon="-3.42396">
        <ele>18.88</ele>
        <time>2013-05-19T09:59:02Z</time>
      </trkpt>
      <trkpt lat="48.71363" lon="-3.42389">
        <ele>16</ele>
        <time>2013-05-19T09:59:03Z</time>
      </trkpt>
      <trkpt lat="48.71366" lon="-3.42379">
        <ele>15.04</ele>
        <time>2013-05-19T09:59:04Z</time>
      </trkpt>
      <trkpt lat="48.71365" lon="-3.42367">
        <ele>14.56</ele>
        <time>2013-05-19T09:59:05Z</time>
      </trkpt>
      <trkpt lat="48.71363" lon="-3.42357">
        <ele>14.08</ele>
        <time>2013-05-19T09:59:06Z</time>
      </trkpt>
      <trkpt lat="48.71359" lon="-3.42347">
        <ele>13.6</ele>
        <time>2013-05-19T09:59:07Z</time>
      </trkpt>
      <trkpt lat="48.71354" lon="-3.42338">
        <ele>13.6</ele>
        <time>2013-05-19T09:59:08Z</time>
      </trkpt>
      <trkpt lat="48.71349" lon="-3.4233">
        <ele>13.12</ele>
        <time>2013-05-19T09:59:09Z</time>
      </trkpt>
      <trkpt lat="48.71269" lon="-3.42232">
        <ele>11.67</ele>
        <time>2013-05-19T09:59:22Z</time>
      </trkpt>
      <trkpt lat="48.71217" lon="-3.42164">
        <ele>11.19</ele>
        <time>2013-05-19T09:59:31Z</time>
      </trkpt>
      <trkpt lat="48.71214" lon="-3.42156">
        <ele>10.71</ele>
        <time>2013-05-19T09:59:32Z</time>
      </trkpt>
      <trkpt lat="48.71213" lon="-3.42146">
        <ele>11.19</ele>
        <time>2013-05-19T09:59:33Z</time>
      </trkpt>
      <trkpt lat="48.71214" lon="-3.42136">
        <ele>11.67</ele>
        <time>2013-05-19T09:59:34Z</time>
      </trkpt>
      <trkpt lat="48.71216" lon="-3.42126">
        <ele>11.67</ele>
        <time>2013-05-19T09:59:35Z</time>
      </trkpt>
      <trkpt lat="48.71218" lon="-3.42117">
        <ele>12.15</ele>
        <time>2013-05-19T09:59:36Z</time>
      </trkpt>
      <trkpt lat="48.7122" lon="-3.42109">
        <ele>12.63</ele>
        <time>2013-05-19T09:59:37Z</time>
      </trkpt>
      <trkpt lat="48.71236" lon="-3.42055">
        <ele>12.63</ele>
        <time>2013-05-19T09:59:43Z</time>
      </trkpt>
      <trkpt lat="48.7124" lon="-3.42048">
        <ele>12.63</ele>
        <time>2013-05-19T09:59:44Z</time>
      </trkpt>
      <trkpt lat="48.71245" lon="-3.42041">
        <ele>12.63</ele>
        <time>2013-05-19T09:59:45Z</time>
      </trkpt>
      <trkpt lat="48.7125" lon="-3.42035">
        <ele>12.63</ele>
        <time>2013-05-19T09:59:46Z</time>
      </trkpt>
      <trkpt lat="48.71256" lon="-3.42032">
        <ele>13.12</ele>
        <time>2013-05-19T09:59:47Z</time>
      </trkpt>
      <trkpt lat="48.71262" lon="-3.4203">
        <ele>13.6</ele>
        <time>2013-05-19T09:59:48Z</time>
      </trkpt>
      <trkpt lat="48.71267" lon="-3.4203">
        <ele>14.08</ele>
        <time>2013-05-19T09:59:49Z</time>
      </trkpt>
      <trkpt lat="48.71272" lon="-3.42031">
        <ele>14.56</ele>
        <time>2013-05-19T09:59:50Z</time>
      </trkpt>
      <trkpt lat="48.71285" lon="-3.42033">
        <ele>15.52</ele>
        <time>2013-05-19T09:59:53Z</time>
      </trkpt>
      <trkpt lat="48.71289" lon="-3.42035">
        <ele>16</ele>
        <time>2013-05-19T09:59:54Z</time>
      </trkpt>
      <trkpt lat="48.71309" lon="-3.42047">
        <ele>17.44</ele>
        <time>2013-05-19T09:59:59Z</time>
      </trkpt>
      <trkpt lat="48.71312" lon="-3.42049">
        <ele>17.92</ele>
        <time>2013-05-19T10:00:00Z</time>
      </trkpt>
      <trkpt lat="48.7136" lon="-3.42076">
        <ele>21.77</ele>
        <time>2013-05-19T10:00:14Z</time>
      </trkpt>
      <trkpt lat="48.71403" lon="-3.42099">
        <ele>24.65</ele>
        <time>2013-05-19T10:00:28Z</time>
      </trkpt>
      <trkpt lat="48.71455" lon="-3.42107">
        <ele>27.53</ele>
        <time>2013-05-19T10:00:41Z</time>
      </trkpt>
      <trkpt lat="48.71493" lon="-3.42076">
        <ele>30.42</ele>
        <time>2013-05-19T10:00:52Z</time>
      </trkpt>
      <trkpt lat="48.71517" lon="-3.42024">
        <ele>33.3</ele>
        <time>2013-05-19T10:01:04Z</time>
      </trkpt>
      <trkpt lat="48.71544" lon="-3.41964">
        <ele>36.19</ele>
        <time>2013-05-19T10:01:17Z</time>
      </trkpt>
      <trkpt lat="48.71592" lon="-3.41909">
        <ele>39.07</ele>
        <time>2013-05-19T10:01:32Z</time>
      </trkpt>
      <trkpt lat="48.71603" lon="-3.41909">
        <ele>40.99</ele>
        <time>2013-05-19T10:01:35Z</time>
      </trkpt>
      <trkpt lat="48.71606" lon="-3.41909">
        <ele>40.99</ele>
        <time>2013-05-19T10:01:36Z</time>
      </trkpt>
      <trkpt lat="48.7161" lon="-3.41909">
        <ele>41.47</ele>
        <time>2013-05-19T10:01:37Z</time>
      </trkpt>
      <trkpt lat="48.71673" lon="-3.41901">
        <ele>43.88</ele>
        <time>2013-05-19T10:01:53Z</time>
      </trkpt>
      <trkpt lat="48.71692" lon="-3.41888">
        <ele>44.84</ele>
        <time>2013-05-19T10:01:58Z</time>
      </trkpt>
      <trkpt lat="48.71695" lon="-3.41884">
        <ele>45.32</ele>
        <time>2013-05-19T10:01:59Z</time>
      </trkpt>
      <trkpt lat="48.71698" lon="-3.4188">
        <ele>45.32</ele>
        <time>2013-05-19T10:02:00Z</time>
      </trkpt>
      <trkpt lat="48.717" lon="-3.41875">
        <ele>45.32</ele>
        <time>2013-05-19T10:02:01Z</time>
      </trkpt>
      <trkpt lat="48.71702" lon="-3.41871">
        <ele>45.8</ele>
        <time>2013-05-19T10:02:02Z</time>
      </trkpt>
      <trkpt lat="48.71716" lon="-3.41808">
        <ele>48.68</ele>
        <time>2013-05-19T10:02:13Z</time>
      </trkpt>
      <trkpt lat="48.71735" lon="-3.41715">
        <ele>52.05</ele>
        <time>2013-05-19T10:02:29Z</time>
      </trkpt>
      <trkpt lat="48.71741" lon="-3.41699">
        <ele>52.53</ele>
        <time>2013-05-19T10:02:32Z</time>
      </trkpt>
      <trkpt lat="48.71744" lon="-3.41694">
        <ele>52.53</ele>
        <time>2013-05-19T10:02:33Z</time>
      </trkpt>
      <trkpt lat="48.71747" lon="-3.4169">
        <ele>53.01</ele>
        <time>2013-05-19T10:02:34Z</time>
      </trkpt>
      <trkpt lat="48.7175" lon="-3.41686">
        <ele>53.49</ele>
        <time>2013-05-19T10:02:35Z</time>
      </trkpt>
      <trkpt lat="48.71752" lon="-3.41682">
        <ele>53.49</ele>
        <time>2013-05-19T10:02:36Z</time>
      </trkpt>
      <trkpt lat="48.71792" lon="-3.41617">
        <ele>55.89</ele>
        <time>2013-05-19T10:02:50Z</time>
      </trkpt>
      <trkpt lat="48.71794" lon="-3.41611">
        <ele>55.89</ele>
        <time>2013-05-19T10:02:51Z</time>
      </trkpt>
      <trkpt lat="48.71794" lon="-3.41605">
        <ele>56.37</ele>
        <time>2013-05-19T10:02:52Z</time>
      </trkpt>
      <trkpt lat="48.71795" lon="-3.41599">
        <ele>56.37</ele>
        <time>2013-05-19T10:02:53Z</time>
      </trkpt>
      <trkpt lat="48.71795" lon="-3.41594">
        <ele>56.86</ele>
        <time>2013-05-19T10:02:54Z</time>
      </trkpt>
      <trkpt lat="48.71795" lon="-3.41588">
        <ele>56.86</ele>
        <time>2013-05-19T10:02:55Z</time>
      </trkpt>
      <trkpt lat="48.71795" lon="-3.41582">
        <ele>57.34</ele>
        <time>2013-05-19T10:02:56Z</time>
      </trkpt>
      <trkpt lat="48.71793" lon="-3.4157">
        <ele>57.82</ele>
        <time>2013-05-19T10:02:58Z</time>
      </trkpt>
      <trkpt lat="48.71792" lon="-3.41564">
        <ele>57.82</ele>
        <time>2013-05-19T10:02:59Z</time>
      </trkpt>
      <trkpt lat="48.71791" lon="-3.41558">
        <ele>57.82</ele>
        <time>2013-05-19T10:03:00Z</time>
      </trkpt>
      <trkpt lat="48.71784" lon="-3.41529">
        <ele>58.78</ele>
        <time>2013-05-19T10:03:05Z</time>
      </trkpt>
      <trkpt lat="48.71783" lon="-3.41523">
        <ele>58.78</ele>
        <time>2013-05-19T10:03:06Z</time>
      </trkpt>
      <trkpt lat="48.7177" lon="-3.41456">
        <ele>61.66</ele>
        <time>2013-05-19T10:03:18Z</time>
      </trkpt>
      <trkpt lat="48.71762" lon="-3.41409">
        <ele>63.58</ele>
        <time>2013-05-19T10:03:26Z</time>
      </trkpt>
      <trkpt lat="48.71761" lon="-3.41403">
        <ele>63.58</ele>
        <time>2013-05-19T10:03:27Z</time>
      </trkpt>
      <trkpt lat="48.7176" lon="-3.41398">
        <ele>64.07</ele>
        <time>2013-05-19T10:03:28Z</time>
      </trkpt>
      <trkpt lat="48.71759" lon="-3.41349">
        <ele>64.55</ele>
        <time>2013-05-19T10:03:36Z</time>
      </trkpt>
      <trkpt lat="48.71761" lon="-3.41341">
        <ele>64.55</ele>
        <time>2013-05-19T10:03:37Z</time>
      </trkpt>
      <trkpt lat="48.71763" lon="-3.41334">
        <ele>64.55</ele>
        <time>2013-05-19T10:03:38Z</time>
      </trkpt>
      <trkpt lat="48.71766" lon="-3.41329">
        <ele>64.55</ele>
        <time>2013-05-19T10:03:39Z</time>
      </trkpt>
      <trkpt lat="48.71771" lon="-3.41326">
        <ele>64.55</ele>
        <time>2013-05-19T10:03:40Z</time>
      </trkpt>
      <trkpt lat="48.71776" lon="-3.41325">
        <ele>65.03</ele>
        <time>2013-05-19T10:03:41Z</time>
      </trkpt>
      <trkpt lat="48.71781" lon="-3.41326">
        <ele>65.99</ele>
        <time>2013-05-19T10:03:42Z</time>
      </trkpt>
      <trkpt lat="48.71785" lon="-3.41328">
        <ele>65.51</ele>
        <time>2013-05-19T10:03:43Z</time>
      </trkpt>
      <trkpt lat="48.7179" lon="-3.4133">
        <ele>65.99</ele>
        <time>2013-05-19T10:03:44Z</time>
      </trkpt>
      <trkpt lat="48.71794" lon="-3.41332">
        <ele>65.99</ele>
        <time>2013-05-19T10:03:45Z</time>
      </trkpt>
      <trkpt lat="48.71803" lon="-3.41337">
        <ele>66.47</ele>
        <time>2013-05-19T10:03:47Z</time>
      </trkpt>
      <trkpt lat="48.71838" lon="-3.41326">
        <ele>69.35</ele>
        <time>2013-05-19T10:03:56Z</time>
      </trkpt>
      <trkpt lat="48.71849" lon="-3.41318">
        <ele>69.83</ele>
        <time>2013-05-19T10:03:59Z</time>
      </trkpt>
      <trkpt lat="48.7188" lon="-3.41279">
        <ele>71.76</ele>
        <time>2013-05-19T10:04:10Z</time>
      </trkpt>
      <trkpt lat="48.71882" lon="-3.41273">
        <ele>72.24</ele>
        <time>2013-05-19T10:04:11Z</time>
      </trkpt>
      <trkpt lat="48.71884" lon="-3.41267">
        <ele>71.76</ele>
        <time>2013-05-19T10:04:12Z</time>
      </trkpt>
      <trkpt lat="48.74704" lon="-3.455">
        <ele>77.52</ele>
        <time>2013-05-19T10:29:36Z</time>
      </trkpt>
    </trkseg>
  </trk>
</gpx>